<?xml version='1.0' encoding='UTF-8'?>
<gpx version="1.1" creator="https://www.komoot.de" xmlns="http://www.topografix.com/GPX/1/1" xmlns:xsi="http://www.w3.org/2001/XMLSchema-instance" xsi:schemaLocation="http://www.topografix.com/GPX/1/1 http://www.topografix.com/GPX/1/1/gpx.xsd">
  <metadata>
    <name>Zügig nach  Schlangen Sommer-74km-2026-6-Samstag</name>
    <author>
      <link href="https://www.komoot.de">
        <text>komoot</text>
        <type>text/html</type>
      </link>
    </author>
  </metadata>
  <trk>
    <name>Zügig nach  Schlangen Sommer-74km-2026-6-Samstag</name>
    <trkseg>
      <trkpt lat="52.025180" lon="8.908333">
        <ele>97.532628</ele>
        <time>2025-10-05T16:15:49.877Z</time>
      </trkpt>
      <trkpt lat="52.025158" lon="8.908218">
        <ele>97.532628</ele>
        <time>2025-10-05T16:15:51.426Z</time>
      </trkpt>
      <trkpt lat="52.025226" lon="8.908149">
        <ele>97.532628</ele>
        <time>2025-10-05T16:15:53.105Z</time>
      </trkpt>
      <trkpt lat="52.025279" lon="8.908095">
        <ele>97.532628</ele>
        <time>2025-10-05T16:15:54.443Z</time>
      </trkpt>
      <trkpt lat="52.025251" lon="8.907874">
        <ele>97.532628</ele>
        <time>2025-10-05T16:15:57.523Z</time>
      </trkpt>
      <trkpt lat="52.025203" lon="8.907453">
        <ele>97.532628</ele>
        <time>2025-10-05T16:16:03.418Z</time>
      </trkpt>
      <trkpt lat="52.025188" lon="8.907045">
        <ele>97.532628</ele>
        <time>2025-10-05T16:16:09.080Z</time>
      </trkpt>
      <trkpt lat="52.025135" lon="8.907017">
        <ele>97.543927</ele>
        <time>2025-10-05T16:16:10.606Z</time>
      </trkpt>
      <trkpt lat="52.024396" lon="8.906385">
        <ele>97.893141</ele>
        <time>2025-10-05T16:16:28.869Z</time>
      </trkpt>
      <trkpt lat="52.024340" lon="8.906308">
        <ele>97.923817</ele>
        <time>2025-10-05T16:16:30.472Z</time>
      </trkpt>
      <trkpt lat="52.024136" lon="8.906030">
        <ele>98.035149</ele>
        <time>2025-10-05T16:16:36.335Z</time>
      </trkpt>
      <trkpt lat="52.023984" lon="8.905573">
        <ele>98.168825</ele>
        <time>2025-10-05T16:16:43.338Z</time>
      </trkpt>
      <trkpt lat="52.023846" lon="8.904631">
        <ele>98.396839</ele>
        <time>2025-10-05T16:16:56.110Z</time>
      </trkpt>
      <trkpt lat="52.023851" lon="8.904259">
        <ele>98.477379</ele>
        <time>2025-10-05T16:17:01.005Z</time>
      </trkpt>
      <trkpt lat="52.023872" lon="8.904100">
        <ele>98.512579</ele>
        <time>2025-10-05T16:17:03.153Z</time>
      </trkpt>
      <trkpt lat="52.023892" lon="8.904000">
        <ele>98.535338</ele>
        <time>2025-10-05T16:17:04.538Z</time>
      </trkpt>
      <trkpt lat="52.023946" lon="8.903493">
        <ele>98.646711</ele>
        <time>2025-10-05T16:17:11.434Z</time>
      </trkpt>
      <trkpt lat="52.023918" lon="8.901989">
        <ele>98.967529</ele>
        <time>2025-10-05T16:17:31.731Z</time>
      </trkpt>
      <trkpt lat="52.023986" lon="8.901106">
        <ele>99.143049</ele>
        <time>2025-10-05T16:17:43.515Z</time>
      </trkpt>
      <trkpt lat="52.024077" lon="8.899614">
        <ele>99.438769</ele>
        <time>2025-10-05T16:18:02.975Z</time>
      </trkpt>
      <trkpt lat="52.024100" lon="8.899368">
        <ele>99.487847</ele>
        <time>2025-10-05T16:18:06.235Z</time>
      </trkpt>
      <trkpt lat="52.024068" lon="8.899374">
        <ele>99.537137</ele>
        <time>2025-10-05T16:18:06.962Z</time>
      </trkpt>
      <trkpt lat="52.023849" lon="8.899407">
        <ele>100.269663</ele>
        <time>2025-10-05T16:18:11.848Z</time>
      </trkpt>
      <trkpt lat="52.023674" lon="8.899411">
        <ele>100.852573</ele>
        <time>2025-10-05T16:18:15.978Z</time>
      </trkpt>
      <trkpt lat="52.023588" lon="8.899390">
        <ele>101.142219</ele>
        <time>2025-10-05T16:18:18.039Z</time>
      </trkpt>
      <trkpt lat="52.023537" lon="8.899502">
        <ele>101.427769</ele>
        <time>2025-10-05T16:18:20.047Z</time>
      </trkpt>
      <trkpt lat="52.023348" lon="8.899599">
        <ele>102.087894</ele>
        <time>2025-10-05T16:18:24.770Z</time>
      </trkpt>
      <trkpt lat="52.023324" lon="8.899495">
        <ele>102.315532</ele>
        <time>2025-10-05T16:18:26.725Z</time>
      </trkpt>
      <trkpt lat="52.023089" lon="8.899622">
        <ele>103.140362</ele>
        <time>2025-10-05T16:18:33.966Z</time>
      </trkpt>
      <trkpt lat="52.023075" lon="8.899646">
        <ele>103.208138</ele>
        <time>2025-10-05T16:18:34.579Z</time>
      </trkpt>
      <trkpt lat="52.022876" lon="8.899654">
        <ele>103.871127</ele>
        <time>2025-10-05T16:18:40.665Z</time>
      </trkpt>
      <trkpt lat="52.022793" lon="8.899667">
        <ele>104.148846</ele>
        <time>2025-10-05T16:18:43.259Z</time>
      </trkpt>
      <trkpt lat="52.022794" lon="8.899637">
        <ele>104.210420</ele>
        <time>2025-10-05T16:18:43.754Z</time>
      </trkpt>
      <trkpt lat="52.022794" lon="8.899612">
        <ele>104.261657</ele>
        <time>2025-10-05T16:18:44.172Z</time>
      </trkpt>
      <trkpt lat="52.022801" lon="8.899414">
        <ele>104.668120</ele>
        <time>2025-10-05T16:18:47.505Z</time>
      </trkpt>
      <trkpt lat="52.022705" lon="8.899513">
        <ele>105.046800</ele>
        <time>2025-10-05T16:18:50.645Z</time>
      </trkpt>
      <trkpt lat="52.022683" lon="8.899617">
        <ele>105.272188</ele>
        <time>2025-10-05T16:18:52.527Z</time>
      </trkpt>
      <trkpt lat="52.022670" lon="8.899678">
        <ele>105.404492</ele>
        <time>2025-10-05T16:18:53.655Z</time>
      </trkpt>
      <trkpt lat="52.022332" lon="8.899593">
        <ele>107.012979</ele>
        <time>2025-10-05T16:19:03.629Z</time>
      </trkpt>
      <trkpt lat="52.021981" lon="8.899493">
        <ele>108.725827</ele>
        <time>2025-10-05T16:19:13.978Z</time>
      </trkpt>
      <trkpt lat="52.021367" lon="8.899321">
        <ele>111.720608</ele>
        <time>2025-10-05T16:19:30.869Z</time>
      </trkpt>
      <trkpt lat="52.021224" lon="8.899213">
        <ele>112.478557</ele>
        <time>2025-10-05T16:19:34.919Z</time>
      </trkpt>
      <trkpt lat="52.020953" lon="8.898970">
        <ele>113.966290</ele>
        <time>2025-10-05T16:19:42.531Z</time>
      </trkpt>
      <trkpt lat="52.020901" lon="8.898928">
        <ele>114.144183</ele>
        <time>2025-10-05T16:19:43.920Z</time>
      </trkpt>
      <trkpt lat="52.020279" lon="8.898426">
        <ele>114.556634</ele>
        <time>2025-10-05T16:19:59.797Z</time>
      </trkpt>
      <trkpt lat="52.019783" lon="8.898084">
        <ele>114.876626</ele>
        <time>2025-10-05T16:20:11.079Z</time>
      </trkpt>
      <trkpt lat="52.019676" lon="8.898034">
        <ele>114.942748</ele>
        <time>2025-10-05T16:20:13.321Z</time>
      </trkpt>
      <trkpt lat="52.019296" lon="8.897967">
        <ele>115.169751</ele>
        <time>2025-10-05T16:20:20.861Z</time>
      </trkpt>
      <trkpt lat="52.019129" lon="8.897880">
        <ele>115.093976</ele>
        <time>2025-10-05T16:20:24.276Z</time>
      </trkpt>
      <trkpt lat="52.018499" lon="8.897354">
        <ele>114.515999</ele>
        <time>2025-10-05T16:20:37.913Z</time>
      </trkpt>
      <trkpt lat="52.018432" lon="8.897310">
        <ele>114.457030</ele>
        <time>2025-10-05T16:20:39.278Z</time>
      </trkpt>
      <trkpt lat="52.018370" lon="8.897258">
        <ele>114.400095</ele>
        <time>2025-10-05T16:20:40.620Z</time>
      </trkpt>
      <trkpt lat="52.018011" lon="8.896748">
        <ele>114.010978</ele>
        <time>2025-10-05T16:20:49.890Z</time>
      </trkpt>
      <trkpt lat="52.017698" lon="8.896259">
        <ele>113.738993</ele>
        <time>2025-10-05T16:20:58.647Z</time>
      </trkpt>
      <trkpt lat="52.017625" lon="8.896164">
        <ele>113.747887</ele>
        <time>2025-10-05T16:21:00.594Z</time>
      </trkpt>
      <trkpt lat="52.017411" lon="8.895903">
        <ele>113.773333</ele>
        <time>2025-10-05T16:21:06.226Z</time>
      </trkpt>
      <trkpt lat="52.017073" lon="8.895568">
        <ele>113.810983</ele>
        <time>2025-10-05T16:21:14.597Z</time>
      </trkpt>
      <trkpt lat="52.016916" lon="8.895413">
        <ele>113.828453</ele>
        <time>2025-10-05T16:21:18.557Z</time>
      </trkpt>
      <trkpt lat="52.016800" lon="8.895210">
        <ele>113.844665</ele>
        <time>2025-10-05T16:21:22.246Z</time>
      </trkpt>
      <trkpt lat="52.016712" lon="8.894966">
        <ele>113.861217</ele>
        <time>2025-10-05T16:21:26.065Z</time>
      </trkpt>
      <trkpt lat="52.016678" lon="8.894870">
        <ele>113.867699</ele>
        <time>2025-10-05T16:21:27.550Z</time>
      </trkpt>
      <trkpt lat="52.016404" lon="8.894007">
        <ele>114.049428</ele>
        <time>2025-10-05T16:21:40.529Z</time>
      </trkpt>
      <trkpt lat="52.016199" lon="8.893466">
        <ele>114.287761</ele>
        <time>2025-10-05T16:21:48.900Z</time>
      </trkpt>
      <trkpt lat="52.015762" lon="8.892411">
        <ele>114.764826</ele>
        <time>2025-10-05T16:22:06.144Z</time>
      </trkpt>
      <trkpt lat="52.015220" lon="8.891113">
        <ele>115.858586</ele>
        <time>2025-10-05T16:22:27.958Z</time>
      </trkpt>
      <trkpt lat="52.014898" lon="8.890313">
        <ele>116.726980</ele>
        <time>2025-10-05T16:22:41.562Z</time>
      </trkpt>
      <trkpt lat="52.014882" lon="8.890169">
        <ele>116.859914</ele>
        <time>2025-10-05T16:22:43.666Z</time>
      </trkpt>
      <trkpt lat="52.014929" lon="8.889950">
        <ele>117.070618</ele>
        <time>2025-10-05T16:22:46.984Z</time>
      </trkpt>
      <trkpt lat="52.014368" lon="8.889550">
        <ele>117.980845</ele>
        <time>2025-10-05T16:23:01.118Z</time>
      </trkpt>
      <trkpt lat="52.013952" lon="8.889250">
        <ele>118.665004</ele>
        <time>2025-10-05T16:23:11.652Z</time>
      </trkpt>
      <trkpt lat="52.013664" lon="8.889043">
        <ele>119.138394</ele>
        <time>2025-10-05T16:23:19.015Z</time>
      </trkpt>
      <trkpt lat="52.012279" lon="8.888038">
        <ele>121.157146</ele>
        <time>2025-10-05T16:23:53.416Z</time>
      </trkpt>
      <trkpt lat="52.011734" lon="8.887663">
        <ele>121.827871</ele>
        <time>2025-10-05T16:24:06.641Z</time>
      </trkpt>
      <trkpt lat="52.011435" lon="8.887446">
        <ele>122.198982</ele>
        <time>2025-10-05T16:24:14.014Z</time>
      </trkpt>
      <trkpt lat="52.010708" lon="8.886917">
        <ele>123.404515</ele>
        <time>2025-10-05T16:24:32.357Z</time>
      </trkpt>
      <trkpt lat="52.010312" lon="8.886635">
        <ele>124.104380</ele>
        <time>2025-10-05T16:24:42.426Z</time>
      </trkpt>
      <trkpt lat="52.010010" lon="8.886411">
        <ele>124.641754</ele>
        <time>2025-10-05T16:24:50.148Z</time>
      </trkpt>
      <trkpt lat="52.009774" lon="8.886245">
        <ele>125.058026</ele>
        <time>2025-10-05T16:24:56.121Z</time>
      </trkpt>
      <trkpt lat="52.009763" lon="8.886160">
        <ele>125.144566</ele>
        <time>2025-10-05T16:24:57.357Z</time>
      </trkpt>
      <trkpt lat="52.009597" lon="8.885983">
        <ele>125.413534</ele>
        <time>2025-10-05T16:25:01.943Z</time>
      </trkpt>
      <trkpt lat="52.008486" lon="8.885194">
        <ele>126.732103</ele>
        <time>2025-10-05T16:25:29.321Z</time>
      </trkpt>
      <trkpt lat="52.007535" lon="8.884509">
        <ele>127.712908</ele>
        <time>2025-10-05T16:25:52.410Z</time>
      </trkpt>
      <trkpt lat="52.006531" lon="8.883775">
        <ele>128.610538</ele>
        <time>2025-10-05T16:26:16.981Z</time>
      </trkpt>
      <trkpt lat="52.005948" lon="8.883388">
        <ele>129.275007</ele>
        <time>2025-10-05T16:26:31.086Z</time>
      </trkpt>
      <trkpt lat="52.004997" lon="8.882718">
        <ele>130.442864</ele>
        <time>2025-10-05T16:26:54.492Z</time>
      </trkpt>
      <trkpt lat="52.004817" lon="8.882645">
        <ele>130.651884</ele>
        <time>2025-10-05T16:26:58.689Z</time>
      </trkpt>
      <trkpt lat="52.003678" lon="8.881815">
        <ele>133.007416</ele>
        <time>2025-10-05T16:27:27.599Z</time>
      </trkpt>
      <trkpt lat="52.003177" lon="8.881314">
        <ele>134.152925</ele>
        <time>2025-10-05T16:27:41.635Z</time>
      </trkpt>
      <trkpt lat="52.002851" lon="8.880812">
        <ele>135.197018</ele>
        <time>2025-10-05T16:27:52.379Z</time>
      </trkpt>
      <trkpt lat="52.002671" lon="8.880405">
        <ele>135.929839</ele>
        <time>2025-10-05T16:27:59.648Z</time>
      </trkpt>
      <trkpt lat="52.002616" lon="8.880256">
        <ele>136.183890</ele>
        <time>2025-10-05T16:28:02.165Z</time>
      </trkpt>
      <trkpt lat="52.002576" lon="8.880143">
        <ele>136.374501</ele>
        <time>2025-10-05T16:28:04.061Z</time>
      </trkpt>
      <trkpt lat="52.002496" lon="8.880044">
        <ele>136.613391</ele>
        <time>2025-10-05T16:28:06.448Z</time>
      </trkpt>
      <trkpt lat="52.002399" lon="8.879835">
        <ele>136.996138</ele>
        <time>2025-10-05T16:28:10.247Z</time>
      </trkpt>
      <trkpt lat="52.002314" lon="8.879618">
        <ele>137.372250</ele>
        <time>2025-10-05T16:28:13.999Z</time>
      </trkpt>
      <trkpt lat="52.002119" lon="8.879260">
        <ele>138.071259</ele>
        <time>2025-10-05T16:28:20.922Z</time>
      </trkpt>
      <trkpt lat="52.002081" lon="8.879296">
        <ele>138.175752</ele>
        <time>2025-10-05T16:28:21.959Z</time>
      </trkpt>
      <trkpt lat="52.001995" lon="8.879410">
        <ele>138.439421</ele>
        <time>2025-10-05T16:28:24.581Z</time>
      </trkpt>
      <trkpt lat="52.001944" lon="8.879593">
        <ele>138.769157</ele>
        <time>2025-10-05T16:28:27.480Z</time>
      </trkpt>
      <trkpt lat="52.001563" lon="8.881096">
        <ele>141.566020</ele>
        <time>2025-10-05T16:28:51.250Z</time>
      </trkpt>
      <trkpt lat="52.001486" lon="8.881356">
        <ele>142.062477</ele>
        <time>2025-10-05T16:28:55.599Z</time>
      </trkpt>
      <trkpt lat="52.001400" lon="8.881540">
        <ele>142.459993</ele>
        <time>2025-10-05T16:28:59.083Z</time>
      </trkpt>
      <trkpt lat="52.001332" lon="8.881605">
        <ele>142.680519</ele>
        <time>2025-10-05T16:29:01.038Z</time>
      </trkpt>
      <trkpt lat="51.999377" lon="8.882461">
        <ele>149.339495</ele>
        <time>2025-10-05T16:29:51.253Z</time>
      </trkpt>
      <trkpt lat="51.998997" lon="8.882511">
        <ele>149.923942</ele>
        <time>2025-10-05T16:30:00.542Z</time>
      </trkpt>
      <trkpt lat="51.998335" lon="8.882430">
        <ele>150.577505</ele>
        <time>2025-10-05T16:30:15.972Z</time>
      </trkpt>
      <trkpt lat="51.998089" lon="8.882392">
        <ele>150.820776</ele>
        <time>2025-10-05T16:30:21.407Z</time>
      </trkpt>
      <trkpt lat="51.998090" lon="8.882267">
        <ele>150.896548</ele>
        <time>2025-10-05T16:30:23.066Z</time>
      </trkpt>
      <trkpt lat="51.997253" lon="8.882131">
        <ele>150.995760</ele>
        <time>2025-10-05T16:30:39.205Z</time>
      </trkpt>
      <trkpt lat="51.996312" lon="8.881978">
        <ele>149.801893</ele>
        <time>2025-10-05T16:30:55.783Z</time>
      </trkpt>
      <trkpt lat="51.996019" lon="8.881862">
        <ele>149.421175</ele>
        <time>2025-10-05T16:31:01.606Z</time>
      </trkpt>
      <trkpt lat="51.995665" lon="8.881775">
        <ele>149.256733</ele>
        <time>2025-10-05T16:31:08.905Z</time>
      </trkpt>
      <trkpt lat="51.995083" lon="8.881807">
        <ele>149.799053</ele>
        <time>2025-10-05T16:31:21.699Z</time>
      </trkpt>
      <trkpt lat="51.994249" lon="8.881788">
        <ele>150.575824</ele>
        <time>2025-10-05T16:31:40.847Z</time>
      </trkpt>
      <trkpt lat="51.993412" lon="8.881521">
        <ele>151.503644</ele>
        <time>2025-10-05T16:32:00.523Z</time>
      </trkpt>
      <trkpt lat="51.992979" lon="8.881441">
        <ele>152.006115</ele>
        <time>2025-10-05T16:32:10.493Z</time>
      </trkpt>
      <trkpt lat="51.992960" lon="8.881608">
        <ele>152.126687</ele>
        <time>2025-10-05T16:32:12.874Z</time>
      </trkpt>
      <trkpt lat="51.992955" lon="8.881664">
        <ele>152.166861</ele>
        <time>2025-10-05T16:32:13.657Z</time>
      </trkpt>
      <trkpt lat="51.993293" lon="8.881744">
        <ele>152.560693</ele>
        <time>2025-10-05T16:32:21.268Z</time>
      </trkpt>
      <trkpt lat="51.993275" lon="8.882161">
        <ele>152.857476</ele>
        <time>2025-10-05T16:32:27.201Z</time>
      </trkpt>
      <trkpt lat="51.992967" lon="8.882152">
        <ele>153.082276</ele>
        <time>2025-10-05T16:32:33.960Z</time>
      </trkpt>
      <trkpt lat="51.993275" lon="8.882161">
        <ele>153.296741</ele>
        <time>2025-10-05T16:32:40.479Z</time>
      </trkpt>
      <trkpt lat="51.993293" lon="8.881744">
        <ele>153.475944</ele>
        <time>2025-10-05T16:32:46.238Z</time>
      </trkpt>
      <trkpt lat="51.992955" lon="8.881664">
        <ele>153.713747</ele>
        <time>2025-10-05T16:32:53.817Z</time>
      </trkpt>
      <trkpt lat="51.992960" lon="8.881608">
        <ele>153.738005</ele>
        <time>2025-10-05T16:32:54.585Z</time>
      </trkpt>
      <trkpt lat="51.992979" lon="8.881441">
        <ele>153.810809</ele>
        <time>2025-10-05T16:32:56.884Z</time>
      </trkpt>
      <trkpt lat="51.992185" lon="8.881260">
        <ele>154.583787</ele>
        <time>2025-10-05T16:33:15.053Z</time>
      </trkpt>
      <trkpt lat="51.992003" lon="8.881162">
        <ele>154.840208</ele>
        <time>2025-10-05T16:33:19.422Z</time>
      </trkpt>
      <trkpt lat="51.991937" lon="8.881235">
        <ele>154.946997</ele>
        <time>2025-10-05T16:33:21.243Z</time>
      </trkpt>
      <trkpt lat="51.991816" lon="8.881213">
        <ele>155.109823</ele>
        <time>2025-10-05T16:33:24.072Z</time>
      </trkpt>
      <trkpt lat="51.990862" lon="8.880915">
        <ele>156.409007</ele>
        <time>2025-10-05T16:33:46.298Z</time>
      </trkpt>
      <trkpt lat="51.989993" lon="8.880721">
        <ele>157.934350</ele>
        <time>2025-10-05T16:34:06.354Z</time>
      </trkpt>
      <trkpt lat="51.989863" lon="8.880695">
        <ele>158.168796</ele>
        <time>2025-10-05T16:34:09.380Z</time>
      </trkpt>
      <trkpt lat="51.989596" lon="8.880613">
        <ele>158.655173</ele>
        <time>2025-10-05T16:34:15.679Z</time>
      </trkpt>
      <trkpt lat="51.988819" lon="8.880701">
        <ele>160.125889</ele>
        <time>2025-10-05T16:34:34.031Z</time>
      </trkpt>
      <trkpt lat="51.988216" lon="8.880816">
        <ele>161.500815</ele>
        <time>2025-10-05T16:34:48.493Z</time>
      </trkpt>
      <trkpt lat="51.987200" lon="8.881144">
        <ele>163.847170</ele>
        <time>2025-10-05T16:35:12.886Z</time>
      </trkpt>
      <trkpt lat="51.986634" lon="8.881669">
        <ele>165.381878</ele>
        <time>2025-10-05T16:35:28.081Z</time>
      </trkpt>
      <trkpt lat="51.986524" lon="8.881770">
        <ele>165.679404</ele>
        <time>2025-10-05T16:35:31.056Z</time>
      </trkpt>
      <trkpt lat="51.986097" lon="8.882381">
        <ele>167.019407</ele>
        <time>2025-10-05T16:35:44.498Z</time>
      </trkpt>
      <trkpt lat="51.985303" lon="8.883396">
        <ele>169.733431</ele>
        <time>2025-10-05T16:36:08.878Z</time>
      </trkpt>
      <trkpt lat="51.985088" lon="8.883745">
        <ele>170.629359</ele>
        <time>2025-10-05T16:36:16.347Z</time>
      </trkpt>
      <trkpt lat="51.984651" lon="8.884694">
        <ele>172.780004</ele>
        <time>2025-10-05T16:36:34.162Z</time>
      </trkpt>
      <trkpt lat="51.984574" lon="8.884793">
        <ele>173.069450</ele>
        <time>2025-10-05T16:36:36.548Z</time>
      </trkpt>
      <trkpt lat="51.984028" lon="8.886082">
        <ele>175.456597</ele>
        <time>2025-10-05T16:36:59.504Z</time>
      </trkpt>
      <trkpt lat="51.983434" lon="8.887379">
        <ele>177.888777</ele>
        <time>2025-10-05T16:37:22.834Z</time>
      </trkpt>
      <trkpt lat="51.983383" lon="8.887387">
        <ele>178.031260</ele>
        <time>2025-10-05T16:37:24.027Z</time>
      </trkpt>
      <trkpt lat="51.983324" lon="8.887474">
        <ele>178.252894</ele>
        <time>2025-10-05T16:37:25.907Z</time>
      </trkpt>
      <trkpt lat="51.982637" lon="8.888975">
        <ele>181.455815</ele>
        <time>2025-10-05T16:37:53.505Z</time>
      </trkpt>
      <trkpt lat="51.982431" lon="8.889422">
        <ele>182.412001</ele>
        <time>2025-10-05T16:38:01.949Z</time>
      </trkpt>
      <trkpt lat="51.982382" lon="8.889634">
        <ele>182.820069</ele>
        <time>2025-10-05T16:38:05.379Z</time>
      </trkpt>
      <trkpt lat="51.982251" lon="8.889840">
        <ele>183.469197</ele>
        <time>2025-10-05T16:38:09.889Z</time>
      </trkpt>
      <trkpt lat="51.982098" lon="8.889995">
        <ele>184.111104</ele>
        <time>2025-10-05T16:38:14.361Z</time>
      </trkpt>
      <trkpt lat="51.980933" lon="8.891818">
        <ele>189.733306</ele>
        <time>2025-10-05T16:38:54.823Z</time>
      </trkpt>
      <trkpt lat="51.979631" lon="8.893807">
        <ele>194.158914</ele>
        <time>2025-10-05T16:39:38.124Z</time>
      </trkpt>
      <trkpt lat="51.979555" lon="8.893928">
        <ele>194.056862</ele>
        <time>2025-10-05T16:39:40.518Z</time>
      </trkpt>
      <trkpt lat="51.979555" lon="8.893981">
        <ele>194.025564</ele>
        <time>2025-10-05T16:39:41.267Z</time>
      </trkpt>
      <trkpt lat="51.979598" lon="8.894070">
        <ele>193.958768</ele>
        <time>2025-10-05T16:39:42.780Z</time>
      </trkpt>
      <trkpt lat="51.979668" lon="8.894187">
        <ele>193.862448</ele>
        <time>2025-10-05T16:39:44.985Z</time>
      </trkpt>
      <trkpt lat="51.979546" lon="8.894376">
        <ele>193.700778</ele>
        <time>2025-10-05T16:39:48.488Z</time>
      </trkpt>
      <trkpt lat="51.979127" lon="8.895014">
        <ele>193.150038</ele>
        <time>2025-10-05T16:39:58.981Z</time>
      </trkpt>
      <trkpt lat="51.978850" lon="8.895342">
        <ele>192.821338</ele>
        <time>2025-10-05T16:40:04.600Z</time>
      </trkpt>
      <trkpt lat="51.978309" lon="8.895802">
        <ele>190.833762</ele>
        <time>2025-10-05T16:40:14.411Z</time>
      </trkpt>
      <trkpt lat="51.978103" lon="8.895934">
        <ele>189.853597</ele>
        <time>2025-10-05T16:40:17.837Z</time>
      </trkpt>
      <trkpt lat="51.977544" lon="8.896166">
        <ele>187.299998</ele>
        <time>2025-10-05T16:40:26.579Z</time>
      </trkpt>
      <trkpt lat="51.977104" lon="8.896214">
        <ele>185.348244</ele>
        <time>2025-10-05T16:40:33.292Z</time>
      </trkpt>
      <trkpt lat="51.976527" lon="8.896171">
        <ele>182.664253</ele>
        <time>2025-10-05T16:40:41.995Z</time>
      </trkpt>
      <trkpt lat="51.975990" lon="8.896080">
        <ele>180.111722</ele>
        <time>2025-10-05T16:40:50.097Z</time>
      </trkpt>
      <trkpt lat="51.975468" lon="8.896084">
        <ele>177.643872</ele>
        <time>2025-10-05T16:40:58.024Z</time>
      </trkpt>
      <trkpt lat="51.973832" lon="8.895901">
        <ele>171.866739</ele>
        <time>2025-10-05T16:41:24.143Z</time>
      </trkpt>
      <trkpt lat="51.973129" lon="8.895775">
        <ele>169.996715</ele>
        <time>2025-10-05T16:41:36.429Z</time>
      </trkpt>
      <trkpt lat="51.972870" lon="8.895781">
        <ele>169.621720</ele>
        <time>2025-10-05T16:41:41.115Z</time>
      </trkpt>
      <trkpt lat="51.971341" lon="8.895597">
        <ele>167.387205</ele>
        <time>2025-10-05T16:42:10.374Z</time>
      </trkpt>
      <trkpt lat="51.970246" lon="8.895761">
        <ele>165.723450</ele>
        <time>2025-10-05T16:42:31.194Z</time>
      </trkpt>
      <trkpt lat="51.970200" lon="8.895776">
        <ele>165.652462</ele>
        <time>2025-10-05T16:42:32.036Z</time>
      </trkpt>
      <trkpt lat="51.969886" lon="8.895876">
        <ele>165.168327</ele>
        <time>2025-10-05T16:42:37.593Z</time>
      </trkpt>
      <trkpt lat="51.968907" lon="8.896012">
        <ele>163.959963</ele>
        <time>2025-10-05T16:42:54.624Z</time>
      </trkpt>
      <trkpt lat="51.968803" lon="8.896059">
        <ele>163.830816</ele>
        <time>2025-10-05T16:42:56.550Z</time>
      </trkpt>
      <trkpt lat="51.968208" lon="8.895870">
        <ele>163.105519</ele>
        <time>2025-10-05T16:43:08.410Z</time>
      </trkpt>
      <trkpt lat="51.968104" lon="8.895812">
        <ele>162.973965</ele>
        <time>2025-10-05T16:43:10.719Z</time>
      </trkpt>
      <trkpt lat="51.968073" lon="8.896451">
        <ele>163.540306</ele>
        <time>2025-10-05T16:43:19.393Z</time>
      </trkpt>
      <trkpt lat="51.968064" lon="8.896530">
        <ele>163.652979</ele>
        <time>2025-10-05T16:43:20.530Z</time>
      </trkpt>
      <trkpt lat="51.967891" lon="8.898565">
        <ele>166.534043</ele>
        <time>2025-10-05T16:43:50.565Z</time>
      </trkpt>
      <trkpt lat="51.965714" lon="8.898102">
        <ele>175.273608</ele>
        <time>2025-10-05T16:44:49.157Z</time>
      </trkpt>
      <trkpt lat="51.965566" lon="8.898041">
        <ele>175.669354</ele>
        <time>2025-10-05T16:44:53.033Z</time>
      </trkpt>
      <trkpt lat="51.965411" lon="8.897894">
        <ele>176.134623</ele>
        <time>2025-10-05T16:44:57.522Z</time>
      </trkpt>
      <trkpt lat="51.965277" lon="8.897668">
        <ele>176.635471</ele>
        <time>2025-10-05T16:45:02.287Z</time>
      </trkpt>
      <trkpt lat="51.964774" lon="8.896509">
        <ele>178.899261</ele>
        <time>2025-10-05T16:45:23.193Z</time>
      </trkpt>
      <trkpt lat="51.964595" lon="8.896189">
        <ele>179.499888</ele>
        <time>2025-10-05T16:45:29.461Z</time>
      </trkpt>
      <trkpt lat="51.964390" lon="8.896006">
        <ele>179.841726</ele>
        <time>2025-10-05T16:45:34.983Z</time>
      </trkpt>
      <trkpt lat="51.963649" lon="8.895516">
        <ele>181.010801</ele>
        <time>2025-10-05T16:45:53.943Z</time>
      </trkpt>
      <trkpt lat="51.963339" lon="8.895468">
        <ele>181.465791</ele>
        <time>2025-10-05T16:46:01.377Z</time>
      </trkpt>
      <trkpt lat="51.962372" lon="8.895760">
        <ele>181.294708</ele>
        <time>2025-10-05T16:46:24.315Z</time>
      </trkpt>
      <trkpt lat="51.962470" lon="8.896219">
        <ele>180.942482</ele>
        <time>2025-10-05T16:46:30.149Z</time>
      </trkpt>
      <trkpt lat="51.962372" lon="8.895760">
        <ele>180.590257</ele>
        <time>2025-10-05T16:46:35.546Z</time>
      </trkpt>
      <trkpt lat="51.962283" lon="8.895791">
        <ele>180.483143</ele>
        <time>2025-10-05T16:46:37.199Z</time>
      </trkpt>
      <trkpt lat="51.960904" lon="8.896356">
        <ele>176.901442</ele>
        <time>2025-10-05T16:47:01.001Z</time>
      </trkpt>
      <trkpt lat="51.960183" lon="8.896977">
        <ele>174.253468</ele>
        <time>2025-10-05T16:47:15.026Z</time>
      </trkpt>
      <trkpt lat="51.960165" lon="8.896480">
        <ele>173.490227</ele>
        <time>2025-10-05T16:47:20.203Z</time>
      </trkpt>
      <trkpt lat="51.960155" lon="8.895801">
        <ele>172.525013</ele>
        <time>2025-10-05T16:47:27.366Z</time>
      </trkpt>
      <trkpt lat="51.960150" lon="8.895528">
        <ele>172.136877</ele>
        <time>2025-10-05T16:47:30.265Z</time>
      </trkpt>
      <trkpt lat="51.960143" lon="8.894987">
        <ele>171.367883</ele>
        <time>2025-10-05T16:47:36.059Z</time>
      </trkpt>
      <trkpt lat="51.960082" lon="8.893922">
        <ele>169.865914</ele>
        <time>2025-10-05T16:47:47.640Z</time>
      </trkpt>
      <trkpt lat="51.960091" lon="8.893324">
        <ele>169.252732</ele>
        <time>2025-10-05T16:47:54.040Z</time>
      </trkpt>
      <trkpt lat="51.960106" lon="8.893136">
        <ele>169.058407</ele>
        <time>2025-10-05T16:47:56.125Z</time>
      </trkpt>
      <trkpt lat="51.960139" lon="8.892565">
        <ele>168.470517</ele>
        <time>2025-10-05T16:48:02.351Z</time>
      </trkpt>
      <trkpt lat="51.960158" lon="8.892073">
        <ele>167.965187</ele>
        <time>2025-10-05T16:48:07.780Z</time>
      </trkpt>
      <trkpt lat="51.960163" lon="8.891920">
        <ele>167.808130</ele>
        <time>2025-10-05T16:48:09.545Z</time>
      </trkpt>
      <trkpt lat="51.960192" lon="8.891415">
        <ele>167.288221</ele>
        <time>2025-10-05T16:48:15.474Z</time>
      </trkpt>
      <trkpt lat="51.960225" lon="8.890819">
        <ele>166.794593</ele>
        <time>2025-10-05T16:48:22.522Z</time>
      </trkpt>
      <trkpt lat="51.960230" lon="8.890269">
        <ele>166.505600</ele>
        <time>2025-10-05T16:48:29.166Z</time>
      </trkpt>
      <trkpt lat="51.960195" lon="8.889914">
        <ele>166.316716</ele>
        <time>2025-10-05T16:48:33.561Z</time>
      </trkpt>
      <trkpt lat="51.960037" lon="8.889364">
        <ele>165.997895</ele>
        <time>2025-10-05T16:48:40.862Z</time>
      </trkpt>
      <trkpt lat="51.960023" lon="8.889313">
        <ele>165.968561</ele>
        <time>2025-10-05T16:48:41.547Z</time>
      </trkpt>
      <trkpt lat="51.959875" lon="8.888834">
        <ele>165.687036</ele>
        <time>2025-10-05T16:48:48.057Z</time>
      </trkpt>
      <trkpt lat="51.959795" lon="8.888569">
        <ele>165.531998</ele>
        <time>2025-10-05T16:48:51.668Z</time>
      </trkpt>
      <trkpt lat="51.959717" lon="8.888303">
        <ele>165.385132</ele>
        <time>2025-10-05T16:48:55.279Z</time>
      </trkpt>
      <trkpt lat="51.959612" lon="8.887958">
        <ele>165.346627</ele>
        <time>2025-10-05T16:48:59.988Z</time>
      </trkpt>
      <trkpt lat="51.959405" lon="8.887247">
        <ele>165.267937</ele>
        <time>2025-10-05T16:49:09.752Z</time>
      </trkpt>
      <trkpt lat="51.959064" lon="8.887393">
        <ele>165.210667</ele>
        <time>2025-10-05T16:49:17.104Z</time>
      </trkpt>
      <trkpt lat="51.958653" lon="8.887568">
        <ele>165.141664</ele>
        <time>2025-10-05T16:49:26.267Z</time>
      </trkpt>
      <trkpt lat="51.957814" lon="8.887929">
        <ele>164.814714</ele>
        <time>2025-10-05T16:49:45.158Z</time>
      </trkpt>
      <trkpt lat="51.957676" lon="8.887986">
        <ele>164.745930</ele>
        <time>2025-10-05T16:49:48.127Z</time>
      </trkpt>
      <trkpt lat="51.956003" lon="8.888689">
        <ele>163.236025</ele>
        <time>2025-10-05T16:50:21.549Z</time>
      </trkpt>
      <trkpt lat="51.955746" lon="8.888798">
        <ele>162.832660</ele>
        <time>2025-10-05T16:50:26.319Z</time>
      </trkpt>
      <trkpt lat="51.955656" lon="8.888873">
        <ele>162.679025</ele>
        <time>2025-10-05T16:50:28.138Z</time>
      </trkpt>
      <trkpt lat="51.955476" lon="8.888973">
        <ele>162.390119</ele>
        <time>2025-10-05T16:50:31.533Z</time>
      </trkpt>
      <trkpt lat="51.955285" lon="8.889024">
        <ele>162.096184</ele>
        <time>2025-10-05T16:50:34.996Z</time>
      </trkpt>
      <trkpt lat="51.954654" lon="8.889053">
        <ele>160.933341</ele>
        <time>2025-10-05T16:50:46.194Z</time>
      </trkpt>
      <trkpt lat="51.954153" lon="8.889228">
        <ele>159.710120</ele>
        <time>2025-10-05T16:50:55.303Z</time>
      </trkpt>
      <trkpt lat="51.953865" lon="8.889251">
        <ele>159.021867</ele>
        <time>2025-10-05T16:51:00.349Z</time>
      </trkpt>
      <trkpt lat="51.953325" lon="8.889160">
        <ele>157.726019</ele>
        <time>2025-10-05T16:51:09.313Z</time>
      </trkpt>
      <trkpt lat="51.953258" lon="8.889040">
        <ele>157.487826</ele>
        <time>2025-10-05T16:51:10.941Z</time>
      </trkpt>
      <trkpt lat="51.953143" lon="8.889015">
        <ele>157.210882</ele>
        <time>2025-10-05T16:51:12.856Z</time>
      </trkpt>
      <trkpt lat="51.952762" lon="8.889052">
        <ele>156.383621</ele>
        <time>2025-10-05T16:51:19.080Z</time>
      </trkpt>
      <trkpt lat="51.952702" lon="8.889045">
        <ele>156.253375</ele>
        <time>2025-10-05T16:51:20.067Z</time>
      </trkpt>
      <trkpt lat="51.952446" lon="8.888761">
        <ele>155.581917</ele>
        <time>2025-10-05T16:51:25.270Z</time>
      </trkpt>
      <trkpt lat="51.952385" lon="8.888870">
        <ele>155.385446</ele>
        <time>2025-10-05T16:51:27.421Z</time>
      </trkpt>
      <trkpt lat="51.952190" lon="8.889165">
        <ele>154.808187</ele>
        <time>2025-10-05T16:51:33.785Z</time>
      </trkpt>
      <trkpt lat="51.952141" lon="8.889065">
        <ele>154.637708</ele>
        <time>2025-10-05T16:51:35.178Z</time>
      </trkpt>
      <trkpt lat="51.952094" lon="8.888958">
        <ele>154.462370</ele>
        <time>2025-10-05T16:51:36.597Z</time>
      </trkpt>
      <trkpt lat="51.951907" lon="8.889116">
        <ele>154.005874</ele>
        <time>2025-10-05T16:51:41.671Z</time>
      </trkpt>
      <trkpt lat="51.951598" lon="8.889453">
        <ele>153.346535</ele>
        <time>2025-10-05T16:51:51.004Z</time>
      </trkpt>
      <trkpt lat="51.951527" lon="8.889484">
        <ele>153.404561</ele>
        <time>2025-10-05T16:51:52.525Z</time>
      </trkpt>
      <trkpt lat="51.951437" lon="8.889458">
        <ele>153.476705</ele>
        <time>2025-10-05T16:51:54.359Z</time>
      </trkpt>
      <trkpt lat="51.951387" lon="8.889515">
        <ele>153.524932</ele>
        <time>2025-10-05T16:51:55.669Z</time>
      </trkpt>
      <trkpt lat="51.951288" lon="8.889399">
        <ele>153.621305</ele>
        <time>2025-10-05T16:51:58.279Z</time>
      </trkpt>
      <trkpt lat="51.951198" lon="8.889344">
        <ele>153.697204</ele>
        <time>2025-10-05T16:52:00.333Z</time>
      </trkpt>
      <trkpt lat="51.950964" lon="8.889064">
        <ele>153.926665</ele>
        <time>2025-10-05T16:52:06.913Z</time>
      </trkpt>
      <trkpt lat="51.950660" lon="8.888863">
        <ele>154.185737</ele>
        <time>2025-10-05T16:52:14.449Z</time>
      </trkpt>
      <trkpt lat="51.949897" lon="8.888646">
        <ele>154.893646</ele>
        <time>2025-10-05T16:52:33.067Z</time>
      </trkpt>
      <trkpt lat="51.949503" lon="8.888555">
        <ele>155.639349</ele>
        <time>2025-10-05T16:52:43.065Z</time>
      </trkpt>
      <trkpt lat="51.949064" lon="8.888435">
        <ele>156.473520</ele>
        <time>2025-10-05T16:52:53.953Z</time>
      </trkpt>
      <trkpt lat="51.948857" lon="8.888383">
        <ele>156.866009</ele>
        <time>2025-10-05T16:52:58.969Z</time>
      </trkpt>
      <trkpt lat="51.948730" lon="8.888351">
        <ele>157.106828</ele>
        <time>2025-10-05T16:53:02.011Z</time>
      </trkpt>
      <trkpt lat="51.948209" lon="8.888218">
        <ele>158.095065</ele>
        <time>2025-10-05T16:53:14.365Z</time>
      </trkpt>
      <trkpt lat="51.948074" lon="8.888182">
        <ele>158.070560</ele>
        <time>2025-10-05T16:53:17.472Z</time>
      </trkpt>
      <trkpt lat="51.947722" lon="8.888106">
        <ele>158.001358</ele>
        <time>2025-10-05T16:53:24.743Z</time>
      </trkpt>
      <trkpt lat="51.947689" lon="8.888060">
        <ele>157.992880</ele>
        <time>2025-10-05T16:53:25.615Z</time>
      </trkpt>
      <trkpt lat="51.947564" lon="8.888017">
        <ele>157.967979</ele>
        <time>2025-10-05T16:53:28.144Z</time>
      </trkpt>
      <trkpt lat="51.947513" lon="8.887883">
        <ele>157.949061</ele>
        <time>2025-10-05T16:53:30.094Z</time>
      </trkpt>
      <trkpt lat="51.947443" lon="8.887856">
        <ele>157.935040</ele>
        <time>2025-10-05T16:53:31.541Z</time>
      </trkpt>
      <trkpt lat="51.947356" lon="8.887951">
        <ele>157.914603</ele>
        <time>2025-10-05T16:53:33.675Z</time>
      </trkpt>
      <trkpt lat="51.947207" lon="8.887939">
        <ele>157.885530</ele>
        <time>2025-10-05T16:53:36.743Z</time>
      </trkpt>
      <trkpt lat="51.947160" lon="8.887971">
        <ele>157.875597</ele>
        <time>2025-10-05T16:53:37.797Z</time>
      </trkpt>
      <trkpt lat="51.947008" lon="8.887893">
        <ele>157.844529</ele>
        <time>2025-10-05T16:53:41.093Z</time>
      </trkpt>
      <trkpt lat="51.946841" lon="8.887849">
        <ele>157.811558</ele>
        <time>2025-10-05T16:53:44.558Z</time>
      </trkpt>
      <trkpt lat="51.946516" lon="8.887757">
        <ele>157.747266</ele>
        <time>2025-10-05T16:53:51.244Z</time>
      </trkpt>
      <trkpt lat="51.946521" lon="8.887693">
        <ele>157.702318</ele>
        <time>2025-10-05T16:53:52.045Z</time>
      </trkpt>
      <trkpt lat="51.946572" lon="8.887239">
        <ele>157.351730</ele>
        <time>2025-10-05T16:53:59.686Z</time>
      </trkpt>
      <trkpt lat="51.946609" lon="8.887103">
        <ele>157.238794</ele>
        <time>2025-10-05T16:54:02.130Z</time>
      </trkpt>
      <trkpt lat="51.946626" lon="8.886978">
        <ele>157.141546</ele>
        <time>2025-10-05T16:54:04.216Z</time>
      </trkpt>
      <trkpt lat="51.946767" lon="8.886221">
        <ele>156.540767</ele>
        <time>2025-10-05T16:54:13.699Z</time>
      </trkpt>
      <trkpt lat="51.946713" lon="8.886148">
        <ele>156.454134</ele>
        <time>2025-10-05T16:54:15.046Z</time>
      </trkpt>
      <trkpt lat="51.946479" lon="8.886071">
        <ele>156.159857</ele>
        <time>2025-10-05T16:54:19.420Z</time>
      </trkpt>
      <trkpt lat="51.946330" lon="8.886022">
        <ele>155.972479</ele>
        <time>2025-10-05T16:54:22.125Z</time>
      </trkpt>
      <trkpt lat="51.945992" lon="8.885912">
        <ele>155.547596</ele>
        <time>2025-10-05T16:54:28.136Z</time>
      </trkpt>
      <trkpt lat="51.945861" lon="8.885873">
        <ele>155.323388</ele>
        <time>2025-10-05T16:54:30.461Z</time>
      </trkpt>
      <trkpt lat="51.945711" lon="8.885824">
        <ele>155.057357</ele>
        <time>2025-10-05T16:54:33.152Z</time>
      </trkpt>
      <trkpt lat="51.945098" lon="8.885625">
        <ele>153.970438</ele>
        <time>2025-10-05T16:54:44.103Z</time>
      </trkpt>
      <trkpt lat="51.944509" lon="8.885365">
        <ele>152.909143</ele>
        <time>2025-10-05T16:54:54.889Z</time>
      </trkpt>
      <trkpt lat="51.944325" lon="8.885236">
        <ele>152.560636</ele>
        <time>2025-10-05T16:54:58.562Z</time>
      </trkpt>
      <trkpt lat="51.944216" lon="8.885161">
        <ele>152.395678</ele>
        <time>2025-10-05T16:55:00.849Z</time>
      </trkpt>
      <trkpt lat="51.944188" lon="8.885137">
        <ele>152.387828</ele>
        <time>2025-10-05T16:55:01.454Z</time>
      </trkpt>
      <trkpt lat="51.944060" lon="8.885013">
        <ele>152.350872</ele>
        <time>2025-10-05T16:55:04.415Z</time>
      </trkpt>
      <trkpt lat="51.943643" lon="8.884656">
        <ele>152.233994</ele>
        <time>2025-10-05T16:55:14.167Z</time>
      </trkpt>
      <trkpt lat="51.942422" lon="8.883930">
        <ele>151.671549</ele>
        <time>2025-10-05T16:55:42.103Z</time>
      </trkpt>
      <trkpt lat="51.942320" lon="8.883870">
        <ele>151.501119</ele>
        <time>2025-10-05T16:55:45.068Z</time>
      </trkpt>
      <trkpt lat="51.942228" lon="8.883810">
        <ele>151.345364</ele>
        <time>2025-10-05T16:55:47.751Z</time>
      </trkpt>
      <trkpt lat="51.941283" lon="8.883247">
        <ele>149.764016</ele>
        <time>2025-10-05T16:56:06.800Z</time>
      </trkpt>
      <trkpt lat="51.940819" lon="8.882971">
        <ele>148.661054</ele>
        <time>2025-10-05T16:56:14.835Z</time>
      </trkpt>
      <trkpt lat="51.940624" lon="8.882691">
        <ele>147.321548</ele>
        <time>2025-10-05T16:56:18.905Z</time>
      </trkpt>
      <trkpt lat="51.940287" lon="8.882240">
        <ele>145.074386</ele>
        <time>2025-10-05T16:56:25.450Z</time>
      </trkpt>
      <trkpt lat="51.940028" lon="8.881851">
        <ele>143.258839</ele>
        <time>2025-10-05T16:56:30.591Z</time>
      </trkpt>
      <trkpt lat="51.939836" lon="8.881588">
        <ele>141.966256</ele>
        <time>2025-10-05T16:56:34.230Z</time>
      </trkpt>
      <trkpt lat="51.939351" lon="8.880869">
        <ele>139.165604</ele>
        <time>2025-10-05T16:56:43.914Z</time>
      </trkpt>
      <trkpt lat="51.939307" lon="8.880803">
        <ele>138.995340</ele>
        <time>2025-10-05T16:56:44.821Z</time>
      </trkpt>
      <trkpt lat="51.939450" lon="8.880483">
        <ele>138.303101</ele>
        <time>2025-10-05T16:56:48.738Z</time>
      </trkpt>
      <trkpt lat="51.939573" lon="8.880031">
        <ele>137.437731</ele>
        <time>2025-10-05T16:56:53.813Z</time>
      </trkpt>
      <trkpt lat="51.939626" lon="8.879709">
        <ele>136.853995</ele>
        <time>2025-10-05T16:56:57.422Z</time>
      </trkpt>
      <trkpt lat="51.939660" lon="8.879478">
        <ele>136.438030</ele>
        <time>2025-10-05T16:56:59.978Z</time>
      </trkpt>
      <trkpt lat="51.939695" lon="8.879274">
        <ele>136.067147</ele>
        <time>2025-10-05T16:57:02.347Z</time>
      </trkpt>
      <trkpt lat="51.939730" lon="8.879081">
        <ele>135.714789</ele>
        <time>2025-10-05T16:57:04.736Z</time>
      </trkpt>
      <trkpt lat="51.939241" lon="8.878919">
        <ele>134.912854</ele>
        <time>2025-10-05T16:57:15.440Z</time>
      </trkpt>
      <trkpt lat="51.938684" lon="8.878739">
        <ele>135.400768</ele>
        <time>2025-10-05T16:57:28.220Z</time>
      </trkpt>
      <trkpt lat="51.938401" lon="8.878646">
        <ele>135.648828</ele>
        <time>2025-10-05T16:57:34.634Z</time>
      </trkpt>
      <trkpt lat="51.938212" lon="8.878584">
        <ele>135.814483</ele>
        <time>2025-10-05T16:57:38.966Z</time>
      </trkpt>
      <trkpt lat="51.938053" lon="8.878532">
        <ele>135.953826</ele>
        <time>2025-10-05T16:57:42.676Z</time>
      </trkpt>
      <trkpt lat="51.937599" lon="8.878384">
        <ele>136.335388</ele>
        <time>2025-10-05T16:57:53.383Z</time>
      </trkpt>
      <trkpt lat="51.937520" lon="8.878357">
        <ele>136.373960</ele>
        <time>2025-10-05T16:57:55.272Z</time>
      </trkpt>
      <trkpt lat="51.937452" lon="8.878559">
        <ele>136.441752</ele>
        <time>2025-10-05T16:57:58.519Z</time>
      </trkpt>
      <trkpt lat="51.937402" lon="8.878498">
        <ele>136.471643</ele>
        <time>2025-10-05T16:58:00.270Z</time>
      </trkpt>
      <trkpt lat="51.937355" lon="8.878438">
        <ele>136.500218</ele>
        <time>2025-10-05T16:58:01.947Z</time>
      </trkpt>
      <trkpt lat="51.937078" lon="8.877265">
        <ele>136.870207</ele>
        <time>2025-10-05T16:58:23.223Z</time>
      </trkpt>
      <trkpt lat="51.937050" lon="8.877155">
        <ele>136.905261</ele>
        <time>2025-10-05T16:58:25.226Z</time>
      </trkpt>
      <trkpt lat="51.937021" lon="8.877040">
        <ele>136.941859</ele>
        <time>2025-10-05T16:58:27.355Z</time>
      </trkpt>
      <trkpt lat="51.936955" lon="8.876774">
        <ele>137.026317</ele>
        <time>2025-10-05T16:58:32.304Z</time>
      </trkpt>
      <trkpt lat="51.936884" lon="8.876489">
        <ele>137.116860</ele>
        <time>2025-10-05T16:58:37.579Z</time>
      </trkpt>
      <trkpt lat="51.936861" lon="8.876399">
        <ele>137.145557</ele>
        <time>2025-10-05T16:58:39.260Z</time>
      </trkpt>
      <trkpt lat="51.936817" lon="8.876228">
        <ele>137.190318</ele>
        <time>2025-10-05T16:58:42.420Z</time>
      </trkpt>
      <trkpt lat="51.936746" lon="8.876004">
        <ele>137.236267</ele>
        <time>2025-10-05T16:58:46.702Z</time>
      </trkpt>
      <trkpt lat="51.936613" lon="8.875904">
        <ele>137.279646</ele>
        <time>2025-10-05T16:58:50.710Z</time>
      </trkpt>
      <trkpt lat="51.936539" lon="8.875848">
        <ele>137.303809</ele>
        <time>2025-10-05T16:58:52.975Z</time>
      </trkpt>
      <trkpt lat="51.936231" lon="8.875741">
        <ele>137.397014</ele>
        <time>2025-10-05T16:59:01.551Z</time>
      </trkpt>
      <trkpt lat="51.935952" lon="8.875703">
        <ele>137.479862</ele>
        <time>2025-10-05T16:59:09.296Z</time>
      </trkpt>
      <trkpt lat="51.935855" lon="8.875632">
        <ele>137.511352</ele>
        <time>2025-10-05T16:59:12.280Z</time>
      </trkpt>
      <trkpt lat="51.935888" lon="8.875506">
        <ele>137.536328</ele>
        <time>2025-10-05T16:59:14.637Z</time>
      </trkpt>
      <trkpt lat="51.935907" lon="8.875417">
        <ele>137.553511</ele>
        <time>2025-10-05T16:59:16.258Z</time>
      </trkpt>
      <trkpt lat="51.935063" lon="8.875282">
        <ele>137.882679</ele>
        <time>2025-10-05T16:59:39.879Z</time>
      </trkpt>
      <trkpt lat="51.934947" lon="8.875285">
        <ele>137.944435</ele>
        <time>2025-10-05T16:59:43.138Z</time>
      </trkpt>
      <trkpt lat="51.934734" lon="8.875323">
        <ele>138.058502</ele>
        <time>2025-10-05T16:59:49.100Z</time>
      </trkpt>
      <trkpt lat="51.934412" lon="8.875402">
        <ele>138.231857</ele>
        <time>2025-10-05T16:59:58.210Z</time>
      </trkpt>
      <trkpt lat="51.934201" lon="8.875525">
        <ele>138.351209</ele>
        <time>2025-10-05T17:00:04.438Z</time>
      </trkpt>
      <trkpt lat="51.934002" lon="8.875718">
        <ele>138.474634</ele>
        <time>2025-10-05T17:00:10.899Z</time>
      </trkpt>
      <trkpt lat="51.933836" lon="8.875956">
        <ele>138.592575</ele>
        <time>2025-10-05T17:00:17.063Z</time>
      </trkpt>
      <trkpt lat="51.933586" lon="8.876425">
        <ele>138.706410</ele>
        <time>2025-10-05T17:00:27.721Z</time>
      </trkpt>
      <trkpt lat="51.933559" lon="8.876487">
        <ele>138.714409</ele>
        <time>2025-10-05T17:00:29.031Z</time>
      </trkpt>
      <trkpt lat="51.933570" lon="8.876595">
        <ele>138.725945</ele>
        <time>2025-10-05T17:00:30.904Z</time>
      </trkpt>
      <trkpt lat="51.933561" lon="8.876615">
        <ele>138.728555</ele>
        <time>2025-10-05T17:00:31.341Z</time>
      </trkpt>
      <trkpt lat="51.933555" lon="8.876630">
        <ele>138.730439</ele>
        <time>2025-10-05T17:00:31.632Z</time>
      </trkpt>
      <trkpt lat="51.933550" lon="8.876641">
        <ele>138.731879</ele>
        <time>2025-10-05T17:00:31.872Z</time>
      </trkpt>
      <trkpt lat="51.933270" lon="8.877192">
        <ele>138.807129</ele>
        <time>2025-10-05T17:00:44.072Z</time>
      </trkpt>
      <trkpt lat="51.933185" lon="8.877312">
        <ele>138.826391</ele>
        <time>2025-10-05T17:00:47.168Z</time>
      </trkpt>
      <trkpt lat="51.933106" lon="8.877352">
        <ele>138.840537</ele>
        <time>2025-10-05T17:00:49.448Z</time>
      </trkpt>
      <trkpt lat="51.933048" lon="8.877310">
        <ele>138.851394</ele>
        <time>2025-10-05T17:00:50.925Z</time>
      </trkpt>
      <trkpt lat="51.933084" lon="8.877175">
        <ele>138.866895</ele>
        <time>2025-10-05T17:00:52.808Z</time>
      </trkpt>
      <trkpt lat="51.933022" lon="8.877132">
        <ele>138.878421</ele>
        <time>2025-10-05T17:00:54.229Z</time>
      </trkpt>
      <trkpt lat="51.932820" lon="8.876972">
        <ele>138.916846</ele>
        <time>2025-10-05T17:00:58.933Z</time>
      </trkpt>
      <trkpt lat="51.932779" lon="8.876935">
        <ele>138.924866</ele>
        <time>2025-10-05T17:00:59.932Z</time>
      </trkpt>
      <trkpt lat="51.932731" lon="8.876892">
        <ele>138.934238</ele>
        <time>2025-10-05T17:01:01.106Z</time>
      </trkpt>
      <trkpt lat="51.932527" lon="8.876711">
        <ele>138.980524</ele>
        <time>2025-10-05T17:01:06.052Z</time>
      </trkpt>
      <trkpt lat="51.932178" lon="8.876395">
        <ele>139.224788</ele>
        <time>2025-10-05T17:01:14.557Z</time>
      </trkpt>
      <trkpt lat="51.931127" lon="8.875466">
        <ele>139.956265</ele>
        <time>2025-10-05T17:01:40.879Z</time>
      </trkpt>
      <trkpt lat="51.931090" lon="8.875576">
        <ele>140.003481</ele>
        <time>2025-10-05T17:01:42.625Z</time>
      </trkpt>
      <trkpt lat="51.930406" lon="8.874975">
        <ele>141.269012</ele>
        <time>2025-10-05T17:02:01.969Z</time>
      </trkpt>
      <trkpt lat="51.930119" lon="8.874371">
        <ele>142.112430</ele>
        <time>2025-10-05T17:02:13.831Z</time>
      </trkpt>
      <trkpt lat="51.930100" lon="8.874276">
        <ele>142.222897</ele>
        <time>2025-10-05T17:02:15.382Z</time>
      </trkpt>
      <trkpt lat="51.930063" lon="8.874196">
        <ele>142.333508</ele>
        <time>2025-10-05T17:02:16.937Z</time>
      </trkpt>
      <trkpt lat="51.929949" lon="8.873954">
        <ele>142.670353</ele>
        <time>2025-10-05T17:02:21.665Z</time>
      </trkpt>
      <trkpt lat="51.929858" lon="8.873752">
        <ele>142.947059</ele>
        <time>2025-10-05T17:02:25.541Z</time>
      </trkpt>
      <trkpt lat="51.929755" lon="8.873553">
        <ele>143.234435</ele>
        <time>2025-10-05T17:02:29.567Z</time>
      </trkpt>
      <trkpt lat="51.929074" lon="8.872704">
        <ele>144.111303</ele>
        <time>2025-10-05T17:02:49.845Z</time>
      </trkpt>
      <trkpt lat="51.929025" lon="8.872647">
        <ele>144.170890</ele>
        <time>2025-10-05T17:02:51.545Z</time>
      </trkpt>
      <trkpt lat="51.928593" lon="8.872127">
        <ele>144.702504</ele>
        <time>2025-10-05T17:03:06.492Z</time>
      </trkpt>
      <trkpt lat="51.926979" lon="8.870185">
        <ele>146.099975</ele>
        <time>2025-10-05T17:04:02.487Z</time>
      </trkpt>
      <trkpt lat="51.927012" lon="8.870113">
        <ele>146.134712</ele>
        <time>2025-10-05T17:04:04.044Z</time>
      </trkpt>
      <trkpt lat="51.927213" lon="8.869685">
        <ele>146.575942</ele>
        <time>2025-10-05T17:04:11.658Z</time>
      </trkpt>
      <trkpt lat="51.927242" lon="8.869587">
        <ele>146.688375</ele>
        <time>2025-10-05T17:04:13.188Z</time>
      </trkpt>
      <trkpt lat="51.927247" lon="8.869420">
        <ele>146.861315</ele>
        <time>2025-10-05T17:04:15.524Z</time>
      </trkpt>
      <trkpt lat="51.927050" lon="8.868766">
        <ele>147.614170</ele>
        <time>2025-10-05T17:04:25.885Z</time>
      </trkpt>
      <trkpt lat="51.927006" lon="8.868608">
        <ele>147.793489</ele>
        <time>2025-10-05T17:04:28.391Z</time>
      </trkpt>
      <trkpt lat="51.926797" lon="8.868166">
        <ele>148.369607</ele>
        <time>2025-10-05T17:04:36.472Z</time>
      </trkpt>
      <trkpt lat="51.926653" lon="8.867959">
        <ele>148.692382</ele>
        <time>2025-10-05T17:04:40.943Z</time>
      </trkpt>
      <trkpt lat="51.926359" lon="8.867493">
        <ele>149.470064</ele>
        <time>2025-10-05T17:04:50.401Z</time>
      </trkpt>
      <trkpt lat="51.926096" lon="8.867204">
        <ele>150.293866</ele>
        <time>2025-10-05T17:04:57.812Z</time>
      </trkpt>
      <trkpt lat="51.926053" lon="8.867166">
        <ele>150.420849</ele>
        <time>2025-10-05T17:04:58.957Z</time>
      </trkpt>
      <trkpt lat="51.925294" lon="8.866253">
        <ele>152.871361</ele>
        <time>2025-10-05T17:05:22.012Z</time>
      </trkpt>
      <trkpt lat="51.925076" lon="8.866036">
        <ele>153.534655</ele>
        <time>2025-10-05T17:05:28.288Z</time>
      </trkpt>
      <trkpt lat="51.924892" lon="8.865899">
        <ele>153.902004</ele>
        <time>2025-10-05T17:05:33.105Z</time>
      </trkpt>
      <trkpt lat="51.924755" lon="8.865722">
        <ele>153.947286</ele>
        <time>2025-10-05T17:05:37.209Z</time>
      </trkpt>
      <trkpt lat="51.924691" lon="8.865433">
        <ele>153.996237</ele>
        <time>2025-10-05T17:05:41.620Z</time>
      </trkpt>
      <trkpt lat="51.924543" lon="8.864992">
        <ele>154.076276</ele>
        <time>2025-10-05T17:05:48.657Z</time>
      </trkpt>
      <trkpt lat="51.924307" lon="8.864797">
        <ele>154.144746</ele>
        <time>2025-10-05T17:05:54.611Z</time>
      </trkpt>
      <trkpt lat="51.924211" lon="8.864635">
        <ele>154.180562</ele>
        <time>2025-10-05T17:05:57.688Z</time>
      </trkpt>
      <trkpt lat="51.924145" lon="8.864420">
        <ele>154.218848</ele>
        <time>2025-10-05T17:06:00.920Z</time>
      </trkpt>
      <trkpt lat="51.924016" lon="8.863590">
        <ele>154.295199</ele>
        <time>2025-10-05T17:06:10.235Z</time>
      </trkpt>
      <trkpt lat="51.923971" lon="8.863304">
        <ele>153.855150</ele>
        <time>2025-10-05T17:06:13.081Z</time>
      </trkpt>
      <trkpt lat="51.923871" lon="8.863137">
        <ele>153.508118</ele>
        <time>2025-10-05T17:06:15.318Z</time>
      </trkpt>
      <trkpt lat="51.923860" lon="8.863126">
        <ele>153.476875</ele>
        <time>2025-10-05T17:06:15.529Z</time>
      </trkpt>
      <trkpt lat="51.923736" lon="8.863008">
        <ele>153.129298</ele>
        <time>2025-10-05T17:06:17.833Z</time>
      </trkpt>
      <trkpt lat="51.923580" lon="8.862941">
        <ele>152.739166</ele>
        <time>2025-10-05T17:06:20.471Z</time>
      </trkpt>
      <trkpt lat="51.923366" lon="8.862888">
        <ele>152.215826</ele>
        <time>2025-10-05T17:06:24.036Z</time>
      </trkpt>
      <trkpt lat="51.922869" lon="8.862717">
        <ele>150.987587</ele>
        <time>2025-10-05T17:06:32.522Z</time>
      </trkpt>
      <trkpt lat="51.922821" lon="8.862652">
        <ele>150.836403</ele>
        <time>2025-10-05T17:06:33.575Z</time>
      </trkpt>
      <trkpt lat="51.922753" lon="8.862457">
        <ele>150.502417</ele>
        <time>2025-10-05T17:06:35.924Z</time>
      </trkpt>
      <trkpt lat="51.922667" lon="8.862252">
        <ele>150.132771</ele>
        <time>2025-10-05T17:06:38.599Z</time>
      </trkpt>
      <trkpt lat="51.922539" lon="8.862093">
        <ele>150.086350</ele>
        <time>2025-10-05T17:06:41.630Z</time>
      </trkpt>
      <trkpt lat="51.921815" lon="8.861417">
        <ele>150.751173</ele>
        <time>2025-10-05T17:07:00.073Z</time>
      </trkpt>
      <trkpt lat="51.921421" lon="8.861085">
        <ele>151.104512</ele>
        <time>2025-10-05T17:07:10.230Z</time>
      </trkpt>
      <trkpt lat="51.921026" lon="8.860919">
        <ele>151.429223</ele>
        <time>2025-10-05T17:07:19.753Z</time>
      </trkpt>
      <trkpt lat="51.920935" lon="8.860898">
        <ele>151.556086</ele>
        <time>2025-10-05T17:07:21.908Z</time>
      </trkpt>
      <trkpt lat="51.920971" lon="8.860440">
        <ele>151.957149</ele>
        <time>2025-10-05T17:07:28.684Z</time>
      </trkpt>
      <trkpt lat="51.920979" lon="8.860321">
        <ele>152.061131</ele>
        <time>2025-10-05T17:07:30.480Z</time>
      </trkpt>
      <trkpt lat="51.920998" lon="8.860059">
        <ele>152.290287</ele>
        <time>2025-10-05T17:07:34.400Z</time>
      </trkpt>
      <trkpt lat="51.921009" lon="8.859919">
        <ele>152.412882</ele>
        <time>2025-10-05T17:07:36.482Z</time>
      </trkpt>
      <trkpt lat="51.921030" lon="8.859639">
        <ele>152.657897</ele>
        <time>2025-10-05T17:07:40.554Z</time>
      </trkpt>
      <trkpt lat="51.920958" lon="8.859625">
        <ele>152.760032</ele>
        <time>2025-10-05T17:07:42.219Z</time>
      </trkpt>
      <trkpt lat="51.920867" lon="8.859610">
        <ele>152.888861</ele>
        <time>2025-10-05T17:07:44.322Z</time>
      </trkpt>
      <trkpt lat="51.920271" lon="8.859616">
        <ele>153.728311</ele>
        <time>2025-10-05T17:07:57.703Z</time>
      </trkpt>
      <trkpt lat="51.920187" lon="8.859696">
        <ele>153.865520</ele>
        <time>2025-10-05T17:07:59.788Z</time>
      </trkpt>
      <trkpt lat="51.920074" lon="8.860091">
        <ele>153.781550</ele>
        <time>2025-10-05T17:08:05.293Z</time>
      </trkpt>
      <trkpt lat="51.920010" lon="8.860313">
        <ele>153.640331</ele>
        <time>2025-10-05T17:08:08.344Z</time>
      </trkpt>
      <trkpt lat="51.919885" lon="8.860581">
        <ele>153.446700</ele>
        <time>2025-10-05T17:08:12.490Z</time>
      </trkpt>
      <trkpt lat="51.919611" lon="8.860976">
        <ele>153.104125</ele>
        <time>2025-10-05T17:08:19.130Z</time>
      </trkpt>
      <trkpt lat="51.919071" lon="8.861313">
        <ele>152.563489</ele>
        <time>2025-10-05T17:08:29.441Z</time>
      </trkpt>
      <trkpt lat="51.918855" lon="8.861455">
        <ele>152.345709</ele>
        <time>2025-10-05T17:08:33.973Z</time>
      </trkpt>
      <trkpt lat="51.918342" lon="8.861961">
        <ele>152.223802</ele>
        <time>2025-10-05T17:08:46.203Z</time>
      </trkpt>
      <trkpt lat="51.918107" lon="8.862127">
        <ele>152.194374</ele>
        <time>2025-10-05T17:08:51.515Z</time>
      </trkpt>
      <trkpt lat="51.917278" lon="8.862497">
        <ele>152.095661</ele>
        <time>2025-10-05T17:09:10.146Z</time>
      </trkpt>
      <trkpt lat="51.917087" lon="8.862612">
        <ele>152.108790</ele>
        <time>2025-10-05T17:09:14.505Z</time>
      </trkpt>
      <trkpt lat="51.916988" lon="8.862710">
        <ele>152.169638</ele>
        <time>2025-10-05T17:09:16.972Z</time>
      </trkpt>
      <trkpt lat="51.916655" lon="8.863243">
        <ele>152.415106</ele>
        <time>2025-10-05T17:09:27.006Z</time>
      </trkpt>
      <trkpt lat="51.916621" lon="8.863294">
        <ele>152.439404</ele>
        <time>2025-10-05T17:09:28.000Z</time>
      </trkpt>
      <trkpt lat="51.916213" lon="8.863973">
        <ele>152.746118</ele>
        <time>2025-10-05T17:09:40.780Z</time>
      </trkpt>
      <trkpt lat="51.914970" lon="8.866021">
        <ele>154.365042</ele>
        <time>2025-10-05T17:10:20.637Z</time>
      </trkpt>
      <trkpt lat="51.914742" lon="8.866369">
        <ele>154.702582</ele>
        <time>2025-10-05T17:10:27.847Z</time>
      </trkpt>
      <trkpt lat="51.914391" lon="8.866741">
        <ele>155.241029</ele>
        <time>2025-10-05T17:10:37.363Z</time>
      </trkpt>
      <trkpt lat="51.914262" lon="8.866863">
        <ele>155.473910</ele>
        <time>2025-10-05T17:10:40.700Z</time>
      </trkpt>
      <trkpt lat="51.914197" lon="8.866941">
        <ele>155.600013</ele>
        <time>2025-10-05T17:10:42.524Z</time>
      </trkpt>
      <trkpt lat="51.913959" lon="8.867315">
        <ele>156.116871</ele>
        <time>2025-10-05T17:10:50.083Z</time>
      </trkpt>
      <trkpt lat="51.913669" lon="8.867844">
        <ele>156.797604</ele>
        <time>2025-10-05T17:11:00.248Z</time>
      </trkpt>
      <trkpt lat="51.913466" lon="8.868149">
        <ele>157.229192</ele>
        <time>2025-10-05T17:11:06.701Z</time>
      </trkpt>
      <trkpt lat="51.913063" lon="8.868734">
        <ele>157.950047</ele>
        <time>2025-10-05T17:11:19.202Z</time>
      </trkpt>
      <trkpt lat="51.912421" lon="8.869840">
        <ele>158.827051</ele>
        <time>2025-10-05T17:11:40.806Z</time>
      </trkpt>
      <trkpt lat="51.912281" lon="8.870003">
        <ele>158.988412</ele>
        <time>2025-10-05T17:11:44.612Z</time>
      </trkpt>
      <trkpt lat="51.911444" lon="8.870779">
        <ele>159.153135</ele>
        <time>2025-10-05T17:12:04.162Z</time>
      </trkpt>
      <trkpt lat="51.911088" lon="8.871287">
        <ele>158.855012</ele>
        <time>2025-10-05T17:12:13.199Z</time>
      </trkpt>
      <trkpt lat="51.910836" lon="8.871576">
        <ele>158.660976</ele>
        <time>2025-10-05T17:12:19.128Z</time>
      </trkpt>
      <trkpt lat="51.910717" lon="8.871794">
        <ele>158.548100</ele>
        <time>2025-10-05T17:12:22.637Z</time>
      </trkpt>
      <trkpt lat="51.910629" lon="8.872043">
        <ele>158.436824</ele>
        <time>2025-10-05T17:12:26.159Z</time>
      </trkpt>
      <trkpt lat="51.910598" lon="8.872015">
        <ele>158.414517</ele>
        <time>2025-10-05T17:12:26.900Z</time>
      </trkpt>
      <trkpt lat="51.910434" lon="8.872593">
        <ele>158.473101</ele>
        <time>2025-10-05T17:12:54.168Z</time>
      </trkpt>
      <trkpt lat="51.910368" lon="8.872824">
        <ele>158.573748</ele>
        <time>2025-10-05T17:13:05.083Z</time>
      </trkpt>
      <trkpt lat="51.910335" lon="8.872863">
        <ele>158.599921</ele>
        <time>2025-10-05T17:13:07.926Z</time>
      </trkpt>
      <trkpt lat="51.910230" lon="8.872844">
        <ele>158.667631</ele>
        <time>2025-10-05T17:13:15.301Z</time>
      </trkpt>
      <trkpt lat="51.910229" lon="8.872890">
        <ele>158.685829</ele>
        <time>2025-10-05T17:13:16.081Z</time>
      </trkpt>
      <trkpt lat="51.909626" lon="8.872854">
        <ele>159.072542</ele>
        <time>2025-10-05T17:13:29.670Z</time>
      </trkpt>
      <trkpt lat="51.909586" lon="8.872849">
        <ele>159.098254</ele>
        <time>2025-10-05T17:13:30.580Z</time>
      </trkpt>
      <trkpt lat="51.909513" lon="8.873442">
        <ele>159.337326</ele>
        <time>2025-10-05T17:13:39.052Z</time>
      </trkpt>
      <trkpt lat="51.909309" lon="8.874339">
        <ele>159.691181</ele>
        <time>2025-10-05T17:13:52.339Z</time>
      </trkpt>
      <trkpt lat="51.909072" lon="8.874966">
        <ele>159.953124</ele>
        <time>2025-10-05T17:14:02.392Z</time>
      </trkpt>
      <trkpt lat="51.908887" lon="8.875299">
        <ele>160.112758</ele>
        <time>2025-10-05T17:14:08.439Z</time>
      </trkpt>
      <trkpt lat="51.908776" lon="8.875296">
        <ele>160.176862</ele>
        <time>2025-10-05T17:14:10.862Z</time>
      </trkpt>
      <trkpt lat="51.908559" lon="8.875343">
        <ele>160.303278</ele>
        <time>2025-10-05T17:14:15.508Z</time>
      </trkpt>
      <trkpt lat="51.908132" lon="8.875435">
        <ele>160.599564</ele>
        <time>2025-10-05T17:14:24.483Z</time>
      </trkpt>
      <trkpt lat="51.908023" lon="8.875458">
        <ele>160.735382</ele>
        <time>2025-10-05T17:14:26.760Z</time>
      </trkpt>
      <trkpt lat="51.907738" lon="8.877346">
        <ele>162.217027</ele>
        <time>2025-10-05T17:15:00.309Z</time>
      </trkpt>
      <trkpt lat="51.907780" lon="8.877498">
        <ele>162.343985</ele>
        <time>2025-10-05T17:15:03.228Z</time>
      </trkpt>
      <trkpt lat="51.907724" lon="8.877585">
        <ele>162.439829</ele>
        <time>2025-10-05T17:15:05.107Z</time>
      </trkpt>
      <trkpt lat="51.907655" lon="8.877645">
        <ele>162.536580</ele>
        <time>2025-10-05T17:15:06.978Z</time>
      </trkpt>
      <trkpt lat="51.907607" lon="8.877661">
        <ele>162.597130</ele>
        <time>2025-10-05T17:15:08.156Z</time>
      </trkpt>
      <trkpt lat="51.907599" lon="8.877757">
        <ele>162.670974</ele>
        <time>2025-10-05T17:15:09.856Z</time>
      </trkpt>
      <trkpt lat="51.907581" lon="8.877843">
        <ele>162.749338</ele>
        <time>2025-10-05T17:15:11.467Z</time>
      </trkpt>
      <trkpt lat="51.907507" lon="8.877965">
        <ele>163.038888</ele>
        <time>2025-10-05T17:15:14.490Z</time>
      </trkpt>
      <trkpt lat="51.907445" lon="8.878039">
        <ele>163.250102</ele>
        <time>2025-10-05T17:15:16.732Z</time>
      </trkpt>
      <trkpt lat="51.907345" lon="8.878138">
        <ele>163.571544</ele>
        <time>2025-10-05T17:15:19.587Z</time>
      </trkpt>
      <trkpt lat="51.907309" lon="8.878174">
        <ele>163.687582</ele>
        <time>2025-10-05T17:15:20.628Z</time>
      </trkpt>
      <trkpt lat="51.907067" lon="8.878310">
        <ele>164.390212</ele>
        <time>2025-10-05T17:15:26.959Z</time>
      </trkpt>
      <trkpt lat="51.905387" lon="8.878623">
        <ele>168.928908</ele>
        <time>2025-10-05T17:16:07.468Z</time>
      </trkpt>
      <trkpt lat="51.904477" lon="8.878786">
        <ele>171.255591</ele>
        <time>2025-10-05T17:16:29.203Z</time>
      </trkpt>
      <trkpt lat="51.903983" lon="8.878760">
        <ele>172.513061</ele>
        <time>2025-10-05T17:16:40.960Z</time>
      </trkpt>
      <trkpt lat="51.903828" lon="8.878747">
        <ele>172.909501</ele>
        <time>2025-10-05T17:16:44.631Z</time>
      </trkpt>
      <trkpt lat="51.902716" lon="8.878648">
        <ele>175.754120</ele>
        <time>2025-10-05T17:17:11.659Z</time>
      </trkpt>
      <trkpt lat="51.902088" lon="8.878630">
        <ele>177.121547</ele>
        <time>2025-10-05T17:17:26.206Z</time>
      </trkpt>
      <trkpt lat="51.901910" lon="8.878694">
        <ele>177.377715</ele>
        <time>2025-10-05T17:17:30.431Z</time>
      </trkpt>
      <trkpt lat="51.901217" lon="8.879080">
        <ele>178.407267</ele>
        <time>2025-10-05T17:17:47.261Z</time>
      </trkpt>
      <trkpt lat="51.900677" lon="8.879375">
        <ele>179.207902</ele>
        <time>2025-10-05T17:17:59.797Z</time>
      </trkpt>
      <trkpt lat="51.900633" lon="8.879400">
        <ele>179.273411</ele>
        <time>2025-10-05T17:18:00.821Z</time>
      </trkpt>
      <trkpt lat="51.900542" lon="8.879451">
        <ele>179.423719</ele>
        <time>2025-10-05T17:18:03.523Z</time>
      </trkpt>
      <trkpt lat="51.900196" lon="8.879654">
        <ele>180.097073</ele>
        <time>2025-10-05T17:18:13.866Z</time>
      </trkpt>
      <trkpt lat="51.899780" lon="8.879897">
        <ele>180.906244</ele>
        <time>2025-10-05T17:18:26.385Z</time>
      </trkpt>
      <trkpt lat="51.899635" lon="8.879982">
        <ele>181.188403</ele>
        <time>2025-10-05T17:18:30.749Z</time>
      </trkpt>
      <trkpt lat="51.898473" lon="8.880661">
        <ele>183.442719</ele>
        <time>2025-10-05T17:19:05.587Z</time>
      </trkpt>
      <trkpt lat="51.898079" lon="8.880888">
        <ele>184.202140</ele>
        <time>2025-10-05T17:19:17.335Z</time>
      </trkpt>
      <trkpt lat="51.897778" lon="8.880961">
        <ele>184.754876</ele>
        <time>2025-10-05T17:19:25.898Z</time>
      </trkpt>
      <trkpt lat="51.897382" lon="8.880964">
        <ele>185.474062</ele>
        <time>2025-10-05T17:19:37.043Z</time>
      </trkpt>
      <trkpt lat="51.897177" lon="8.880923">
        <ele>185.849189</ele>
        <time>2025-10-05T17:19:42.854Z</time>
      </trkpt>
      <trkpt lat="51.896936" lon="8.880823">
        <ele>186.253488</ele>
        <time>2025-10-05T17:19:49.858Z</time>
      </trkpt>
      <trkpt lat="51.896571" lon="8.880563">
        <ele>186.888039</ele>
        <time>2025-10-05T17:20:01.086Z</time>
      </trkpt>
      <trkpt lat="51.896254" lon="8.880213">
        <ele>187.498521</ele>
        <time>2025-10-05T17:20:11.874Z</time>
      </trkpt>
      <trkpt lat="51.896174" lon="8.880094">
        <ele>187.671350</ele>
        <time>2025-10-05T17:20:14.924Z</time>
      </trkpt>
      <trkpt lat="51.895941" lon="8.879574">
        <ele>188.302480</ele>
        <time>2025-10-05T17:20:26.069Z</time>
      </trkpt>
      <trkpt lat="51.895845" lon="8.879372">
        <ele>188.552883</ele>
        <time>2025-10-05T17:20:30.500Z</time>
      </trkpt>
      <trkpt lat="51.895719" lon="8.879198">
        <ele>188.811625</ele>
        <time>2025-10-05T17:20:35.144Z</time>
      </trkpt>
      <trkpt lat="51.894820" lon="8.878117">
        <ele>190.365054</ele>
        <time>2025-10-05T17:21:06.455Z</time>
      </trkpt>
      <trkpt lat="51.894790" lon="8.878176">
        <ele>190.430519</ele>
        <time>2025-10-05T17:21:07.516Z</time>
      </trkpt>
      <trkpt lat="51.894768" lon="8.878219">
        <ele>190.478351</ele>
        <time>2025-10-05T17:21:08.293Z</time>
      </trkpt>
      <trkpt lat="51.894738" lon="8.878346">
        <ele>190.594800</ele>
        <time>2025-10-05T17:21:10.648Z</time>
      </trkpt>
      <trkpt lat="51.894638" lon="8.878686">
        <ele>190.917331</ele>
        <time>2025-10-05T17:21:17.171Z</time>
      </trkpt>
      <trkpt lat="51.894588" lon="8.878864">
        <ele>191.084806</ele>
        <time>2025-10-05T17:21:20.571Z</time>
      </trkpt>
      <trkpt lat="51.894420" lon="8.879522">
        <ele>192.435785</ele>
        <time>2025-10-05T17:21:31.162Z</time>
      </trkpt>
      <trkpt lat="51.894343" lon="8.880006">
        <ele>193.620476</ele>
        <time>2025-10-05T17:21:38.791Z</time>
      </trkpt>
      <trkpt lat="51.894330" lon="8.880217">
        <ele>194.123077</ele>
        <time>2025-10-05T17:21:42.117Z</time>
      </trkpt>
      <trkpt lat="51.894277" lon="8.880696">
        <ele>195.276515</ele>
        <time>2025-10-05T17:21:49.953Z</time>
      </trkpt>
      <trkpt lat="51.894011" lon="8.883636">
        <ele>200.635047</ele>
        <time>2025-10-05T17:22:37.569Z</time>
      </trkpt>
      <trkpt lat="51.893858" lon="8.885049">
        <ele>202.009091</ele>
        <time>2025-10-05T17:22:55.634Z</time>
      </trkpt>
      <trkpt lat="51.893755" lon="8.885657">
        <ele>201.368422</ele>
        <time>2025-10-05T17:23:02.100Z</time>
      </trkpt>
      <trkpt lat="51.893600" lon="8.886339">
        <ele>200.629910</ele>
        <time>2025-10-05T17:23:09.633Z</time>
      </trkpt>
      <trkpt lat="51.893500" lon="8.886577">
        <ele>200.337334</ele>
        <time>2025-10-05T17:23:12.686Z</time>
      </trkpt>
      <trkpt lat="51.893413" lon="8.886879">
        <ele>199.998668</ele>
        <time>2025-10-05T17:23:16.300Z</time>
      </trkpt>
      <trkpt lat="51.893303" lon="8.887258">
        <ele>199.573081</ele>
        <time>2025-10-05T17:23:21.025Z</time>
      </trkpt>
      <trkpt lat="51.892858" lon="8.888504">
        <ele>199.981523</ele>
        <time>2025-10-05T17:23:39.401Z</time>
      </trkpt>
      <trkpt lat="51.892375" lon="8.889849">
        <ele>200.852908</ele>
        <time>2025-10-05T17:24:01.524Z</time>
      </trkpt>
      <trkpt lat="51.892161" lon="8.890413">
        <ele>201.952277</ele>
        <time>2025-10-05T17:24:11.211Z</time>
      </trkpt>
      <trkpt lat="51.891675" lon="8.891699">
        <ele>205.034517</ele>
        <time>2025-10-05T17:24:34.218Z</time>
      </trkpt>
      <trkpt lat="51.891368" lon="8.892561">
        <ele>207.070403</ele>
        <time>2025-10-05T17:24:49.876Z</time>
      </trkpt>
      <trkpt lat="51.891091" lon="8.893506">
        <ele>209.230098</ele>
        <time>2025-10-05T17:25:06.093Z</time>
      </trkpt>
      <trkpt lat="51.890896" lon="8.894658">
        <ele>211.696103</ele>
        <time>2025-10-05T17:25:24.060Z</time>
      </trkpt>
      <trkpt lat="51.890903" lon="8.894865">
        <ele>212.124074</ele>
        <time>2025-10-05T17:25:27.151Z</time>
      </trkpt>
      <trkpt lat="51.890674" lon="8.894946">
        <ele>212.908114</ele>
        <time>2025-10-05T17:25:32.787Z</time>
      </trkpt>
      <trkpt lat="51.890159" lon="8.895396">
        <ele>214.916342</ele>
        <time>2025-10-05T17:25:46.865Z</time>
      </trkpt>
      <trkpt lat="51.889778" lon="8.895855">
        <ele>216.546165</ele>
        <time>2025-10-05T17:25:58.447Z</time>
      </trkpt>
      <trkpt lat="51.889294" lon="8.896436">
        <ele>218.613969</ele>
        <time>2025-10-05T17:26:13.614Z</time>
      </trkpt>
      <trkpt lat="51.888416" lon="8.897275">
        <ele>222.990599</ele>
        <time>2025-10-05T17:26:40.030Z</time>
      </trkpt>
      <trkpt lat="51.888116" lon="8.897598">
        <ele>224.586781</ele>
        <time>2025-10-05T17:26:49.442Z</time>
      </trkpt>
      <trkpt lat="51.887642" lon="8.898241">
        <ele>227.392731</ele>
        <time>2025-10-05T17:27:05.476Z</time>
      </trkpt>
      <trkpt lat="51.887550" lon="8.898206">
        <ele>227.918900</ele>
        <time>2025-10-05T17:27:07.934Z</time>
      </trkpt>
      <trkpt lat="51.886980" lon="8.898889">
        <ele>231.866182</ele>
        <time>2025-10-05T17:27:26.703Z</time>
      </trkpt>
      <trkpt lat="51.886708" lon="8.899116">
        <ele>233.569730</ele>
        <time>2025-10-05T17:27:35.159Z</time>
      </trkpt>
      <trkpt lat="51.886322" lon="8.899350">
        <ele>235.864418</ele>
        <time>2025-10-05T17:27:47.065Z</time>
      </trkpt>
      <trkpt lat="51.885938" lon="8.899750">
        <ele>238.208621</ele>
        <time>2025-10-05T17:28:01.141Z</time>
      </trkpt>
      <trkpt lat="51.885029" lon="8.900559">
        <ele>243.121624</ele>
        <time>2025-10-05T17:28:31.396Z</time>
      </trkpt>
      <trkpt lat="51.884967" lon="8.900634">
        <ele>243.488166</ele>
        <time>2025-10-05T17:28:33.287Z</time>
      </trkpt>
      <trkpt lat="51.884838" lon="8.900912">
        <ele>244.505113</ele>
        <time>2025-10-05T17:28:38.369Z</time>
      </trkpt>
      <trkpt lat="51.884824" lon="8.900945">
        <ele>244.622198</ele>
        <time>2025-10-05T17:28:38.935Z</time>
      </trkpt>
      <trkpt lat="51.884611" lon="8.901385">
        <ele>244.849979</ele>
        <time>2025-10-05T17:28:46.637Z</time>
      </trkpt>
      <trkpt lat="51.884455" lon="8.901637">
        <ele>243.651888</ele>
        <time>2025-10-05T17:28:50.962Z</time>
      </trkpt>
      <trkpt lat="51.884213" lon="8.901950">
        <ele>241.967786</ele>
        <time>2025-10-05T17:28:56.008Z</time>
      </trkpt>
      <trkpt lat="51.883804" lon="8.902153">
        <ele>239.641381</ele>
        <time>2025-10-05T17:29:02.094Z</time>
      </trkpt>
      <trkpt lat="51.883627" lon="8.902416">
        <ele>238.335193</ele>
        <time>2025-10-05T17:29:05.394Z</time>
      </trkpt>
      <trkpt lat="51.883487" lon="8.902717">
        <ele>237.069989</ele>
        <time>2025-10-05T17:29:08.588Z</time>
      </trkpt>
      <trkpt lat="51.883272" lon="8.903160">
        <ele>234.955978</ele>
        <time>2025-10-05T17:29:13.396Z</time>
      </trkpt>
      <trkpt lat="51.883125" lon="8.903382">
        <ele>233.484658</ele>
        <time>2025-10-05T17:29:16.162Z</time>
      </trkpt>
      <trkpt lat="51.882977" lon="8.903572">
        <ele>232.102143</ele>
        <time>2025-10-05T17:29:18.755Z</time>
      </trkpt>
      <trkpt lat="51.882649" lon="8.903991">
        <ele>229.044019</ele>
        <time>2025-10-05T17:29:24.461Z</time>
      </trkpt>
      <trkpt lat="51.882373" lon="8.904464">
        <ele>226.102516</ele>
        <time>2025-10-05T17:29:30.121Z</time>
      </trkpt>
      <trkpt lat="51.882032" lon="8.905107">
        <ele>222.644834</ele>
        <time>2025-10-05T17:29:38.159Z</time>
      </trkpt>
      <trkpt lat="51.881848" lon="8.905556">
        <ele>222.600301</ele>
        <time>2025-10-05T17:29:43.804Z</time>
      </trkpt>
      <trkpt lat="51.881824" lon="8.905998">
        <ele>222.563637</ele>
        <time>2025-10-05T17:29:49.068Z</time>
      </trkpt>
      <trkpt lat="51.881863" lon="8.906609">
        <ele>222.512879</ele>
        <time>2025-10-05T17:29:57.278Z</time>
      </trkpt>
      <trkpt lat="51.881529" lon="8.906464">
        <ele>222.466591</ele>
        <time>2025-10-05T17:30:05.292Z</time>
      </trkpt>
      <trkpt lat="51.881318" lon="8.906422">
        <ele>222.438133</ele>
        <time>2025-10-05T17:30:10.334Z</time>
      </trkpt>
      <trkpt lat="51.880686" lon="8.906307">
        <ele>223.351634</ele>
        <time>2025-10-05T17:30:25.519Z</time>
      </trkpt>
      <trkpt lat="51.880375" lon="8.906092">
        <ele>224.085507</ele>
        <time>2025-10-05T17:30:33.516Z</time>
      </trkpt>
      <trkpt lat="51.880288" lon="8.906231">
        <ele>224.350713</ele>
        <time>2025-10-05T17:30:36.940Z</time>
      </trkpt>
      <trkpt lat="51.880355" lon="8.906325">
        <ele>224.543082</ele>
        <time>2025-10-05T17:30:39.943Z</time>
      </trkpt>
      <trkpt lat="51.880519" lon="8.906448">
        <ele>224.935317</ele>
        <time>2025-10-05T17:30:46.071Z</time>
      </trkpt>
      <trkpt lat="51.880769" lon="8.906564">
        <ele>225.499723</ele>
        <time>2025-10-05T17:30:54.841Z</time>
      </trkpt>
      <trkpt lat="51.880519" lon="8.906448">
        <ele>226.064130</ele>
        <time>2025-10-05T17:31:03.555Z</time>
      </trkpt>
      <trkpt lat="51.880355" lon="8.906325">
        <ele>226.610867</ele>
        <time>2025-10-05T17:31:09.618Z</time>
      </trkpt>
      <trkpt lat="51.880288" lon="8.906231">
        <ele>227.013044</ele>
        <time>2025-10-05T17:31:12.589Z</time>
      </trkpt>
      <trkpt lat="51.880375" lon="8.906092">
        <ele>227.567500</ele>
        <time>2025-10-05T17:31:16.054Z</time>
      </trkpt>
      <trkpt lat="51.880312" lon="8.906036">
        <ele>227.893568</ele>
        <time>2025-10-05T17:31:17.786Z</time>
      </trkpt>
      <trkpt lat="51.880180" lon="8.905949">
        <ele>228.540190</ele>
        <time>2025-10-05T17:31:21.251Z</time>
      </trkpt>
      <trkpt lat="51.879963" lon="8.905855">
        <ele>229.559418</ele>
        <time>2025-10-05T17:31:26.832Z</time>
      </trkpt>
      <trkpt lat="51.879626" lon="8.905727">
        <ele>231.130016</ele>
        <time>2025-10-05T17:31:35.716Z</time>
      </trkpt>
      <trkpt lat="51.879341" lon="8.905577">
        <ele>232.489739</ele>
        <time>2025-10-05T17:31:43.786Z</time>
      </trkpt>
      <trkpt lat="51.879317" lon="8.905565">
        <ele>232.603708</ele>
        <time>2025-10-05T17:31:44.493Z</time>
      </trkpt>
      <trkpt lat="51.878918" lon="8.905356">
        <ele>234.526544</ele>
        <time>2025-10-05T17:31:56.952Z</time>
      </trkpt>
      <trkpt lat="51.878856" lon="8.905334">
        <ele>235.004458</ele>
        <time>2025-10-05T17:31:58.903Z</time>
      </trkpt>
      <trkpt lat="51.878143" lon="8.905243">
        <ele>240.389801</ele>
        <time>2025-10-05T17:32:20.579Z</time>
      </trkpt>
      <trkpt lat="51.878117" lon="8.905237">
        <ele>240.587551</ele>
        <time>2025-10-05T17:32:21.428Z</time>
      </trkpt>
      <trkpt lat="51.877902" lon="8.905198">
        <ele>242.216565</ele>
        <time>2025-10-05T17:32:28.295Z</time>
      </trkpt>
      <trkpt lat="51.877829" lon="8.905183">
        <ele>242.770641</ele>
        <time>2025-10-05T17:32:30.611Z</time>
      </trkpt>
      <trkpt lat="51.877695" lon="8.905153">
        <ele>243.789217</ele>
        <time>2025-10-05T17:32:34.914Z</time>
      </trkpt>
      <trkpt lat="51.877583" lon="8.905127">
        <ele>244.641165</ele>
        <time>2025-10-05T17:32:38.510Z</time>
      </trkpt>
      <trkpt lat="51.877457" lon="8.905097">
        <ele>245.600106</ele>
        <time>2025-10-05T17:32:42.528Z</time>
      </trkpt>
      <trkpt lat="51.877305" lon="8.905062">
        <ele>246.756133</ele>
        <time>2025-10-05T17:32:47.413Z</time>
      </trkpt>
      <trkpt lat="51.877066" lon="8.905024">
        <ele>248.604153</ele>
        <time>2025-10-05T17:32:55.068Z</time>
      </trkpt>
      <trkpt lat="51.876923" lon="8.905082">
        <ele>249.795122</ele>
        <time>2025-10-05T17:33:00.006Z</time>
      </trkpt>
      <trkpt lat="51.876846" lon="8.905174">
        <ele>250.568133</ele>
        <time>2025-10-05T17:33:03.241Z</time>
      </trkpt>
      <trkpt lat="51.876693" lon="8.905513">
        <ele>252.662592</ele>
        <time>2025-10-05T17:33:11.752Z</time>
      </trkpt>
      <trkpt lat="51.876384" lon="8.905176">
        <ele>255.672137</ele>
        <time>2025-10-05T17:33:23.748Z</time>
      </trkpt>
      <trkpt lat="51.876206" lon="8.905114">
        <ele>257.143079</ele>
        <time>2025-10-05T17:33:29.881Z</time>
      </trkpt>
      <trkpt lat="51.876072" lon="8.905080">
        <ele>258.238872</ele>
        <time>2025-10-05T17:33:34.379Z</time>
      </trkpt>
      <trkpt lat="51.875996" lon="8.905113">
        <ele>258.874558</ele>
        <time>2025-10-05T17:33:36.879Z</time>
      </trkpt>
      <trkpt lat="51.875874" lon="8.905108">
        <ele>259.860517</ele>
        <time>2025-10-05T17:33:40.749Z</time>
      </trkpt>
      <trkpt lat="51.875856" lon="8.905104">
        <ele>260.007301</ele>
        <time>2025-10-05T17:33:41.317Z</time>
      </trkpt>
      <trkpt lat="51.875816" lon="8.905097">
        <ele>260.332344</ele>
        <time>2025-10-05T17:33:42.594Z</time>
      </trkpt>
      <trkpt lat="51.875784" lon="8.905091">
        <ele>260.592599</ele>
        <time>2025-10-05T17:33:43.655Z</time>
      </trkpt>
      <trkpt lat="51.875603" lon="8.905059">
        <ele>262.063591</ele>
        <time>2025-10-05T17:33:49.235Z</time>
      </trkpt>
      <trkpt lat="51.875501" lon="8.905041">
        <ele>262.772926</ele>
        <time>2025-10-05T17:33:52.435Z</time>
      </trkpt>
      <trkpt lat="51.875452" lon="8.905034">
        <ele>263.031313</ele>
        <time>2025-10-05T17:33:53.967Z</time>
      </trkpt>
      <trkpt lat="51.875370" lon="8.905006">
        <ele>263.471510</ele>
        <time>2025-10-05T17:33:56.486Z</time>
      </trkpt>
      <trkpt lat="51.875178" lon="8.904990">
        <ele>264.481385</ele>
        <time>2025-10-05T17:34:02.388Z</time>
      </trkpt>
      <trkpt lat="51.875175" lon="8.904837">
        <ele>264.977809</ele>
        <time>2025-10-05T17:34:05.235Z</time>
      </trkpt>
      <trkpt lat="51.875087" lon="8.904781">
        <ele>265.474451</ele>
        <time>2025-10-05T17:34:08.211Z</time>
      </trkpt>
      <trkpt lat="51.874751" lon="8.904446">
        <ele>267.546961</ele>
        <time>2025-10-05T17:34:19.089Z</time>
      </trkpt>
      <trkpt lat="51.874704" lon="8.904407">
        <ele>267.824355</ele>
        <time>2025-10-05T17:34:20.523Z</time>
      </trkpt>
      <trkpt lat="51.874674" lon="8.904389">
        <ele>267.992404</ele>
        <time>2025-10-05T17:34:21.327Z</time>
      </trkpt>
      <trkpt lat="51.874547" lon="8.904299">
        <ele>268.720566</ele>
        <time>2025-10-05T17:34:24.912Z</time>
      </trkpt>
      <trkpt lat="51.874426" lon="8.904250">
        <ele>269.375721</ele>
        <time>2025-10-05T17:34:28.114Z</time>
      </trkpt>
      <trkpt lat="51.874286" lon="8.904258">
        <ele>270.111572</ele>
        <time>2025-10-05T17:34:31.603Z</time>
      </trkpt>
      <trkpt lat="51.874176" lon="8.904360">
        <ele>270.777369</ele>
        <time>2025-10-05T17:34:34.617Z</time>
      </trkpt>
      <trkpt lat="51.874133" lon="8.904323">
        <ele>271.033134</ele>
        <time>2025-10-05T17:34:35.812Z</time>
      </trkpt>
      <trkpt lat="51.873991" lon="8.904194">
        <ele>271.888345</ele>
        <time>2025-10-05T17:34:39.714Z</time>
      </trkpt>
      <trkpt lat="51.873835" lon="8.904067">
        <ele>272.534502</ele>
        <time>2025-10-05T17:34:43.949Z</time>
      </trkpt>
      <trkpt lat="51.873617" lon="8.903949">
        <ele>273.336418</ele>
        <time>2025-10-05T17:34:49.575Z</time>
      </trkpt>
      <trkpt lat="51.873420" lon="8.903888">
        <ele>274.036169</ele>
        <time>2025-10-05T17:34:54.469Z</time>
      </trkpt>
      <trkpt lat="51.873065" lon="8.903832">
        <ele>275.280572</ele>
        <time>2025-10-05T17:35:03.409Z</time>
      </trkpt>
      <trkpt lat="51.872799" lon="8.903837">
        <ele>276.208669</ele>
        <time>2025-10-05T17:35:10.085Z</time>
      </trkpt>
      <trkpt lat="51.872324" lon="8.903906">
        <ele>277.872525</ele>
        <time>2025-10-05T17:35:22.238Z</time>
      </trkpt>
      <trkpt lat="51.871738" lon="8.903977">
        <ele>278.606830</ele>
        <time>2025-10-05T17:35:36.580Z</time>
      </trkpt>
      <trkpt lat="51.871715" lon="8.904161">
        <ele>278.688512</ele>
        <time>2025-10-05T17:35:39.505Z</time>
      </trkpt>
      <trkpt lat="51.871643" lon="8.904358">
        <ele>278.788118</ele>
        <time>2025-10-05T17:35:43.064Z</time>
      </trkpt>
      <trkpt lat="51.871497" lon="8.905243">
        <ele>279.186688</ele>
        <time>2025-10-05T17:35:56.828Z</time>
      </trkpt>
      <trkpt lat="51.871556" lon="8.905830">
        <ele>279.445453</ele>
        <time>2025-10-05T17:36:04.275Z</time>
      </trkpt>
      <trkpt lat="51.871554" lon="8.906092">
        <ele>279.461229</ele>
        <time>2025-10-05T17:36:07.242Z</time>
      </trkpt>
      <trkpt lat="51.871381" lon="8.906288">
        <ele>278.806572</ele>
        <time>2025-10-05T17:36:11.098Z</time>
      </trkpt>
      <trkpt lat="51.871276" lon="8.906361">
        <ele>278.452258</ele>
        <time>2025-10-05T17:36:13.185Z</time>
      </trkpt>
      <trkpt lat="51.870832" lon="8.906543">
        <ele>277.032093</ele>
        <time>2025-10-05T17:36:21.583Z</time>
      </trkpt>
      <trkpt lat="51.870727" lon="8.906614">
        <ele>276.679272</ele>
        <time>2025-10-05T17:36:23.680Z</time>
      </trkpt>
      <trkpt lat="51.870609" lon="8.906746">
        <ele>276.234584</ele>
        <time>2025-10-05T17:36:26.318Z</time>
      </trkpt>
      <trkpt lat="51.870343" lon="8.907035">
        <ele>275.241374</ele>
        <time>2025-10-05T17:36:32.086Z</time>
      </trkpt>
      <trkpt lat="51.870312" lon="8.907077">
        <ele>275.116050</ele>
        <time>2025-10-05T17:36:32.823Z</time>
      </trkpt>
      <trkpt lat="51.870115" lon="8.907389">
        <ele>274.261667</ele>
        <time>2025-10-05T17:36:37.801Z</time>
      </trkpt>
      <trkpt lat="51.869992" lon="8.907688">
        <ele>273.604102</ele>
        <time>2025-10-05T17:36:41.865Z</time>
      </trkpt>
      <trkpt lat="51.869404" lon="8.909564">
        <ele>269.888921</ele>
        <time>2025-10-05T17:37:06.643Z</time>
      </trkpt>
      <trkpt lat="51.869228" lon="8.910063">
        <ele>268.874108</ele>
        <time>2025-10-05T17:37:13.331Z</time>
      </trkpt>
      <trkpt lat="51.869106" lon="8.910491">
        <ele>267.846366</ele>
        <time>2025-10-05T17:37:18.733Z</time>
      </trkpt>
      <trkpt lat="51.868648" lon="8.911708">
        <ele>264.698073</ele>
        <time>2025-10-05T17:37:34.660Z</time>
      </trkpt>
      <trkpt lat="51.868595" lon="8.911848">
        <ele>264.335317</ele>
        <time>2025-10-05T17:37:36.450Z</time>
      </trkpt>
      <trkpt lat="51.868523" lon="8.912198">
        <ele>263.520392</ele>
        <time>2025-10-05T17:37:40.459Z</time>
      </trkpt>
      <trkpt lat="51.868524" lon="8.912587">
        <ele>262.661086</ele>
        <time>2025-10-05T17:37:44.623Z</time>
      </trkpt>
      <trkpt lat="51.868469" lon="8.913326">
        <ele>261.966869</ele>
        <time>2025-10-05T17:37:52.809Z</time>
      </trkpt>
      <trkpt lat="51.868290" lon="8.913623">
        <ele>261.686521</ele>
        <time>2025-10-05T17:37:57.646Z</time>
      </trkpt>
      <trkpt lat="51.868101" lon="8.914029">
        <ele>261.343062</ele>
        <time>2025-10-05T17:38:07.633Z</time>
      </trkpt>
      <trkpt lat="51.867977" lon="8.914138">
        <ele>261.188715</ele>
        <time>2025-10-05T17:38:10.680Z</time>
      </trkpt>
      <trkpt lat="51.867768" lon="8.914449">
        <ele>260.878215</ele>
        <time>2025-10-05T17:38:17.283Z</time>
      </trkpt>
      <trkpt lat="51.867646" lon="8.914668">
        <ele>260.678972</ele>
        <time>2025-10-05T17:38:21.740Z</time>
      </trkpt>
      <trkpt lat="51.867540" lon="8.915052">
        <ele>260.503850</ele>
        <time>2025-10-05T17:38:28.243Z</time>
      </trkpt>
      <trkpt lat="51.867566" lon="8.915096">
        <ele>260.658956</ele>
        <time>2025-10-05T17:38:29.117Z</time>
      </trkpt>
      <trkpt lat="51.867485" lon="8.915262">
        <ele>261.197803</ele>
        <time>2025-10-05T17:38:32.284Z</time>
      </trkpt>
      <trkpt lat="51.867403" lon="8.915364">
        <ele>261.624270</ele>
        <time>2025-10-05T17:38:34.854Z</time>
      </trkpt>
      <trkpt lat="51.867272" lon="8.915424">
        <ele>262.185782</ele>
        <time>2025-10-05T17:38:38.345Z</time>
      </trkpt>
      <trkpt lat="51.867053" lon="8.915503">
        <ele>263.111200</ele>
        <time>2025-10-05T17:38:44.134Z</time>
      </trkpt>
      <trkpt lat="51.866803" lon="8.915646">
        <ele>264.204771</ele>
        <time>2025-10-05T17:38:51.065Z</time>
      </trkpt>
      <trkpt lat="51.866422" lon="8.915969">
        <ele>265.978536</ele>
        <time>2025-10-05T17:39:02.392Z</time>
      </trkpt>
      <trkpt lat="51.866029" lon="8.916427">
        <ele>267.993991</ele>
        <time>2025-10-05T17:39:15.335Z</time>
      </trkpt>
      <trkpt lat="51.865675" lon="8.916927">
        <ele>270.187512</ele>
        <time>2025-10-05T17:39:27.961Z</time>
      </trkpt>
      <trkpt lat="51.865628" lon="8.917005">
        <ele>270.501775</ele>
        <time>2025-10-05T17:39:29.781Z</time>
      </trkpt>
      <trkpt lat="51.865352" lon="8.917569">
        <ele>272.576920</ele>
        <time>2025-10-05T17:39:41.756Z</time>
      </trkpt>
      <trkpt lat="51.865251" lon="8.917715">
        <ele>273.209140</ele>
        <time>2025-10-05T17:39:45.386Z</time>
      </trkpt>
      <trkpt lat="51.865025" lon="8.917876">
        <ele>274.362114</ele>
        <time>2025-10-05T17:39:51.914Z</time>
      </trkpt>
      <trkpt lat="51.864815" lon="8.917875">
        <ele>275.342771</ele>
        <time>2025-10-05T17:39:57.427Z</time>
      </trkpt>
      <trkpt lat="51.861718" lon="8.916643">
        <ele>286.093028</ele>
        <time>2025-10-05T17:41:15.640Z</time>
      </trkpt>
      <trkpt lat="51.860726" lon="8.916233">
        <ele>290.556736</ele>
        <time>2025-10-05T17:41:41.812Z</time>
      </trkpt>
      <trkpt lat="51.860279" lon="8.916046">
        <ele>293.344216</ele>
        <time>2025-10-05T17:41:55.000Z</time>
      </trkpt>
      <trkpt lat="51.859939" lon="8.915919">
        <ele>295.450955</ele>
        <time>2025-10-05T17:42:06.277Z</time>
      </trkpt>
      <trkpt lat="51.859652" lon="8.915879">
        <ele>297.190188</ele>
        <time>2025-10-05T17:42:16.034Z</time>
      </trkpt>
      <trkpt lat="51.859093" lon="8.916016">
        <ele>300.577488</ele>
        <time>2025-10-05T17:42:35.707Z</time>
      </trkpt>
      <trkpt lat="51.858884" lon="8.916148">
        <ele>301.911667</ele>
        <time>2025-10-05T17:42:43.345Z</time>
      </trkpt>
      <trkpt lat="51.858686" lon="8.916386">
        <ele>303.378230</ele>
        <time>2025-10-05T17:42:51.235Z</time>
      </trkpt>
      <trkpt lat="51.858500" lon="8.916779">
        <ele>305.196837</ele>
        <time>2025-10-05T17:43:00.535Z</time>
      </trkpt>
      <trkpt lat="51.858237" lon="8.917152">
        <ele>307.276138</ele>
        <time>2025-10-05T17:43:10.323Z</time>
      </trkpt>
      <trkpt lat="51.857090" lon="8.918169">
        <ele>312.674806</ele>
        <time>2025-10-05T17:43:43.720Z</time>
      </trkpt>
      <trkpt lat="51.856763" lon="8.918411">
        <ele>313.888743</ele>
        <time>2025-10-05T17:43:52.965Z</time>
      </trkpt>
      <trkpt lat="51.856327" lon="8.918636">
        <ele>315.433803</ele>
        <time>2025-10-05T17:44:05.203Z</time>
      </trkpt>
      <trkpt lat="51.856143" lon="8.918652">
        <ele>316.273110</ele>
        <time>2025-10-05T17:44:10.308Z</time>
      </trkpt>
      <trkpt lat="51.855430" lon="8.918356">
        <ele>320.007055</ele>
        <time>2025-10-05T17:44:30.571Z</time>
      </trkpt>
      <trkpt lat="51.855128" lon="8.918231">
        <ele>321.588324</ele>
        <time>2025-10-05T17:44:39.402Z</time>
      </trkpt>
      <trkpt lat="51.854626" lon="8.918114">
        <ele>324.161142</ele>
        <time>2025-10-05T17:44:53.498Z</time>
      </trkpt>
      <trkpt lat="51.853678" lon="8.918068">
        <ele>327.463859</ele>
        <time>2025-10-05T17:45:17.080Z</time>
      </trkpt>
      <trkpt lat="51.852499" lon="8.918210">
        <ele>330.978063</ele>
        <time>2025-10-05T17:45:45.182Z</time>
      </trkpt>
      <trkpt lat="51.852208" lon="8.918171">
        <ele>331.469386</ele>
        <time>2025-10-05T17:45:52.422Z</time>
      </trkpt>
      <trkpt lat="51.851922" lon="8.917962">
        <ele>331.997377</ele>
        <time>2025-10-05T17:46:00.111Z</time>
      </trkpt>
      <trkpt lat="51.851607" lon="8.917589">
        <ele>332.654060</ele>
        <time>2025-10-05T17:46:09.418Z</time>
      </trkpt>
      <trkpt lat="51.851329" lon="8.917084">
        <ele>333.357135</ele>
        <time>2025-10-05T17:46:18.916Z</time>
      </trkpt>
      <trkpt lat="51.851107" lon="8.916561">
        <ele>332.733913</ele>
        <time>2025-10-05T17:46:26.756Z</time>
      </trkpt>
      <trkpt lat="51.850160" lon="8.913747">
        <ele>324.707093</ele>
        <time>2025-10-05T17:46:56.575Z</time>
      </trkpt>
      <trkpt lat="51.850114" lon="8.913666">
        <ele>324.431369</ele>
        <time>2025-10-05T17:46:57.574Z</time>
      </trkpt>
      <trkpt lat="51.850059" lon="8.913242">
        <ele>323.345684</ele>
        <time>2025-10-05T17:47:01.598Z</time>
      </trkpt>
      <trkpt lat="51.850053" lon="8.912856">
        <ele>322.378092</ele>
        <time>2025-10-05T17:47:05.245Z</time>
      </trkpt>
      <trkpt lat="51.850088" lon="8.912375">
        <ele>321.164410</ele>
        <time>2025-10-05T17:47:09.880Z</time>
      </trkpt>
      <trkpt lat="51.850065" lon="8.912049">
        <ele>320.342168</ele>
        <time>2025-10-05T17:47:13.110Z</time>
      </trkpt>
      <trkpt lat="51.850020" lon="8.911904">
        <ele>319.935529</ele>
        <time>2025-10-05T17:47:14.736Z</time>
      </trkpt>
      <trkpt lat="51.849967" lon="8.911853">
        <ele>319.685407</ele>
        <time>2025-10-05T17:47:15.773Z</time>
      </trkpt>
      <trkpt lat="51.849806" lon="8.911669">
        <ele>319.031279</ele>
        <time>2025-10-05T17:47:19.204Z</time>
      </trkpt>
      <trkpt lat="51.849686" lon="8.911621">
        <ele>318.971063</ele>
        <time>2025-10-05T17:47:21.458Z</time>
      </trkpt>
      <trkpt lat="51.849549" lon="8.911638">
        <ele>318.904128</ele>
        <time>2025-10-05T17:47:24.110Z</time>
      </trkpt>
      <trkpt lat="51.849339" lon="8.911795">
        <ele>318.791444</ele>
        <time>2025-10-05T17:47:28.826Z</time>
      </trkpt>
      <trkpt lat="51.849272" lon="8.911801">
        <ele>318.758755</ele>
        <time>2025-10-05T17:47:30.259Z</time>
      </trkpt>
      <trkpt lat="51.849219" lon="8.911764">
        <ele>318.730638</ele>
        <time>2025-10-05T17:47:31.501Z</time>
      </trkpt>
      <trkpt lat="51.848667" lon="8.910629">
        <ele>318.295930</ele>
        <time>2025-10-05T17:47:51.100Z</time>
      </trkpt>
      <trkpt lat="51.848527" lon="8.910391">
        <ele>318.197031</ele>
        <time>2025-10-05T17:47:55.395Z</time>
      </trkpt>
      <trkpt lat="51.848290" lon="8.910125">
        <ele>317.459481</ele>
        <time>2025-10-05T17:48:01.165Z</time>
      </trkpt>
      <trkpt lat="51.847822" lon="8.909845">
        <ele>315.990421</ele>
        <time>2025-10-05T17:48:11.252Z</time>
      </trkpt>
      <trkpt lat="51.847245" lon="8.909594">
        <ele>314.231255</ele>
        <time>2025-10-05T17:48:22.135Z</time>
      </trkpt>
      <trkpt lat="51.846814" lon="8.909508">
        <ele>312.952633</ele>
        <time>2025-10-05T17:48:29.513Z</time>
      </trkpt>
      <trkpt lat="51.846610" lon="8.909502">
        <ele>312.177809</ele>
        <time>2025-10-05T17:48:32.937Z</time>
      </trkpt>
      <trkpt lat="51.846232" lon="8.909570">
        <ele>310.688226</ele>
        <time>2025-10-05T17:48:39.291Z</time>
      </trkpt>
      <trkpt lat="51.845769" lon="8.909894">
        <ele>308.712647</ele>
        <time>2025-10-05T17:48:48.105Z</time>
      </trkpt>
      <trkpt lat="51.845255" lon="8.910294">
        <ele>306.478952</ele>
        <time>2025-10-05T17:48:58.639Z</time>
      </trkpt>
      <trkpt lat="51.844816" lon="8.910514">
        <ele>305.231918</ele>
        <time>2025-10-05T17:49:06.881Z</time>
      </trkpt>
      <trkpt lat="51.844759" lon="8.910569">
        <ele>305.096372</ele>
        <time>2025-10-05T17:49:08.235Z</time>
      </trkpt>
      <trkpt lat="51.844585" lon="8.910967">
        <ele>304.481098</ele>
        <time>2025-10-05T17:49:14.109Z</time>
      </trkpt>
      <trkpt lat="51.843991" lon="8.911436">
        <ele>303.131141</ele>
        <time>2025-10-05T17:49:26.873Z</time>
      </trkpt>
      <trkpt lat="51.843511" lon="8.911771">
        <ele>301.911030</ele>
        <time>2025-10-05T17:49:36.541Z</time>
      </trkpt>
      <trkpt lat="51.843090" lon="8.911948">
        <ele>299.629224</ele>
        <time>2025-10-05T17:49:44.158Z</time>
      </trkpt>
      <trkpt lat="51.842742" lon="8.912002">
        <ele>297.795284</ele>
        <time>2025-10-05T17:49:50.045Z</time>
      </trkpt>
      <trkpt lat="51.842566" lon="8.911994">
        <ele>296.871643</ele>
        <time>2025-10-05T17:49:52.993Z</time>
      </trkpt>
      <trkpt lat="51.841670" lon="8.911751">
        <ele>291.882403</ele>
        <time>2025-10-05T17:50:08.053Z</time>
      </trkpt>
      <trkpt lat="51.841393" lon="8.911666">
        <ele>289.869925</ele>
        <time>2025-10-05T17:50:12.640Z</time>
      </trkpt>
      <trkpt lat="51.841129" lon="8.911525">
        <ele>287.885515</ele>
        <time>2025-10-05T17:50:17.123Z</time>
      </trkpt>
      <trkpt lat="51.840606" lon="8.911104">
        <ele>283.716051</ele>
        <time>2025-10-05T17:50:25.345Z</time>
      </trkpt>
      <trkpt lat="51.840044" lon="8.910398">
        <ele>279.231394</ele>
        <time>2025-10-05T17:50:35.430Z</time>
      </trkpt>
      <trkpt lat="51.839872" lon="8.910074">
        <ele>278.243173</ele>
        <time>2025-10-05T17:50:39.215Z</time>
      </trkpt>
      <trkpt lat="51.839652" lon="8.909508">
        <ele>276.696211</ele>
        <time>2025-10-05T17:50:45.371Z</time>
      </trkpt>
      <trkpt lat="51.839431" lon="8.908766">
        <ele>274.790594</ele>
        <time>2025-10-05T17:50:55.160Z</time>
      </trkpt>
      <trkpt lat="51.839305" lon="8.908187">
        <ele>273.370447</ele>
        <time>2025-10-05T17:51:03.766Z</time>
      </trkpt>
      <trkpt lat="51.839222" lon="8.907812">
        <ele>272.985938</ele>
        <time>2025-10-05T17:51:09.564Z</time>
      </trkpt>
      <trkpt lat="51.838952" lon="8.906746">
        <ele>272.357496</ele>
        <time>2025-10-05T17:51:26.487Z</time>
      </trkpt>
      <trkpt lat="51.837914" lon="8.903350">
        <ele>268.821122</ele>
        <time>2025-10-05T17:52:14.045Z</time>
      </trkpt>
      <trkpt lat="51.837733" lon="8.902625">
        <ele>268.019018</ele>
        <time>2025-10-05T17:52:23.162Z</time>
      </trkpt>
      <trkpt lat="51.837516" lon="8.901420">
        <ele>267.260963</ele>
        <time>2025-10-05T17:52:38.300Z</time>
      </trkpt>
      <trkpt lat="51.837486" lon="8.901072">
        <ele>267.048747</ele>
        <time>2025-10-05T17:52:43.411Z</time>
      </trkpt>
      <trkpt lat="51.837479" lon="8.900811">
        <ele>266.890964</ele>
        <time>2025-10-05T17:52:47.405Z</time>
      </trkpt>
      <trkpt lat="51.837528" lon="8.899916">
        <ele>266.261666</ele>
        <time>2025-10-05T17:53:01.111Z</time>
      </trkpt>
      <trkpt lat="51.837539" lon="8.899600">
        <ele>265.612924</ele>
        <time>2025-10-05T17:53:04.982Z</time>
      </trkpt>
      <trkpt lat="51.837510" lon="8.899128">
        <ele>264.640680</ele>
        <time>2025-10-05T17:53:10.071Z</time>
      </trkpt>
      <trkpt lat="51.837430" lon="8.898917">
        <ele>264.133256</ele>
        <time>2025-10-05T17:53:12.586Z</time>
      </trkpt>
      <trkpt lat="51.837367" lon="8.898893">
        <ele>263.918555</ele>
        <time>2025-10-05T17:53:13.648Z</time>
      </trkpt>
      <trkpt lat="51.837323" lon="8.898949">
        <ele>263.732867</ele>
        <time>2025-10-05T17:53:14.501Z</time>
      </trkpt>
      <trkpt lat="51.836951" lon="8.899772">
        <ele>261.642745</ele>
        <time>2025-10-05T17:53:24.187Z</time>
      </trkpt>
      <trkpt lat="51.836851" lon="8.899923">
        <ele>261.189046</ele>
        <time>2025-10-05T17:53:26.180Z</time>
      </trkpt>
      <trkpt lat="51.836586" lon="8.900341">
        <ele>260.195857</ele>
        <time>2025-10-05T17:53:31.499Z</time>
      </trkpt>
      <trkpt lat="51.836408" lon="8.900629">
        <ele>259.789678</ele>
        <time>2025-10-05T17:53:35.353Z</time>
      </trkpt>
      <trkpt lat="51.836424" lon="8.900661">
        <ele>259.748632</ele>
        <time>2025-10-05T17:53:35.765Z</time>
      </trkpt>
      <trkpt lat="51.836520" lon="8.900881">
        <ele>259.480073</ele>
        <time>2025-10-05T17:53:38.590Z</time>
      </trkpt>
      <trkpt lat="51.836550" lon="8.900937">
        <ele>259.406168</ele>
        <time>2025-10-05T17:53:39.426Z</time>
      </trkpt>
      <trkpt lat="51.836694" lon="8.901238">
        <ele>259.026585</ele>
        <time>2025-10-05T17:53:44.059Z</time>
      </trkpt>
      <trkpt lat="51.836669" lon="8.901558">
        <ele>258.704960</ele>
        <time>2025-10-05T17:53:48.407Z</time>
      </trkpt>
      <trkpt lat="51.836644" lon="8.901648">
        <ele>258.606566</ele>
        <time>2025-10-05T17:53:49.749Z</time>
      </trkpt>
      <trkpt lat="51.836473" lon="8.901879">
        <ele>258.247115</ele>
        <time>2025-10-05T17:53:54.798Z</time>
      </trkpt>
      <trkpt lat="51.836435" lon="8.901928">
        <ele>258.168708</ele>
        <time>2025-10-05T17:53:55.905Z</time>
      </trkpt>
      <trkpt lat="51.836344" lon="8.902065">
        <ele>257.968141</ele>
        <time>2025-10-05T17:53:58.959Z</time>
      </trkpt>
      <trkpt lat="51.836272" lon="8.901965">
        <ele>257.815029</ele>
        <time>2025-10-05T17:54:01.238Z</time>
      </trkpt>
      <trkpt lat="51.836007" lon="8.901422">
        <ele>257.285907</ele>
        <time>2025-10-05T17:54:11.354Z</time>
      </trkpt>
      <trkpt lat="51.835519" lon="8.900665">
        <ele>256.644637</ele>
        <time>2025-10-05T17:54:24.821Z</time>
      </trkpt>
      <trkpt lat="51.835346" lon="8.900437">
        <ele>256.432983</ele>
        <time>2025-10-05T17:54:28.999Z</time>
      </trkpt>
      <trkpt lat="51.835260" lon="8.900358">
        <ele>256.339172</ele>
        <time>2025-10-05T17:54:30.878Z</time>
      </trkpt>
      <trkpt lat="51.835180" lon="8.900285">
        <ele>256.252047</ele>
        <time>2025-10-05T17:54:32.649Z</time>
      </trkpt>
      <trkpt lat="51.834857" lon="8.900045">
        <ele>255.914877</ele>
        <time>2025-10-05T17:54:40.063Z</time>
      </trkpt>
      <trkpt lat="51.834309" lon="8.899915">
        <ele>257.435918</ele>
        <time>2025-10-05T17:54:53.601Z</time>
      </trkpt>
      <trkpt lat="51.833321" lon="8.899614">
        <ele>261.133988</ele>
        <time>2025-10-05T17:55:22.150Z</time>
      </trkpt>
      <trkpt lat="51.833065" lon="8.899416">
        <ele>262.177677</ele>
        <time>2025-10-05T17:55:30.733Z</time>
      </trkpt>
      <trkpt lat="51.832923" lon="8.899210">
        <ele>262.503138</ele>
        <time>2025-10-05T17:55:36.276Z</time>
      </trkpt>
      <trkpt lat="51.832701" lon="8.898780">
        <ele>262.722018</ele>
        <time>2025-10-05T17:55:45.546Z</time>
      </trkpt>
      <trkpt lat="51.832522" lon="8.898110">
        <ele>263.007157</ele>
        <time>2025-10-05T17:55:56.708Z</time>
      </trkpt>
      <trkpt lat="51.832466" lon="8.897898">
        <ele>263.097220</ele>
        <time>2025-10-05T17:55:59.980Z</time>
      </trkpt>
      <trkpt lat="51.832361" lon="8.897341">
        <ele>263.324704</ele>
        <time>2025-10-05T17:56:07.447Z</time>
      </trkpt>
      <trkpt lat="51.832106" lon="8.896656">
        <ele>263.115864</ele>
        <time>2025-10-05T17:56:16.715Z</time>
      </trkpt>
      <trkpt lat="51.831929" lon="8.896068">
        <ele>261.595674</ele>
        <time>2025-10-05T17:56:23.776Z</time>
      </trkpt>
      <trkpt lat="51.831704" lon="8.895184">
        <ele>259.373556</ele>
        <time>2025-10-05T17:56:34.033Z</time>
      </trkpt>
      <trkpt lat="51.831527" lon="8.894324">
        <ele>257.266720</ele>
        <time>2025-10-05T17:56:44.089Z</time>
      </trkpt>
      <trkpt lat="51.831044" lon="8.891423">
        <ele>251.888444</ele>
        <time>2025-10-05T17:57:18.686Z</time>
      </trkpt>
      <trkpt lat="51.830757" lon="8.890566">
        <ele>248.769128</ele>
        <time>2025-10-05T17:57:31.396Z</time>
      </trkpt>
      <trkpt lat="51.830635" lon="8.890105">
        <ele>247.073658</ele>
        <time>2025-10-05T17:57:37.537Z</time>
      </trkpt>
      <trkpt lat="51.830566" lon="8.888524">
        <ele>241.609676</ele>
        <time>2025-10-05T17:57:53.118Z</time>
      </trkpt>
      <trkpt lat="51.830574" lon="8.888474">
        <ele>241.307041</ele>
        <time>2025-10-05T17:57:53.604Z</time>
      </trkpt>
      <trkpt lat="51.830622" lon="8.888433">
        <ele>240.792411</ele>
        <time>2025-10-05T17:57:54.329Z</time>
      </trkpt>
      <trkpt lat="51.830662" lon="8.888389">
        <ele>240.333816</ele>
        <time>2025-10-05T17:57:54.975Z</time>
      </trkpt>
      <trkpt lat="51.830746" lon="8.888267">
        <ele>239.263604</ele>
        <time>2025-10-05T17:57:56.482Z</time>
      </trkpt>
      <trkpt lat="51.830809" lon="8.887947">
        <ele>237.295725</ele>
        <time>2025-10-05T17:57:59.251Z</time>
      </trkpt>
      <trkpt lat="51.830953" lon="8.887084">
        <ele>232.057932</ele>
        <time>2025-10-05T17:58:06.599Z</time>
      </trkpt>
      <trkpt lat="51.831037" lon="8.886877">
        <ele>230.606908</ele>
        <time>2025-10-05T17:58:08.630Z</time>
      </trkpt>
      <trkpt lat="51.831237" lon="8.886642">
        <ele>228.263402</ele>
        <time>2025-10-05T17:58:12.023Z</time>
      </trkpt>
      <trkpt lat="51.831337" lon="8.886408">
        <ele>226.596394</ele>
        <time>2025-10-05T17:58:14.527Z</time>
      </trkpt>
      <trkpt lat="51.831354" lon="8.886299">
        <ele>225.937694</ele>
        <time>2025-10-05T17:58:15.536Z</time>
      </trkpt>
      <trkpt lat="51.831377" lon="8.885739">
        <ele>224.023908</ele>
        <time>2025-10-05T17:58:20.631Z</time>
      </trkpt>
      <trkpt lat="51.831499" lon="8.884361">
        <ele>221.068082</ele>
        <time>2025-10-05T17:58:34.664Z</time>
      </trkpt>
      <trkpt lat="51.831533" lon="8.884014">
        <ele>220.322083</ele>
        <time>2025-10-05T17:58:38.433Z</time>
      </trkpt>
      <trkpt lat="51.831577" lon="8.883467">
        <ele>219.150825</ele>
        <time>2025-10-05T17:58:44.478Z</time>
      </trkpt>
      <trkpt lat="51.831723" lon="8.882878">
        <ele>218.282794</ele>
        <time>2025-10-05T17:58:51.558Z</time>
      </trkpt>
      <trkpt lat="51.831882" lon="8.882319">
        <ele>217.738451</ele>
        <time>2025-10-05T17:58:58.461Z</time>
      </trkpt>
      <trkpt lat="51.831948" lon="8.882277">
        <ele>217.636935</ele>
        <time>2025-10-05T17:58:59.809Z</time>
      </trkpt>
      <trkpt lat="51.831947" lon="8.882246">
        <ele>217.609476</ele>
        <time>2025-10-05T17:59:00.145Z</time>
      </trkpt>
      <trkpt lat="51.831912" lon="8.881506">
        <ele>216.952976</ele>
        <time>2025-10-05T17:59:08.353Z</time>
      </trkpt>
      <trkpt lat="51.831909" lon="8.881486">
        <ele>216.934771</ele>
        <time>2025-10-05T17:59:08.582Z</time>
      </trkpt>
      <trkpt lat="51.831899" lon="8.881420">
        <ele>216.874659</ele>
        <time>2025-10-05T17:59:09.349Z</time>
      </trkpt>
      <trkpt lat="51.831842" lon="8.881129">
        <ele>216.604626</ele>
        <time>2025-10-05T17:59:12.986Z</time>
      </trkpt>
      <trkpt lat="51.831825" lon="8.881067">
        <ele>216.544627</ele>
        <time>2025-10-05T17:59:13.819Z</time>
      </trkpt>
      <trkpt lat="51.831651" lon="8.880650">
        <ele>216.099543</ele>
        <time>2025-10-05T17:59:19.933Z</time>
      </trkpt>
      <trkpt lat="51.831593" lon="8.880556">
        <ele>216.014400</ele>
        <time>2025-10-05T17:59:21.515Z</time>
      </trkpt>
      <trkpt lat="51.831559" lon="8.880504">
        <ele>215.979057</ele>
        <time>2025-10-05T17:59:22.420Z</time>
      </trkpt>
      <trkpt lat="51.831523" lon="8.880449">
        <ele>215.941655</ele>
        <time>2025-10-05T17:59:23.366Z</time>
      </trkpt>
      <trkpt lat="51.831487" lon="8.880395">
        <ele>215.904571</ele>
        <time>2025-10-05T17:59:24.330Z</time>
      </trkpt>
      <trkpt lat="51.831398" lon="8.880260">
        <ele>215.812415</ele>
        <time>2025-10-05T17:59:26.705Z</time>
      </trkpt>
      <trkpt lat="51.831279" lon="8.880079">
        <ele>215.689036</ele>
        <time>2025-10-05T17:59:29.949Z</time>
      </trkpt>
      <trkpt lat="51.831256" lon="8.880044">
        <ele>215.665184</ele>
        <time>2025-10-05T17:59:30.578Z</time>
      </trkpt>
      <trkpt lat="51.831129" lon="8.879852">
        <ele>215.533884</ele>
        <time>2025-10-05T17:59:34.059Z</time>
      </trkpt>
      <trkpt lat="51.831037" lon="8.879713">
        <ele>215.438796</ele>
        <time>2025-10-05T17:59:36.763Z</time>
      </trkpt>
      <trkpt lat="51.830890" lon="8.879491">
        <ele>215.286894</ele>
        <time>2025-10-05T17:59:41.179Z</time>
      </trkpt>
      <trkpt lat="51.830879" lon="8.879474">
        <ele>215.275403</ele>
        <time>2025-10-05T17:59:41.491Z</time>
      </trkpt>
      <trkpt lat="51.830860" lon="8.879446">
        <ele>215.255989</ele>
        <time>2025-10-05T17:59:42.020Z</time>
      </trkpt>
      <trkpt lat="51.830643" lon="8.879111">
        <ele>215.029416</ele>
        <time>2025-10-05T17:59:48.190Z</time>
      </trkpt>
      <trkpt lat="51.830510" lon="8.878902">
        <ele>214.889359</ele>
        <time>2025-10-05T17:59:51.907Z</time>
      </trkpt>
      <trkpt lat="51.830404" lon="8.878717">
        <ele>214.771578</ele>
        <time>2025-10-05T17:59:54.855Z</time>
      </trkpt>
      <trkpt lat="51.830327" lon="8.878581">
        <ele>214.674991</ele>
        <time>2025-10-05T17:59:56.852Z</time>
      </trkpt>
      <trkpt lat="51.830278" lon="8.878495">
        <ele>214.529592</ele>
        <time>2025-10-05T17:59:58.103Z</time>
      </trkpt>
      <trkpt lat="51.830194" lon="8.878350">
        <ele>214.282548</ele>
        <time>2025-10-05T18:00:00.219Z</time>
      </trkpt>
      <trkpt lat="51.830141" lon="8.878260">
        <ele>214.128019</ele>
        <time>2025-10-05T18:00:01.557Z</time>
      </trkpt>
      <trkpt lat="51.830017" lon="8.878047">
        <ele>213.764282</ele>
        <time>2025-10-05T18:00:04.671Z</time>
      </trkpt>
      <trkpt lat="51.829529" lon="8.877247">
        <ele>212.367033</ele>
        <time>2025-10-05T18:00:16.606Z</time>
      </trkpt>
      <trkpt lat="51.829497" lon="8.877198">
        <ele>212.278418</ele>
        <time>2025-10-05T18:00:17.376Z</time>
      </trkpt>
      <trkpt lat="51.829314" lon="8.876938">
        <ele>211.788587</ele>
        <time>2025-10-05T18:00:21.471Z</time>
      </trkpt>
      <trkpt lat="51.829219" lon="8.876803">
        <ele>211.534281</ele>
        <time>2025-10-05T18:00:23.587Z</time>
      </trkpt>
      <trkpt lat="51.829208" lon="8.876788">
        <ele>211.505347</ele>
        <time>2025-10-05T18:00:23.845Z</time>
      </trkpt>
      <trkpt lat="51.829176" lon="8.876748">
        <ele>211.424014</ele>
        <time>2025-10-05T18:00:24.513Z</time>
      </trkpt>
      <trkpt lat="51.829162" lon="8.876728">
        <ele>211.386451</ele>
        <time>2025-10-05T18:00:24.829Z</time>
      </trkpt>
      <trkpt lat="51.828940" lon="8.876326">
        <ele>211.121658</ele>
        <time>2025-10-05T18:00:30.799Z</time>
      </trkpt>
      <trkpt lat="51.828830" lon="8.876032">
        <ele>211.178532</ele>
        <time>2025-10-05T18:00:34.889Z</time>
      </trkpt>
      <trkpt lat="51.828809" lon="8.875961">
        <ele>211.191558</ele>
        <time>2025-10-05T18:00:35.793Z</time>
      </trkpt>
      <trkpt lat="51.828747" lon="8.875733">
        <ele>211.232779</ele>
        <time>2025-10-05T18:00:38.951Z</time>
      </trkpt>
      <trkpt lat="51.828738" lon="8.875629">
        <ele>211.250158</ele>
        <time>2025-10-05T18:00:40.290Z</time>
      </trkpt>
      <trkpt lat="51.828683" lon="8.875561">
        <ele>211.268692</ele>
        <time>2025-10-05T18:00:41.835Z</time>
      </trkpt>
      <trkpt lat="51.828652" lon="8.875487">
        <ele>211.283486</ele>
        <time>2025-10-05T18:00:43.026Z</time>
      </trkpt>
      <trkpt lat="51.828621" lon="8.875398">
        <ele>211.300393</ele>
        <time>2025-10-05T18:00:44.455Z</time>
      </trkpt>
      <trkpt lat="51.828476" lon="8.874956">
        <ele>211.383204</ele>
        <time>2025-10-05T18:00:51.589Z</time>
      </trkpt>
      <trkpt lat="51.828244" lon="8.874372">
        <ele>211.498092</ele>
        <time>2025-10-05T18:01:01.646Z</time>
      </trkpt>
      <trkpt lat="51.828037" lon="8.873944">
        <ele>211.319054</ele>
        <time>2025-10-05T18:01:09.180Z</time>
      </trkpt>
      <trkpt lat="51.828016" lon="8.873902">
        <ele>211.253715</ele>
        <time>2025-10-05T18:01:09.908Z</time>
      </trkpt>
      <trkpt lat="51.828003" lon="8.873874">
        <ele>211.211358</ele>
        <time>2025-10-05T18:01:10.411Z</time>
      </trkpt>
      <trkpt lat="51.827818" lon="8.873499">
        <ele>210.631032</ele>
        <time>2025-10-05T18:01:16.668Z</time>
      </trkpt>
      <trkpt lat="51.827719" lon="8.873230">
        <ele>210.252370</ele>
        <time>2025-10-05T18:01:20.466Z</time>
      </trkpt>
      <trkpt lat="51.827650" lon="8.872986">
        <ele>209.927834</ele>
        <time>2025-10-05T18:01:23.609Z</time>
      </trkpt>
      <trkpt lat="51.827638" lon="8.872916">
        <ele>209.839975</ele>
        <time>2025-10-05T18:01:24.412Z</time>
      </trkpt>
      <trkpt lat="51.827588" lon="8.872629">
        <ele>209.479330</ele>
        <time>2025-10-05T18:01:27.785Z</time>
      </trkpt>
      <trkpt lat="51.827448" lon="8.871896">
        <ele>208.551418</ele>
        <time>2025-10-05T18:01:35.336Z</time>
      </trkpt>
      <trkpt lat="51.827366" lon="8.871588">
        <ele>208.145807</ele>
        <time>2025-10-05T18:01:38.507Z</time>
      </trkpt>
      <trkpt lat="51.827331" lon="8.871474">
        <ele>207.945333</ele>
        <time>2025-10-05T18:01:39.684Z</time>
      </trkpt>
      <trkpt lat="51.827263" lon="8.871244">
        <ele>207.310253</ele>
        <time>2025-10-05T18:01:42.027Z</time>
      </trkpt>
      <trkpt lat="51.827177" lon="8.870956">
        <ele>206.513534</ele>
        <time>2025-10-05T18:01:44.971Z</time>
      </trkpt>
      <trkpt lat="51.827126" lon="8.870807">
        <ele>206.089275</ele>
        <time>2025-10-05T18:01:46.557Z</time>
      </trkpt>
      <trkpt lat="51.827001" lon="8.870514">
        <ele>205.202451</ele>
        <time>2025-10-05T18:01:49.908Z</time>
      </trkpt>
      <trkpt lat="51.826948" lon="8.870299">
        <ele>204.625881</ele>
        <time>2025-10-05T18:01:52.110Z</time>
      </trkpt>
      <trkpt lat="51.826902" lon="8.870114">
        <ele>204.129169</ele>
        <time>2025-10-05T18:01:54.033Z</time>
      </trkpt>
      <trkpt lat="51.826873" lon="8.870024">
        <ele>203.876349</ele>
        <time>2025-10-05T18:01:55.029Z</time>
      </trkpt>
      <trkpt lat="51.826842" lon="8.869925">
        <ele>203.599906</ele>
        <time>2025-10-05T18:01:56.114Z</time>
      </trkpt>
      <trkpt lat="51.826776" lon="8.869724">
        <ele>203.032959</ele>
        <time>2025-10-05T18:01:58.410Z</time>
      </trkpt>
      <trkpt lat="51.826735" lon="8.869599">
        <ele>202.680464</ele>
        <time>2025-10-05T18:01:59.840Z</time>
      </trkpt>
      <trkpt lat="51.826701" lon="8.869493">
        <ele>202.382987</ele>
        <time>2025-10-05T18:02:01.033Z</time>
      </trkpt>
      <trkpt lat="51.826613" lon="8.869226">
        <ele>201.629255</ele>
        <time>2025-10-05T18:02:04.034Z</time>
      </trkpt>
      <trkpt lat="51.826562" lon="8.869068">
        <ele>201.185248</ele>
        <time>2025-10-05T18:02:05.823Z</time>
      </trkpt>
      <trkpt lat="51.826497" lon="8.868871">
        <ele>200.740020</ele>
        <time>2025-10-05T18:02:08.059Z</time>
      </trkpt>
      <trkpt lat="51.826492" lon="8.868857">
        <ele>200.728108</ele>
        <time>2025-10-05T18:02:08.219Z</time>
      </trkpt>
      <trkpt lat="51.826344" lon="8.868411">
        <ele>200.355185</ele>
        <time>2025-10-05T18:02:13.384Z</time>
      </trkpt>
      <trkpt lat="51.826253" lon="8.868139">
        <ele>200.127333</ele>
        <time>2025-10-05T18:02:16.574Z</time>
      </trkpt>
      <trkpt lat="51.826191" lon="8.867941">
        <ele>199.963817</ele>
        <time>2025-10-05T18:02:18.921Z</time>
      </trkpt>
      <trkpt lat="51.826164" lon="8.867855">
        <ele>199.892756</ele>
        <time>2025-10-05T18:02:19.947Z</time>
      </trkpt>
      <trkpt lat="51.826027" lon="8.867400">
        <ele>199.519902</ele>
        <time>2025-10-05T18:02:25.706Z</time>
      </trkpt>
      <trkpt lat="51.825997" lon="8.867295">
        <ele>199.434685</ele>
        <time>2025-10-05T18:02:27.224Z</time>
      </trkpt>
      <trkpt lat="51.825975" lon="8.867208">
        <ele>199.365436</ele>
        <time>2025-10-05T18:02:28.408Z</time>
      </trkpt>
      <trkpt lat="51.825883" lon="8.866755">
        <ele>199.014160</ele>
        <time>2025-10-05T18:02:34.924Z</time>
      </trkpt>
      <trkpt lat="51.825868" lon="8.866676">
        <ele>198.953277</ele>
        <time>2025-10-05T18:02:36.089Z</time>
      </trkpt>
      <trkpt lat="51.825828" lon="8.866503">
        <ele>198.817203</ele>
        <time>2025-10-05T18:02:38.653Z</time>
      </trkpt>
      <trkpt lat="51.825770" lon="8.866255">
        <ele>198.634278</ele>
        <time>2025-10-05T18:02:42.324Z</time>
      </trkpt>
      <trkpt lat="51.825710" lon="8.866039">
        <ele>198.563523</ele>
        <time>2025-10-05T18:02:45.613Z</time>
      </trkpt>
      <trkpt lat="51.825649" lon="8.865884">
        <ele>198.508620</ele>
        <time>2025-10-05T18:02:48.149Z</time>
      </trkpt>
      <trkpt lat="51.825631" lon="8.865844">
        <ele>198.493836</ele>
        <time>2025-10-05T18:02:48.855Z</time>
      </trkpt>
      <trkpt lat="51.825609" lon="8.865795">
        <ele>198.475741</ele>
        <time>2025-10-05T18:02:49.685Z</time>
      </trkpt>
      <trkpt lat="51.825536" lon="8.865605">
        <ele>198.408897</ele>
        <time>2025-10-05T18:02:52.773Z</time>
      </trkpt>
      <trkpt lat="51.825433" lon="8.865325">
        <ele>198.311541</ele>
        <time>2025-10-05T18:02:57.228Z</time>
      </trkpt>
      <trkpt lat="51.825320" lon="8.865008">
        <ele>198.202203</ele>
        <time>2025-10-05T18:03:01.979Z</time>
      </trkpt>
      <trkpt lat="51.825242" lon="8.864525">
        <ele>198.053045</ele>
        <time>2025-10-05T18:03:08.198Z</time>
      </trkpt>
      <trkpt lat="51.825281" lon="8.863610">
        <ele>197.779008</ele>
        <time>2025-10-05T18:03:18.431Z</time>
      </trkpt>
      <trkpt lat="51.825287" lon="8.863497">
        <ele>197.666853</ele>
        <time>2025-10-05T18:03:19.570Z</time>
      </trkpt>
      <trkpt lat="51.825309" lon="8.862821">
        <ele>196.901741</ele>
        <time>2025-10-05T18:03:26.518Z</time>
      </trkpt>
      <trkpt lat="51.825257" lon="8.862120">
        <ele>196.103746</ele>
        <time>2025-10-05T18:03:34.328Z</time>
      </trkpt>
      <trkpt lat="51.825187" lon="8.862113">
        <ele>195.975491</ele>
        <time>2025-10-05T18:03:35.616Z</time>
      </trkpt>
      <trkpt lat="51.824851" lon="8.861052">
        <ele>194.628032</ele>
        <time>2025-10-05T18:03:49.427Z</time>
      </trkpt>
      <trkpt lat="51.824530" lon="8.860121">
        <ele>193.338475</ele>
        <time>2025-10-05T18:04:01.008Z</time>
      </trkpt>
      <trkpt lat="51.824496" lon="8.860027">
        <ele>193.205555</ele>
        <time>2025-10-05T18:04:02.164Z</time>
      </trkpt>
      <trkpt lat="51.824145" lon="8.858956">
        <ele>191.726101</ele>
        <time>2025-10-05T18:04:14.683Z</time>
      </trkpt>
      <trkpt lat="51.824101" lon="8.858786">
        <ele>191.501171</ele>
        <time>2025-10-05T18:04:16.609Z</time>
      </trkpt>
      <trkpt lat="51.824051" lon="8.858647">
        <ele>191.304894</ele>
        <time>2025-10-05T18:04:18.314Z</time>
      </trkpt>
      <trkpt lat="51.822911" lon="8.855330">
        <ele>189.877905</ele>
        <time>2025-10-05T18:05:06.230Z</time>
      </trkpt>
      <trkpt lat="51.822645" lon="8.854668">
        <ele>189.709344</ele>
        <time>2025-10-05T18:05:16.782Z</time>
      </trkpt>
      <trkpt lat="51.822379" lon="8.854145">
        <ele>189.564755</ele>
        <time>2025-10-05T18:05:25.588Z</time>
      </trkpt>
      <trkpt lat="51.822054" lon="8.853638">
        <ele>189.408822</ele>
        <time>2025-10-05T18:05:34.708Z</time>
      </trkpt>
      <trkpt lat="51.821674" lon="8.853148">
        <ele>188.495911</ele>
        <time>2025-10-05T18:05:43.542Z</time>
      </trkpt>
      <trkpt lat="51.821238" lon="8.852685">
        <ele>187.354039</ele>
        <time>2025-10-05T18:05:52.541Z</time>
      </trkpt>
      <trkpt lat="51.820580" lon="8.852199">
        <ele>185.770344</ele>
        <time>2025-10-05T18:06:04.726Z</time>
      </trkpt>
      <trkpt lat="51.819385" lon="8.851507">
        <ele>182.305689</ele>
        <time>2025-10-05T18:06:25.811Z</time>
      </trkpt>
      <trkpt lat="51.819309" lon="8.851454">
        <ele>182.073798</ele>
        <time>2025-10-05T18:06:27.179Z</time>
      </trkpt>
      <trkpt lat="51.819241" lon="8.851417">
        <ele>181.872777</ele>
        <time>2025-10-05T18:06:28.356Z</time>
      </trkpt>
      <trkpt lat="51.819070" lon="8.851441">
        <ele>181.391845</ele>
        <time>2025-10-05T18:06:31.204Z</time>
      </trkpt>
      <trkpt lat="51.819013" lon="8.851418">
        <ele>181.227241</ele>
        <time>2025-10-05T18:06:32.173Z</time>
      </trkpt>
      <trkpt lat="51.818182" lon="8.850957">
        <ele>179.093505</ele>
        <time>2025-10-05T18:06:46.922Z</time>
      </trkpt>
      <trkpt lat="51.817922" lon="8.850817">
        <ele>178.479434</ele>
        <time>2025-10-05T18:06:51.582Z</time>
      </trkpt>
      <trkpt lat="51.817230" lon="8.850451">
        <ele>176.847931</ele>
        <time>2025-10-05T18:07:04.356Z</time>
      </trkpt>
      <trkpt lat="51.817109" lon="8.850244">
        <ele>176.453277</ele>
        <time>2025-10-05T18:07:07.567Z</time>
      </trkpt>
      <trkpt lat="51.816211" lon="8.849745">
        <ele>174.835807</ele>
        <time>2025-10-05T18:07:24.912Z</time>
      </trkpt>
      <trkpt lat="51.815858" lon="8.849549">
        <ele>174.207986</ele>
        <time>2025-10-05T18:07:31.711Z</time>
      </trkpt>
      <trkpt lat="51.815387" lon="8.849293">
        <ele>173.372144</ele>
        <time>2025-10-05T18:07:40.583Z</time>
      </trkpt>
      <trkpt lat="51.815346" lon="8.849184">
        <ele>173.237533</ele>
        <time>2025-10-05T18:07:42.048Z</time>
      </trkpt>
      <trkpt lat="51.815305" lon="8.849108">
        <ele>173.130750</ele>
        <time>2025-10-05T18:07:43.220Z</time>
      </trkpt>
      <trkpt lat="51.815110" lon="8.848995">
        <ele>172.776043</ele>
        <time>2025-10-05T18:07:47.064Z</time>
      </trkpt>
      <trkpt lat="51.814973" lon="8.848956">
        <ele>172.537833</ele>
        <time>2025-10-05T18:07:49.639Z</time>
      </trkpt>
      <trkpt lat="51.814969" lon="8.848950">
        <ele>172.528492</ele>
        <time>2025-10-05T18:07:49.738Z</time>
      </trkpt>
      <trkpt lat="51.814932" lon="8.848926">
        <ele>172.460227</ele>
        <time>2025-10-05T18:07:50.439Z</time>
      </trkpt>
      <trkpt lat="51.814870" lon="8.848968">
        <ele>172.345121</ele>
        <time>2025-10-05T18:07:51.606Z</time>
      </trkpt>
      <trkpt lat="51.814830" lon="8.848932">
        <ele>172.266735</ele>
        <time>2025-10-05T18:07:52.412Z</time>
      </trkpt>
      <trkpt lat="51.814817" lon="8.848922">
        <ele>172.242085</ele>
        <time>2025-10-05T18:07:52.655Z</time>
      </trkpt>
      <trkpt lat="51.814795" lon="8.848905">
        <ele>172.200333</ele>
        <time>2025-10-05T18:07:53.091Z</time>
      </trkpt>
      <trkpt lat="51.814724" lon="8.848859">
        <ele>172.069360</ele>
        <time>2025-10-05T18:07:54.428Z</time>
      </trkpt>
      <trkpt lat="51.814417" lon="8.848691">
        <ele>171.514370</ele>
        <time>2025-10-05T18:08:00.194Z</time>
      </trkpt>
      <trkpt lat="51.814211" lon="8.848570">
        <ele>171.139070</ele>
        <time>2025-10-05T18:08:04.174Z</time>
      </trkpt>
      <trkpt lat="51.813930" lon="8.848418">
        <ele>170.631680</ele>
        <time>2025-10-05T18:08:09.623Z</time>
      </trkpt>
      <trkpt lat="51.813710" lon="8.848302">
        <ele>170.241931</ele>
        <time>2025-10-05T18:08:13.899Z</time>
      </trkpt>
      <trkpt lat="51.813361" lon="8.848107">
        <ele>169.742167</ele>
        <time>2025-10-05T18:08:20.876Z</time>
      </trkpt>
      <trkpt lat="51.813103" lon="8.847963">
        <ele>169.372756</ele>
        <time>2025-10-05T18:08:26.016Z</time>
      </trkpt>
      <trkpt lat="51.812698" lon="8.847736">
        <ele>168.792605</ele>
        <time>2025-10-05T18:08:34.023Z</time>
      </trkpt>
      <trkpt lat="51.812543" lon="8.847650">
        <ele>168.570811</ele>
        <time>2025-10-05T18:08:37.086Z</time>
      </trkpt>
      <trkpt lat="51.812512" lon="8.847632">
        <ele>168.526231</ele>
        <time>2025-10-05T18:08:37.711Z</time>
      </trkpt>
      <trkpt lat="51.812375" lon="8.847559">
        <ele>168.330997</ele>
        <time>2025-10-05T18:08:40.428Z</time>
      </trkpt>
      <trkpt lat="51.812238" lon="8.847486">
        <ele>168.135763</ele>
        <time>2025-10-05T18:08:43.135Z</time>
      </trkpt>
      <trkpt lat="51.812157" lon="8.847429">
        <ele>168.016202</ele>
        <time>2025-10-05T18:08:44.796Z</time>
      </trkpt>
      <trkpt lat="51.811979" lon="8.847279">
        <ele>167.799303</ele>
        <time>2025-10-05T18:08:48.540Z</time>
      </trkpt>
      <trkpt lat="51.811898" lon="8.847203">
        <ele>167.751966</ele>
        <time>2025-10-05T18:08:50.274Z</time>
      </trkpt>
      <trkpt lat="51.811734" lon="8.847024">
        <ele>167.651952</ele>
        <time>2025-10-05T18:08:53.928Z</time>
      </trkpt>
      <trkpt lat="51.811388" lon="8.846479">
        <ele>167.407810</ele>
        <time>2025-10-05T18:09:03.268Z</time>
      </trkpt>
      <trkpt lat="51.811362" lon="8.846425">
        <ele>167.386418</ele>
        <time>2025-10-05T18:09:04.118Z</time>
      </trkpt>
      <trkpt lat="51.811267" lon="8.846224">
        <ele>167.307345</ele>
        <time>2025-10-05T18:09:07.326Z</time>
      </trkpt>
      <trkpt lat="51.811065" lon="8.845748">
        <ele>167.126904</ele>
        <time>2025-10-05T18:09:14.887Z</time>
      </trkpt>
      <trkpt lat="51.811033" lon="8.845629">
        <ele>167.086346</ele>
        <time>2025-10-05T18:09:16.588Z</time>
      </trkpt>
      <trkpt lat="51.810978" lon="8.845487">
        <ele>167.033976</ele>
        <time>2025-10-05T18:09:18.829Z</time>
      </trkpt>
      <trkpt lat="51.810991" lon="8.845410">
        <ele>167.009030</ele>
        <time>2025-10-05T18:09:19.884Z</time>
      </trkpt>
      <trkpt lat="51.810977" lon="8.845328">
        <ele>166.982442</ele>
        <time>2025-10-05T18:09:21.020Z</time>
      </trkpt>
      <trkpt lat="51.810938" lon="8.845270">
        <ele>166.955660</ele>
        <time>2025-10-05T18:09:22.163Z</time>
      </trkpt>
      <trkpt lat="51.810880" lon="8.845256">
        <ele>166.926016</ele>
        <time>2025-10-05T18:09:23.436Z</time>
      </trkpt>
      <trkpt lat="51.810811" lon="8.845334">
        <ele>166.925180</ele>
        <time>2025-10-05T18:09:25.267Z</time>
      </trkpt>
      <trkpt lat="51.810800" lon="8.845384">
        <ele>166.926225</ele>
        <time>2025-10-05T18:09:25.987Z</time>
      </trkpt>
      <trkpt lat="51.810801" lon="8.845439">
        <ele>166.927308</ele>
        <time>2025-10-05T18:09:26.702Z</time>
      </trkpt>
      <trkpt lat="51.810691" lon="8.845448">
        <ele>166.930814</ele>
        <time>2025-10-05T18:09:29.769Z</time>
      </trkpt>
      <trkpt lat="51.810446" lon="8.845573">
        <ele>166.938993</ele>
        <time>2025-10-05T18:09:36.918Z</time>
      </trkpt>
      <trkpt lat="51.810099" lon="8.845828">
        <ele>166.951127</ele>
        <time>2025-10-05T18:09:47.414Z</time>
      </trkpt>
      <trkpt lat="51.810446" lon="8.845573">
        <ele>166.963261</ele>
        <time>2025-10-05T18:09:57.840Z</time>
      </trkpt>
      <trkpt lat="51.810691" lon="8.845448">
        <ele>166.971439</ele>
        <time>2025-10-05T18:10:04.866Z</time>
      </trkpt>
      <trkpt lat="51.810702" lon="8.845531">
        <ele>166.973110</ele>
        <time>2025-10-05T18:10:06.296Z</time>
      </trkpt>
      <trkpt lat="51.810962" lon="8.845704">
        <ele>167.022019</ele>
        <time>2025-10-05T18:10:13.984Z</time>
      </trkpt>
      <trkpt lat="51.810985" lon="8.845686">
        <ele>167.038381</ele>
        <time>2025-10-05T18:10:14.519Z</time>
      </trkpt>
      <trkpt lat="51.811065" lon="8.845748">
        <ele>167.095188</ele>
        <time>2025-10-05T18:10:16.351Z</time>
      </trkpt>
      <trkpt lat="51.811267" lon="8.846224">
        <ele>167.323766</ele>
        <time>2025-10-05T18:10:23.808Z</time>
      </trkpt>
      <trkpt lat="51.811362" lon="8.846425">
        <ele>167.423933</ele>
        <time>2025-10-05T18:10:27.171Z</time>
      </trkpt>
      <trkpt lat="51.811388" lon="8.846479">
        <ele>167.451031</ele>
        <time>2025-10-05T18:10:28.090Z</time>
      </trkpt>
      <trkpt lat="51.811734" lon="8.847024">
        <ele>167.760303</ele>
        <time>2025-10-05T18:10:38.884Z</time>
      </trkpt>
      <trkpt lat="51.811898" lon="8.847203">
        <ele>167.886998</ele>
        <time>2025-10-05T18:10:43.410Z</time>
      </trkpt>
      <trkpt lat="51.811979" lon="8.847279">
        <ele>167.946963</ele>
        <time>2025-10-05T18:10:45.562Z</time>
      </trkpt>
      <trkpt lat="51.812157" lon="8.847429">
        <ele>168.075491</ele>
        <time>2025-10-05T18:10:50.155Z</time>
      </trkpt>
      <trkpt lat="51.812238" lon="8.847486">
        <ele>168.132383</ele>
        <time>2025-10-05T18:10:52.175Z</time>
      </trkpt>
      <trkpt lat="51.812375" lon="8.847559">
        <ele>168.328599</ele>
        <time>2025-10-05T18:10:55.447Z</time>
      </trkpt>
      <trkpt lat="51.812512" lon="8.847632">
        <ele>168.524815</ele>
        <time>2025-10-05T18:10:58.738Z</time>
      </trkpt>
      <trkpt lat="51.812543" lon="8.847650">
        <ele>168.569620</ele>
        <time>2025-10-05T18:10:59.503Z</time>
      </trkpt>
      <trkpt lat="51.812698" lon="8.847736">
        <ele>168.792530</ele>
        <time>2025-10-05T18:11:03.225Z</time>
      </trkpt>
      <trkpt lat="51.813103" lon="8.847963">
        <ele>169.375599</ele>
        <time>2025-10-05T18:11:13.035Z</time>
      </trkpt>
      <trkpt lat="51.813361" lon="8.848107">
        <ele>169.746868</ele>
        <time>2025-10-05T18:11:19.265Z</time>
      </trkpt>
      <trkpt lat="51.813710" lon="8.848302">
        <ele>170.249146</ele>
        <time>2025-10-05T18:11:27.676Z</time>
      </trkpt>
      <trkpt lat="51.813930" lon="8.848418">
        <ele>170.563916</ele>
        <time>2025-10-05T18:11:32.961Z</time>
      </trkpt>
      <trkpt lat="51.814211" lon="8.848570">
        <ele>171.059780</ele>
        <time>2025-10-05T18:11:39.772Z</time>
      </trkpt>
      <trkpt lat="51.814417" lon="8.848691">
        <ele>171.429134</ele>
        <time>2025-10-05T18:11:44.785Z</time>
      </trkpt>
      <trkpt lat="51.814724" lon="8.848859">
        <ele>171.975330</ele>
        <time>2025-10-05T18:11:52.281Z</time>
      </trkpt>
      <trkpt lat="51.814795" lon="8.848905">
        <ele>172.104228</ele>
        <time>2025-10-05T18:11:54.068Z</time>
      </trkpt>
      <trkpt lat="51.814817" lon="8.848922">
        <ele>172.145318</ele>
        <time>2025-10-05T18:11:54.646Z</time>
      </trkpt>
      <trkpt lat="51.814830" lon="8.848932">
        <ele>172.169578</ele>
        <time>2025-10-05T18:11:54.968Z</time>
      </trkpt>
      <trkpt lat="51.814819" lon="8.848976">
        <ele>172.219026</ele>
        <time>2025-10-05T18:11:55.794Z</time>
      </trkpt>
      <trkpt lat="51.814808" lon="8.849019">
        <ele>172.267511</ele>
        <time>2025-10-05T18:11:56.607Z</time>
      </trkpt>
      <trkpt lat="51.814818" lon="8.849056">
        <ele>172.309583</ele>
        <time>2025-10-05T18:11:57.316Z</time>
      </trkpt>
      <trkpt lat="51.814830" lon="8.849096">
        <ele>172.355905</ele>
        <time>2025-10-05T18:11:58.111Z</time>
      </trkpt>
      <trkpt lat="51.814850" lon="8.849166">
        <ele>172.436248</ele>
        <time>2025-10-05T18:11:59.444Z</time>
      </trkpt>
      <trkpt lat="51.814887" lon="8.849194">
        <ele>172.505091</ele>
        <time>2025-10-05T18:12:00.587Z</time>
      </trkpt>
      <trkpt lat="51.814916" lon="8.849273">
        <ele>172.600816</ele>
        <time>2025-10-05T18:12:02.202Z</time>
      </trkpt>
      <trkpt lat="51.814949" lon="8.849252">
        <ele>172.660580</ele>
        <time>2025-10-05T18:12:03.198Z</time>
      </trkpt>
      <trkpt lat="51.814980" lon="8.849235">
        <ele>172.715745</ele>
        <time>2025-10-05T18:12:04.126Z</time>
      </trkpt>
      <trkpt lat="51.814984" lon="8.849170">
        <ele>172.783801</ele>
        <time>2025-10-05T18:12:05.250Z</time>
      </trkpt>
      <trkpt lat="51.815029" lon="8.849136">
        <ele>172.867505</ele>
        <time>2025-10-05T18:12:06.661Z</time>
      </trkpt>
      <trkpt lat="51.815321" lon="8.849262">
        <ele>173.376823</ele>
        <time>2025-10-05T18:12:15.161Z</time>
      </trkpt>
      <trkpt lat="51.815387" lon="8.849293">
        <ele>173.492648</ele>
        <time>2025-10-05T18:12:17.080Z</time>
      </trkpt>
      <trkpt lat="51.815858" lon="8.849549">
        <ele>174.301070</ele>
        <time>2025-10-05T18:12:28.572Z</time>
      </trkpt>
      <trkpt lat="51.816211" lon="8.849745">
        <ele>174.904756</ele>
        <time>2025-10-05T18:12:37.150Z</time>
      </trkpt>
      <trkpt lat="51.817109" lon="8.850244">
        <ele>176.440605</ele>
        <time>2025-10-05T18:12:58.956Z</time>
      </trkpt>
      <trkpt lat="51.817230" lon="8.850451">
        <ele>176.811068</ele>
        <time>2025-10-05T18:13:02.992Z</time>
      </trkpt>
      <trkpt lat="51.817922" lon="8.850817">
        <ele>178.477222</ele>
        <time>2025-10-05T18:13:20.037Z</time>
      </trkpt>
      <trkpt lat="51.818182" lon="8.850957">
        <ele>179.104335</ele>
        <time>2025-10-05T18:13:26.550Z</time>
      </trkpt>
      <trkpt lat="51.819013" lon="8.851418">
        <ele>181.222246</ele>
        <time>2025-10-05T18:13:47.617Z</time>
      </trkpt>
      <trkpt lat="51.819070" lon="8.851441">
        <ele>181.386814</ele>
        <time>2025-10-05T18:13:49.024Z</time>
      </trkpt>
      <trkpt lat="51.819241" lon="8.851417">
        <ele>181.867642</ele>
        <time>2025-10-05T18:13:53.184Z</time>
      </trkpt>
      <trkpt lat="51.819309" lon="8.851454">
        <ele>182.068620</ele>
        <time>2025-10-05T18:13:54.910Z</time>
      </trkpt>
      <trkpt lat="51.819385" lon="8.851507">
        <ele>182.300460</ele>
        <time>2025-10-05T18:13:56.924Z</time>
      </trkpt>
      <trkpt lat="51.820580" lon="8.852199">
        <ele>185.811393</ele>
        <time>2025-10-05T18:14:27.515Z</time>
      </trkpt>
      <trkpt lat="51.821238" lon="8.852685">
        <ele>187.340645</ele>
        <time>2025-10-05T18:14:44.818Z</time>
      </trkpt>
      <trkpt lat="51.821674" lon="8.853148">
        <ele>188.443263</ele>
        <time>2025-10-05T18:14:57.129Z</time>
      </trkpt>
      <trkpt lat="51.822054" lon="8.853638">
        <ele>189.470615</ele>
        <time>2025-10-05T18:15:08.335Z</time>
      </trkpt>
      <trkpt lat="51.822379" lon="8.854145">
        <ele>189.611151</ele>
        <time>2025-10-05T18:15:18.222Z</time>
      </trkpt>
      <trkpt lat="51.822645" lon="8.854668">
        <ele>189.736680</ele>
        <time>2025-10-05T18:15:27.043Z</time>
      </trkpt>
      <trkpt lat="51.822911" lon="8.855330">
        <ele>189.883021</ele>
        <time>2025-10-05T18:15:37.064Z</time>
      </trkpt>
      <trkpt lat="51.824051" lon="8.858647">
        <ele>191.253652</ele>
        <time>2025-10-05T18:16:27.995Z</time>
      </trkpt>
      <trkpt lat="51.824101" lon="8.858786">
        <ele>191.452176</ele>
        <time>2025-10-05T18:16:30.344Z</time>
      </trkpt>
      <trkpt lat="51.824145" lon="8.858956">
        <ele>191.679680</ele>
        <time>2025-10-05T18:16:33.053Z</time>
      </trkpt>
      <trkpt lat="51.824496" lon="8.860027">
        <ele>193.176069</ele>
        <time>2025-10-05T18:16:51.065Z</time>
      </trkpt>
      <trkpt lat="51.824530" lon="8.860121">
        <ele>193.310510</ele>
        <time>2025-10-05T18:16:52.653Z</time>
      </trkpt>
      <trkpt lat="51.824851" lon="8.861052">
        <ele>194.626442</ele>
        <time>2025-10-05T18:17:08.070Z</time>
      </trkpt>
      <trkpt lat="51.825187" lon="8.862113">
        <ele>195.973635</ele>
        <time>2025-10-05T18:17:24.887Z</time>
      </trkpt>
      <trkpt lat="51.825257" lon="8.862120">
        <ele>196.101767</ele>
        <time>2025-10-05T18:17:26.509Z</time>
      </trkpt>
      <trkpt lat="51.825309" lon="8.862821">
        <ele>196.899000</ele>
        <time>2025-10-05T18:17:36.641Z</time>
      </trkpt>
      <trkpt lat="51.825287" lon="8.863497">
        <ele>197.663381</ele>
        <time>2025-10-05T18:17:46.733Z</time>
      </trkpt>
      <trkpt lat="51.825281" lon="8.863610">
        <ele>197.791448</ele>
        <time>2025-10-05T18:17:48.433Z</time>
      </trkpt>
      <trkpt lat="51.825242" lon="8.864525">
        <ele>198.111798</ele>
        <time>2025-10-05T18:18:01.550Z</time>
      </trkpt>
      <trkpt lat="51.825320" lon="8.865008">
        <ele>198.228781</ele>
        <time>2025-10-05T18:18:08.303Z</time>
      </trkpt>
      <trkpt lat="51.825433" lon="8.865325">
        <ele>198.314534</ele>
        <time>2025-10-05T18:18:13.093Z</time>
      </trkpt>
      <trkpt lat="51.825536" lon="8.865605">
        <ele>198.390889</ele>
        <time>2025-10-05T18:18:17.118Z</time>
      </trkpt>
      <trkpt lat="51.825609" lon="8.865795">
        <ele>198.443314</ele>
        <time>2025-10-05T18:18:19.830Z</time>
      </trkpt>
      <trkpt lat="51.825631" lon="8.865844">
        <ele>198.457506</ele>
        <time>2025-10-05T18:18:20.534Z</time>
      </trkpt>
      <trkpt lat="51.825649" lon="8.865884">
        <ele>198.469100</ele>
        <time>2025-10-05T18:18:21.155Z</time>
      </trkpt>
      <trkpt lat="51.825710" lon="8.866039">
        <ele>198.512160</ele>
        <time>2025-10-05T18:18:23.344Z</time>
      </trkpt>
      <trkpt lat="51.825770" lon="8.866255">
        <ele>198.567653</ele>
        <time>2025-10-05T18:18:26.198Z</time>
      </trkpt>
      <trkpt lat="51.825828" lon="8.866503">
        <ele>198.690043</ele>
        <time>2025-10-05T18:18:29.416Z</time>
      </trkpt>
      <trkpt lat="51.825868" lon="8.866676">
        <ele>198.844951</ele>
        <time>2025-10-05T18:18:31.622Z</time>
      </trkpt>
      <trkpt lat="51.825883" lon="8.866755">
        <ele>198.914260</ele>
        <time>2025-10-05T18:18:32.601Z</time>
      </trkpt>
      <trkpt lat="51.825975" lon="8.867208">
        <ele>199.314157</ele>
        <time>2025-10-05T18:18:38.456Z</time>
      </trkpt>
      <trkpt lat="51.825997" lon="8.867295">
        <ele>199.392990</ele>
        <time>2025-10-05T18:18:39.716Z</time>
      </trkpt>
      <trkpt lat="51.826027" lon="8.867400">
        <ele>199.490003</ele>
        <time>2025-10-05T18:18:41.235Z</time>
      </trkpt>
      <trkpt lat="51.826164" lon="8.867855">
        <ele>199.914464</ele>
        <time>2025-10-05T18:18:48.397Z</time>
      </trkpt>
      <trkpt lat="51.826191" lon="8.867941">
        <ele>199.995360</ele>
        <time>2025-10-05T18:18:49.819Z</time>
      </trkpt>
      <trkpt lat="51.826253" lon="8.868139">
        <ele>200.181509</ele>
        <time>2025-10-05T18:18:53.048Z</time>
      </trkpt>
      <trkpt lat="51.826344" lon="8.868411">
        <ele>200.440898</ele>
        <time>2025-10-05T18:18:57.651Z</time>
      </trkpt>
      <trkpt lat="51.826492" lon="8.868857">
        <ele>200.865439</ele>
        <time>2025-10-05T18:19:05.241Z</time>
      </trkpt>
      <trkpt lat="51.826497" lon="8.868871">
        <ele>200.878999</ele>
        <time>2025-10-05T18:19:05.479Z</time>
      </trkpt>
      <trkpt lat="51.826562" lon="8.869068">
        <ele>201.104949</ele>
        <time>2025-10-05T18:19:08.877Z</time>
      </trkpt>
      <trkpt lat="51.826613" lon="8.869226">
        <ele>201.555188</ele>
        <time>2025-10-05T18:19:11.584Z</time>
      </trkpt>
      <trkpt lat="51.826701" lon="8.869493">
        <ele>202.319500</ele>
        <time>2025-10-05T18:19:16.197Z</time>
      </trkpt>
      <trkpt lat="51.826735" lon="8.869599">
        <ele>202.621152</ele>
        <time>2025-10-05T18:19:18.030Z</time>
      </trkpt>
      <trkpt lat="51.826776" lon="8.869724">
        <ele>202.978594</ele>
        <time>2025-10-05T18:19:20.157Z</time>
      </trkpt>
      <trkpt lat="51.826842" lon="8.869925">
        <ele>203.553499</ele>
        <time>2025-10-05T18:19:23.608Z</time>
      </trkpt>
      <trkpt lat="51.826873" lon="8.870024">
        <ele>203.833823</ele>
        <time>2025-10-05T18:19:25.334Z</time>
      </trkpt>
      <trkpt lat="51.826902" lon="8.870114">
        <ele>204.090191</ele>
        <time>2025-10-05T18:19:26.875Z</time>
      </trkpt>
      <trkpt lat="51.826948" lon="8.870299">
        <ele>204.593875</ele>
        <time>2025-10-05T18:19:30.051Z</time>
      </trkpt>
      <trkpt lat="51.827001" lon="8.870514">
        <ele>205.178538</ele>
        <time>2025-10-05T18:19:33.762Z</time>
      </trkpt>
      <trkpt lat="51.827126" lon="8.870807">
        <ele>206.077810</ele>
        <time>2025-10-05T18:19:39.575Z</time>
      </trkpt>
      <trkpt lat="51.827177" lon="8.870956">
        <ele>206.508023</ele>
        <time>2025-10-05T18:19:42.412Z</time>
      </trkpt>
      <trkpt lat="51.827263" lon="8.871244">
        <ele>207.315925</ele>
        <time>2025-10-05T18:19:47.825Z</time>
      </trkpt>
      <trkpt lat="51.827331" lon="8.871474">
        <ele>207.959919</ele>
        <time>2025-10-05T18:19:52.171Z</time>
      </trkpt>
      <trkpt lat="51.827366" lon="8.871588">
        <ele>208.281436</ele>
        <time>2025-10-05T18:19:54.328Z</time>
      </trkpt>
      <trkpt lat="51.827448" lon="8.871896">
        <ele>208.705557</ele>
        <time>2025-10-05T18:19:59.737Z</time>
      </trkpt>
      <trkpt lat="51.827588" lon="8.872629">
        <ele>209.521539</ele>
        <time>2025-10-05T18:20:11.571Z</time>
      </trkpt>
      <trkpt lat="51.827638" lon="8.872916">
        <ele>209.838681</ele>
        <time>2025-10-05T18:20:15.822Z</time>
      </trkpt>
      <trkpt lat="51.827650" lon="8.872986">
        <ele>209.915942</ele>
        <time>2025-10-05T18:20:16.861Z</time>
      </trkpt>
      <trkpt lat="51.827719" lon="8.873230">
        <ele>210.201330</ele>
        <time>2025-10-05T18:20:20.616Z</time>
      </trkpt>
      <trkpt lat="51.827818" lon="8.873499">
        <ele>210.534316</ele>
        <time>2025-10-05T18:20:24.955Z</time>
      </trkpt>
      <trkpt lat="51.828003" lon="8.873874">
        <ele>211.044640</ele>
        <time>2025-10-05T18:20:31.179Z</time>
      </trkpt>
      <trkpt lat="51.828016" lon="8.873902">
        <ele>211.081887</ele>
        <time>2025-10-05T18:20:31.618Z</time>
      </trkpt>
      <trkpt lat="51.828037" lon="8.873944">
        <ele>211.139345</ele>
        <time>2025-10-05T18:20:32.266Z</time>
      </trkpt>
      <trkpt lat="51.828244" lon="8.874372">
        <ele>211.472976</ele>
        <time>2025-10-05T18:20:38.881Z</time>
      </trkpt>
      <trkpt lat="51.828476" lon="8.874956">
        <ele>211.406249</ele>
        <time>2025-10-05T18:20:46.366Z</time>
      </trkpt>
      <trkpt lat="51.828621" lon="8.875398">
        <ele>211.358151</ele>
        <time>2025-10-05T18:20:51.936Z</time>
      </trkpt>
      <trkpt lat="51.828652" lon="8.875487">
        <ele>211.348332</ele>
        <time>2025-10-05T18:20:53.139Z</time>
      </trkpt>
      <trkpt lat="51.828683" lon="8.875561">
        <ele>211.339740</ele>
        <time>2025-10-05T18:20:54.293Z</time>
      </trkpt>
      <trkpt lat="51.828698" lon="8.875663">
        <ele>211.329662</ele>
        <time>2025-10-05T18:20:55.569Z</time>
      </trkpt>
      <trkpt lat="51.828747" lon="8.875733">
        <ele>211.319497</ele>
        <time>2025-10-05T18:20:56.935Z</time>
      </trkpt>
      <trkpt lat="51.828809" lon="8.875961">
        <ele>211.295555</ele>
        <time>2025-10-05T18:21:00.274Z</time>
      </trkpt>
      <trkpt lat="51.828830" lon="8.876032">
        <ele>211.287989</ele>
        <time>2025-10-05T18:21:01.388Z</time>
      </trkpt>
      <trkpt lat="51.828940" lon="8.876326">
        <ele>211.254957</ele>
        <time>2025-10-05T18:21:06.194Z</time>
      </trkpt>
      <trkpt lat="51.829162" lon="8.876728">
        <ele>211.346980</ele>
        <time>2025-10-05T18:21:13.906Z</time>
      </trkpt>
      <trkpt lat="51.829176" lon="8.876748">
        <ele>211.384390</ele>
        <time>2025-10-05T18:21:14.349Z</time>
      </trkpt>
      <trkpt lat="51.829208" lon="8.876788">
        <ele>211.465391</ele>
        <time>2025-10-05T18:21:15.322Z</time>
      </trkpt>
      <trkpt lat="51.829219" lon="8.876803">
        <ele>211.494208</ele>
        <time>2025-10-05T18:21:15.673Z</time>
      </trkpt>
      <trkpt lat="51.829314" lon="8.876938">
        <ele>211.747479</ele>
        <time>2025-10-05T18:21:18.702Z</time>
      </trkpt>
      <trkpt lat="51.829497" lon="8.877198">
        <ele>212.235315</ele>
        <time>2025-10-05T18:21:24.508Z</time>
      </trkpt>
      <trkpt lat="51.829529" lon="8.877247">
        <ele>212.323569</ele>
        <time>2025-10-05T18:21:25.560Z</time>
      </trkpt>
      <trkpt lat="51.830017" lon="8.878047">
        <ele>213.715129</ele>
        <time>2025-10-05T18:21:41.976Z</time>
      </trkpt>
      <trkpt lat="51.830141" lon="8.878260">
        <ele>214.077384</ele>
        <time>2025-10-05T18:21:46.237Z</time>
      </trkpt>
      <trkpt lat="51.830194" lon="8.878350">
        <ele>214.231284</ele>
        <time>2025-10-05T18:21:48.045Z</time>
      </trkpt>
      <trkpt lat="51.830278" lon="8.878495">
        <ele>214.477323</ele>
        <time>2025-10-05T18:21:50.932Z</time>
      </trkpt>
      <trkpt lat="51.830327" lon="8.878581">
        <ele>214.622129</ele>
        <time>2025-10-05T18:21:52.639Z</time>
      </trkpt>
      <trkpt lat="51.830404" lon="8.878717">
        <ele>214.828891</ele>
        <time>2025-10-05T18:21:55.311Z</time>
      </trkpt>
      <trkpt lat="51.830510" lon="8.878902">
        <ele>214.942800</ele>
        <time>2025-10-05T18:21:58.867Z</time>
      </trkpt>
      <trkpt lat="51.830643" lon="8.879111">
        <ele>215.078255</ele>
        <time>2025-10-05T18:22:02.955Z</time>
      </trkpt>
      <trkpt lat="51.830860" lon="8.879446">
        <ele>215.297380</ele>
        <time>2025-10-05T18:22:09.411Z</time>
      </trkpt>
      <trkpt lat="51.830879" lon="8.879474">
        <ele>215.316156</ele>
        <time>2025-10-05T18:22:09.964Z</time>
      </trkpt>
      <trkpt lat="51.830890" lon="8.879491">
        <ele>215.327269</ele>
        <time>2025-10-05T18:22:10.285Z</time>
      </trkpt>
      <trkpt lat="51.831037" lon="8.879713">
        <ele>215.474179</ele>
        <time>2025-10-05T18:22:14.336Z</time>
      </trkpt>
      <trkpt lat="51.831129" lon="8.879852">
        <ele>215.566141</ele>
        <time>2025-10-05T18:22:16.970Z</time>
      </trkpt>
      <trkpt lat="51.831256" lon="8.880044">
        <ele>215.693126</ele>
        <time>2025-10-05T18:22:20.785Z</time>
      </trkpt>
      <trkpt lat="51.831279" lon="8.880079">
        <ele>215.716194</ele>
        <time>2025-10-05T18:22:21.467Z</time>
      </trkpt>
      <trkpt lat="51.831398" lon="8.880260">
        <ele>215.835517</ele>
        <time>2025-10-05T18:22:25.105Z</time>
      </trkpt>
      <trkpt lat="51.831487" lon="8.880395">
        <ele>215.924645</ele>
        <time>2025-10-05T18:22:27.856Z</time>
      </trkpt>
      <trkpt lat="51.831523" lon="8.880449">
        <ele>215.960510</ele>
        <time>2025-10-05T18:22:28.940Z</time>
      </trkpt>
      <trkpt lat="51.831559" lon="8.880504">
        <ele>215.996683</ele>
        <time>2025-10-05T18:22:30.052Z</time>
      </trkpt>
      <trkpt lat="51.831593" lon="8.880556">
        <ele>216.030864</ele>
        <time>2025-10-05T18:22:31.113Z</time>
      </trkpt>
      <trkpt lat="51.831651" lon="8.880650">
        <ele>216.090839</ele>
        <time>2025-10-05T18:22:32.964Z</time>
      </trkpt>
      <trkpt lat="51.831825" lon="8.881067">
        <ele>216.511015</ele>
        <time>2025-10-05T18:22:39.904Z</time>
      </trkpt>
      <trkpt lat="51.831842" lon="8.881129">
        <ele>216.573183</ele>
        <time>2025-10-05T18:22:40.818Z</time>
      </trkpt>
      <trkpt lat="51.831899" lon="8.881420">
        <ele>216.852976</ele>
        <time>2025-10-05T18:22:45.076Z</time>
      </trkpt>
      <trkpt lat="51.831909" lon="8.881486">
        <ele>216.915259</ele>
        <time>2025-10-05T18:22:46.042Z</time>
      </trkpt>
      <trkpt lat="51.831912" lon="8.881506">
        <ele>216.934122</ele>
        <time>2025-10-05T18:22:46.346Z</time>
      </trkpt>
      <trkpt lat="51.831947" lon="8.882246">
        <ele>217.614349</ele>
        <time>2025-10-05T18:22:56.987Z</time>
      </trkpt>
      <trkpt lat="51.831948" lon="8.882277">
        <ele>217.642801</ele>
        <time>2025-10-05T18:22:57.427Z</time>
      </trkpt>
      <trkpt lat="51.831882" lon="8.882319">
        <ele>217.747986</ele>
        <time>2025-10-05T18:22:59.025Z</time>
      </trkpt>
      <trkpt lat="51.831723" lon="8.882878">
        <ele>218.312003</ele>
        <time>2025-10-05T18:23:07.805Z</time>
      </trkpt>
      <trkpt lat="51.831577" lon="8.883467">
        <ele>219.034312</ele>
        <time>2025-10-05T18:23:16.881Z</time>
      </trkpt>
      <trkpt lat="51.831533" lon="8.884014">
        <ele>220.285634</ele>
        <time>2025-10-05T18:23:24.807Z</time>
      </trkpt>
      <trkpt lat="51.831499" lon="8.884361">
        <ele>221.082628</ele>
        <time>2025-10-05T18:23:29.921Z</time>
      </trkpt>
      <trkpt lat="51.831377" lon="8.885739">
        <ele>224.240509</ele>
        <time>2025-10-05T18:23:50.957Z</time>
      </trkpt>
      <trkpt lat="51.831354" lon="8.886299">
        <ele>225.696694</ele>
        <time>2025-10-05T18:24:00.691Z</time>
      </trkpt>
      <trkpt lat="51.831337" lon="8.886408">
        <ele>226.365246</ele>
        <time>2025-10-05T18:24:02.762Z</time>
      </trkpt>
      <trkpt lat="51.831237" lon="8.886642">
        <ele>228.057187</ele>
        <time>2025-10-05T18:24:08.124Z</time>
      </trkpt>
      <trkpt lat="51.831037" lon="8.886877">
        <ele>230.435746</ele>
        <time>2025-10-05T18:24:16.634Z</time>
      </trkpt>
      <trkpt lat="51.830953" lon="8.887084">
        <ele>231.908473</ele>
        <time>2025-10-05T18:24:22.754Z</time>
      </trkpt>
      <trkpt lat="51.830809" lon="8.887947">
        <ele>237.224608</ele>
        <time>2025-10-05T18:24:44.968Z</time>
      </trkpt>
      <trkpt lat="51.830746" lon="8.888267">
        <ele>239.221922</ele>
        <time>2025-10-05T18:24:53.114Z</time>
      </trkpt>
      <trkpt lat="51.830662" lon="8.888389">
        <ele>240.308141</ele>
        <time>2025-10-05T18:24:57.592Z</time>
      </trkpt>
      <trkpt lat="51.830622" lon="8.888433">
        <ele>240.773595</ele>
        <time>2025-10-05T18:24:59.428Z</time>
      </trkpt>
      <trkpt lat="51.830574" lon="8.888474">
        <ele>241.295922</ele>
        <time>2025-10-05T18:25:01.715Z</time>
      </trkpt>
      <trkpt lat="51.830566" lon="8.888524">
        <ele>241.603084</ele>
        <time>2025-10-05T18:25:02.883Z</time>
      </trkpt>
      <trkpt lat="51.830635" lon="8.890105">
        <ele>247.127687</ele>
        <time>2025-10-05T18:25:35.160Z</time>
      </trkpt>
      <trkpt lat="51.830757" lon="8.890566">
        <ele>248.711513</ele>
        <time>2025-10-05T18:25:42.946Z</time>
      </trkpt>
      <trkpt lat="51.831044" lon="8.891423">
        <ele>251.789971</ele>
        <time>2025-10-05T18:25:57.791Z</time>
      </trkpt>
      <trkpt lat="51.831527" lon="8.894324">
        <ele>257.239802</ele>
        <time>2025-10-05T18:26:45.691Z</time>
      </trkpt>
      <trkpt lat="51.831704" lon="8.895184">
        <ele>259.330034</ele>
        <time>2025-10-05T18:27:00.593Z</time>
      </trkpt>
      <trkpt lat="51.831929" lon="8.896068">
        <ele>261.534639</ele>
        <time>2025-10-05T18:27:16.824Z</time>
      </trkpt>
      <trkpt lat="51.832106" lon="8.896656">
        <ele>263.042849</ele>
        <time>2025-10-05T18:27:27.900Z</time>
      </trkpt>
      <trkpt lat="51.832361" lon="8.897341">
        <ele>263.532782</ele>
        <time>2025-10-05T18:27:40.604Z</time>
      </trkpt>
      <trkpt lat="51.832466" lon="8.897898">
        <ele>263.176815</ele>
        <time>2025-10-05T18:27:49.507Z</time>
      </trkpt>
      <trkpt lat="51.832522" lon="8.898110">
        <ele>263.035883</ele>
        <time>2025-10-05T18:27:52.890Z</time>
      </trkpt>
      <trkpt lat="51.832701" lon="8.898780">
        <ele>262.589698</ele>
        <time>2025-10-05T18:28:02.266Z</time>
      </trkpt>
      <trkpt lat="51.832923" lon="8.899210">
        <ele>262.247194</ele>
        <time>2025-10-05T18:28:08.403Z</time>
      </trkpt>
      <trkpt lat="51.833065" lon="8.899416">
        <ele>262.058553</ele>
        <time>2025-10-05T18:28:11.614Z</time>
      </trkpt>
      <trkpt lat="51.833321" lon="8.899614">
        <ele>261.122461</ele>
        <time>2025-10-05T18:28:16.278Z</time>
      </trkpt>
      <trkpt lat="51.834309" lon="8.899915">
        <ele>257.615940</ele>
        <time>2025-10-05T18:28:33.362Z</time>
      </trkpt>
      <trkpt lat="51.834857" lon="8.900045">
        <ele>255.786567</ele>
        <time>2025-10-05T18:28:45.456Z</time>
      </trkpt>
      <trkpt lat="51.835180" lon="8.900285">
        <ele>256.137470</ele>
        <time>2025-10-05T18:28:54.243Z</time>
      </trkpt>
      <trkpt lat="51.835260" lon="8.900358">
        <ele>256.228145</ele>
        <time>2025-10-05T18:28:56.568Z</time>
      </trkpt>
      <trkpt lat="51.835346" lon="8.900437">
        <ele>256.325777</ele>
        <time>2025-10-05T18:28:59.095Z</time>
      </trkpt>
      <trkpt lat="51.835519" lon="8.900665">
        <ele>256.546053</ele>
        <time>2025-10-05T18:29:04.844Z</time>
      </trkpt>
      <trkpt lat="51.836007" lon="8.901422">
        <ele>257.213444</ele>
        <time>2025-10-05T18:29:21.770Z</time>
      </trkpt>
      <trkpt lat="51.836272" lon="8.901965">
        <ele>257.716118</ele>
        <time>2025-10-05T18:29:31.628Z</time>
      </trkpt>
      <trkpt lat="51.836344" lon="8.902065">
        <ele>257.888560</ele>
        <time>2025-10-05T18:29:33.756Z</time>
      </trkpt>
      <trkpt lat="51.836435" lon="8.901928">
        <ele>258.114449</ele>
        <time>2025-10-05T18:29:36.428Z</time>
      </trkpt>
      <trkpt lat="51.836473" lon="8.901879">
        <ele>258.202756</ele>
        <time>2025-10-05T18:29:37.352Z</time>
      </trkpt>
      <trkpt lat="51.836644" lon="8.901648">
        <ele>258.607588</ele>
        <time>2025-10-05T18:29:41.599Z</time>
      </trkpt>
      <trkpt lat="51.836669" lon="8.901558">
        <ele>258.718404</ele>
        <time>2025-10-05T18:29:42.818Z</time>
      </trkpt>
      <trkpt lat="51.836694" lon="8.901238">
        <ele>259.080635</ele>
        <time>2025-10-05T18:29:46.868Z</time>
      </trkpt>
      <trkpt lat="51.836550" lon="8.900937">
        <ele>259.508142</ele>
        <time>2025-10-05T18:29:52.100Z</time>
      </trkpt>
      <trkpt lat="51.836520" lon="8.900881">
        <ele>259.591377</ele>
        <time>2025-10-05T18:29:53.161Z</time>
      </trkpt>
      <trkpt lat="51.836424" lon="8.900661">
        <ele>259.893842</ele>
        <time>2025-10-05T18:29:57.127Z</time>
      </trkpt>
      <trkpt lat="51.836408" lon="8.900629">
        <ele>259.940071</ele>
        <time>2025-10-05T18:29:57.733Z</time>
      </trkpt>
      <trkpt lat="51.836586" lon="8.900341">
        <ele>260.397531</ele>
        <time>2025-10-05T18:30:04.285Z</time>
      </trkpt>
      <trkpt lat="51.836851" lon="8.899923">
        <ele>261.258655</ele>
        <time>2025-10-05T18:30:15.356Z</time>
      </trkpt>
      <trkpt lat="51.836951" lon="8.899772">
        <ele>261.686601</ele>
        <time>2025-10-05T18:30:19.249Z</time>
      </trkpt>
      <trkpt lat="51.837323" lon="8.898949">
        <ele>263.658083</ele>
        <time>2025-10-05T18:30:35.656Z</time>
      </trkpt>
      <trkpt lat="51.837367" lon="8.898893">
        <ele>263.833232</ele>
        <time>2025-10-05T18:30:37.141Z</time>
      </trkpt>
      <trkpt lat="51.837430" lon="8.898917">
        <ele>264.035746</ele>
        <time>2025-10-05T18:30:38.718Z</time>
      </trkpt>
      <trkpt lat="51.837510" lon="8.899128">
        <ele>264.514367</ele>
        <time>2025-10-05T18:30:42.436Z</time>
      </trkpt>
      <trkpt lat="51.837539" lon="8.899600">
        <ele>265.431425</ele>
        <time>2025-10-05T18:30:49.326Z</time>
      </trkpt>
      <trkpt lat="51.837528" lon="8.899916">
        <ele>266.043343</ele>
        <time>2025-10-05T18:30:53.670Z</time>
      </trkpt>
      <trkpt lat="51.837479" lon="8.900811">
        <ele>266.889943</ele>
        <time>2025-10-05T18:31:05.295Z</time>
      </trkpt>
      <trkpt lat="51.837486" lon="8.901072">
        <ele>267.060298</ele>
        <time>2025-10-05T18:31:08.677Z</time>
      </trkpt>
      <trkpt lat="51.837516" lon="8.901420">
        <ele>267.289422</ele>
        <time>2025-10-05T18:31:13.712Z</time>
      </trkpt>
      <trkpt lat="51.837733" lon="8.902625">
        <ele>268.107878</ele>
        <time>2025-10-05T18:31:33.276Z</time>
      </trkpt>
      <trkpt lat="51.837914" lon="8.903350">
        <ele>268.838003</ele>
        <time>2025-10-05T18:31:45.660Z</time>
      </trkpt>
      <trkpt lat="51.838952" lon="8.906746">
        <ele>272.387525</ele>
        <time>2025-10-05T18:32:43.947Z</time>
      </trkpt>
      <trkpt lat="51.839222" lon="8.907812">
        <ele>272.981849</ele>
        <time>2025-10-05T18:33:00.273Z</time>
      </trkpt>
      <trkpt lat="51.839305" lon="8.908187">
        <ele>273.187336</ele>
        <time>2025-10-05T18:33:05.952Z</time>
      </trkpt>
      <trkpt lat="51.839431" lon="8.908766">
        <ele>274.628041</ele>
        <time>2025-10-05T18:33:15.047Z</time>
      </trkpt>
      <trkpt lat="51.839652" lon="8.909508">
        <ele>276.691970</ele>
        <time>2025-10-05T18:33:27.974Z</time>
      </trkpt>
      <trkpt lat="51.839872" lon="8.910074">
        <ele>278.367448</ele>
        <time>2025-10-05T18:33:39.293Z</time>
      </trkpt>
      <trkpt lat="51.840044" lon="8.910398">
        <ele>279.437766</ele>
        <time>2025-10-05T18:33:47.140Z</time>
      </trkpt>
      <trkpt lat="51.840606" lon="8.911104">
        <ele>283.690892</ele>
        <time>2025-10-05T18:34:09.185Z</time>
      </trkpt>
      <trkpt lat="51.841129" lon="8.911525">
        <ele>287.844038</ele>
        <time>2025-10-05T18:34:27.656Z</time>
      </trkpt>
      <trkpt lat="51.841393" lon="8.911666">
        <ele>289.820681</ele>
        <time>2025-10-05T18:34:36.452Z</time>
      </trkpt>
      <trkpt lat="51.841670" lon="8.911751">
        <ele>291.825283</ele>
        <time>2025-10-05T18:34:45.184Z</time>
      </trkpt>
      <trkpt lat="51.842566" lon="8.911994">
        <ele>296.870612</ele>
        <time>2025-10-05T18:35:12.203Z</time>
      </trkpt>
      <trkpt lat="51.842742" lon="8.912002">
        <ele>297.767667</ele>
        <time>2025-10-05T18:35:17.357Z</time>
      </trkpt>
      <trkpt lat="51.843090" lon="8.911948">
        <ele>299.548819</ele>
        <time>2025-10-05T18:35:27.411Z</time>
      </trkpt>
      <trkpt lat="51.843511" lon="8.911771">
        <ele>301.764945</ele>
        <time>2025-10-05T18:35:39.265Z</time>
      </trkpt>
      <trkpt lat="51.843991" lon="8.911436">
        <ele>303.227092</ele>
        <time>2025-10-05T18:35:52.839Z</time>
      </trkpt>
      <trkpt lat="51.844585" lon="8.910967">
        <ele>304.540287</ele>
        <time>2025-10-05T18:36:07.733Z</time>
      </trkpt>
      <trkpt lat="51.844759" lon="8.910569">
        <ele>305.138807</ele>
        <time>2025-10-05T18:36:14.466Z</time>
      </trkpt>
      <trkpt lat="51.844816" lon="8.910514">
        <ele>305.270662</ele>
        <time>2025-10-05T18:36:15.942Z</time>
      </trkpt>
      <trkpt lat="51.845255" lon="8.910294">
        <ele>306.339550</ele>
        <time>2025-10-05T18:36:26.591Z</time>
      </trkpt>
      <trkpt lat="51.845769" lon="8.909894">
        <ele>308.643976</ele>
        <time>2025-10-05T18:36:41.361Z</time>
      </trkpt>
      <trkpt lat="51.846232" lon="8.909570">
        <ele>310.682112</ele>
        <time>2025-10-05T18:36:55.172Z</time>
      </trkpt>
      <trkpt lat="51.846610" lon="8.909502">
        <ele>312.218865</ele>
        <time>2025-10-05T18:37:06.334Z</time>
      </trkpt>
      <trkpt lat="51.846814" lon="8.909508">
        <ele>313.043285</ele>
        <time>2025-10-05T18:37:12.226Z</time>
      </trkpt>
      <trkpt lat="51.847245" lon="8.909594">
        <ele>314.315910</ele>
        <time>2025-10-05T18:37:24.538Z</time>
      </trkpt>
      <trkpt lat="51.847822" lon="8.909845">
        <ele>315.952803</ele>
        <time>2025-10-05T18:37:40.244Z</time>
      </trkpt>
      <trkpt lat="51.848290" lon="8.910125">
        <ele>317.319753</ele>
        <time>2025-10-05T18:37:52.677Z</time>
      </trkpt>
      <trkpt lat="51.848527" lon="8.910391">
        <ele>318.109862</ele>
        <time>2025-10-05T18:37:59.024Z</time>
      </trkpt>
      <trkpt lat="51.848667" lon="8.910629">
        <ele>318.318065</ele>
        <time>2025-10-05T18:38:03.311Z</time>
      </trkpt>
      <trkpt lat="51.849219" lon="8.911764">
        <ele>318.818723</ele>
        <time>2025-10-05T18:38:21.285Z</time>
      </trkpt>
      <trkpt lat="51.849272" lon="8.911801">
        <ele>318.851106</ele>
        <time>2025-10-05T18:38:22.444Z</time>
      </trkpt>
      <trkpt lat="51.849339" lon="8.911795">
        <ele>318.888754</ele>
        <time>2025-10-05T18:38:23.874Z</time>
      </trkpt>
      <trkpt lat="51.849549" lon="8.911638">
        <ele>319.018534</ele>
        <time>2025-10-05T18:38:28.886Z</time>
      </trkpt>
      <trkpt lat="51.849686" lon="8.911621">
        <ele>319.095624</ele>
        <time>2025-10-05T18:38:31.983Z</time>
      </trkpt>
      <trkpt lat="51.849806" lon="8.911669">
        <ele>319.164975</ele>
        <time>2025-10-05T18:38:34.819Z</time>
      </trkpt>
      <trkpt lat="51.849967" lon="8.911853">
        <ele>319.522140</ele>
        <time>2025-10-05T18:38:39.452Z</time>
      </trkpt>
      <trkpt lat="51.850020" lon="8.911904">
        <ele>319.781436</ele>
        <time>2025-10-05T18:38:40.954Z</time>
      </trkpt>
      <trkpt lat="51.850065" lon="8.912049">
        <ele>320.202989</ele>
        <time>2025-10-05T18:38:43.394Z</time>
      </trkpt>
      <trkpt lat="51.850088" lon="8.912375">
        <ele>321.055388</ele>
        <time>2025-10-05T18:38:48.461Z</time>
      </trkpt>
      <trkpt lat="51.850053" lon="8.912856">
        <ele>322.313585</ele>
        <time>2025-10-05T18:38:56.154Z</time>
      </trkpt>
      <trkpt lat="51.850059" lon="8.913242">
        <ele>323.316666</ele>
        <time>2025-10-05T18:39:02.434Z</time>
      </trkpt>
      <trkpt lat="51.850114" lon="8.913666">
        <ele>324.442171</ele>
        <time>2025-10-05T18:39:09.644Z</time>
      </trkpt>
      <trkpt lat="51.850160" lon="8.913747">
        <ele>324.728008</ele>
        <time>2025-10-05T18:39:11.511Z</time>
      </trkpt>
      <trkpt lat="51.851107" lon="8.916561">
        <ele>332.534850</ele>
        <time>2025-10-05T18:40:04.716Z</time>
      </trkpt>
      <trkpt lat="51.851329" lon="8.917084">
        <ele>333.589875</ele>
        <time>2025-10-05T18:40:13.385Z</time>
      </trkpt>
      <trkpt lat="51.851607" lon="8.917589">
        <ele>332.806183</ele>
        <time>2025-10-05T18:40:21.271Z</time>
      </trkpt>
      <trkpt lat="51.851922" lon="8.917962">
        <ele>332.074204</ele>
        <time>2025-10-05T18:40:27.878Z</time>
      </trkpt>
      <trkpt lat="51.852208" lon="8.918171">
        <ele>331.485672</ele>
        <time>2025-10-05T18:40:32.974Z</time>
      </trkpt>
      <trkpt lat="51.852499" lon="8.918210">
        <ele>330.938011</ele>
        <time>2025-10-05T18:40:37.674Z</time>
      </trkpt>
      <trkpt lat="51.853678" lon="8.918068">
        <ele>327.393094</ele>
        <time>2025-10-05T18:40:57.755Z</time>
      </trkpt>
      <trkpt lat="51.854626" lon="8.918114">
        <ele>324.054577</ele>
        <time>2025-10-05T18:41:12.923Z</time>
      </trkpt>
      <trkpt lat="51.855128" lon="8.918231">
        <ele>319.998320</ele>
        <time>2025-10-05T18:41:20.411Z</time>
      </trkpt>
      <trkpt lat="51.855430" lon="8.918356">
        <ele>317.505319</ele>
        <time>2025-10-05T18:41:24.821Z</time>
      </trkpt>
      <trkpt lat="51.856143" lon="8.918652">
        <ele>311.618449</ele>
        <time>2025-10-05T18:41:34.857Z</time>
      </trkpt>
      <trkpt lat="51.856201" lon="8.918734">
        <ele>311.002619</ele>
        <time>2025-10-05T18:41:35.892Z</time>
      </trkpt>
      <trkpt lat="51.856223" lon="8.918827">
        <ele>310.510684</ele>
        <time>2025-10-05T18:41:36.717Z</time>
      </trkpt>
      <trkpt lat="51.856161" lon="8.919532">
        <ele>306.993627</ele>
        <time>2025-10-05T18:41:42.672Z</time>
      </trkpt>
      <trkpt lat="51.856542" lon="8.920477">
        <ele>301.420183</ele>
        <time>2025-10-05T18:41:52.208Z</time>
      </trkpt>
      <trkpt lat="51.856255" lon="8.920763">
        <ele>298.725431</ele>
        <time>2025-10-05T18:41:57.019Z</time>
      </trkpt>
      <trkpt lat="51.856182" lon="8.920885">
        <ele>297.886521</ele>
        <time>2025-10-05T18:41:58.556Z</time>
      </trkpt>
      <trkpt lat="51.856135" lon="8.920966">
        <ele>297.337638</ele>
        <time>2025-10-05T18:41:59.589Z</time>
      </trkpt>
      <trkpt lat="51.856066" lon="8.921157">
        <ele>296.244828</ele>
        <time>2025-10-05T18:42:01.658Z</time>
      </trkpt>
      <trkpt lat="51.856042" lon="8.921306">
        <ele>295.495242</ele>
        <time>2025-10-05T18:42:03.108Z</time>
      </trkpt>
      <trkpt lat="51.856408" lon="8.922023">
        <ele>293.579285</ele>
        <time>2025-10-05T18:42:12.423Z</time>
      </trkpt>
      <trkpt lat="51.856485" lon="8.922260">
        <ele>293.027704</ele>
        <time>2025-10-05T18:42:15.554Z</time>
      </trkpt>
      <trkpt lat="51.856467" lon="8.922371">
        <ele>292.791323</ele>
        <time>2025-10-05T18:42:16.906Z</time>
      </trkpt>
      <trkpt lat="51.856436" lon="8.922414">
        <ele>292.655189</ele>
        <time>2025-10-05T18:42:17.687Z</time>
      </trkpt>
      <trkpt lat="51.856004" lon="8.922729">
        <ele>291.075147</ele>
        <time>2025-10-05T18:42:26.816Z</time>
      </trkpt>
      <trkpt lat="51.855620" lon="8.923009">
        <ele>289.670663</ele>
        <time>2025-10-05T18:42:34.712Z</time>
      </trkpt>
      <trkpt lat="51.855045" lon="8.923017">
        <ele>287.906703</ele>
        <time>2025-10-05T18:42:44.988Z</time>
      </trkpt>
      <trkpt lat="51.854616" lon="8.923171">
        <ele>286.569849</ele>
        <time>2025-10-05T18:42:52.895Z</time>
      </trkpt>
      <trkpt lat="51.854000" lon="8.923475">
        <ele>284.610645</ele>
        <time>2025-10-05T18:43:05.022Z</time>
      </trkpt>
      <trkpt lat="51.853786" lon="8.923442">
        <ele>284.024695</ele>
        <time>2025-10-05T18:43:09.121Z</time>
      </trkpt>
      <trkpt lat="51.853465" lon="8.923560">
        <ele>283.919605</ele>
        <time>2025-10-05T18:43:15.602Z</time>
      </trkpt>
      <trkpt lat="51.853390" lon="8.923642">
        <ele>283.890712</ele>
        <time>2025-10-05T18:43:17.456Z</time>
      </trkpt>
      <trkpt lat="51.853669" lon="8.923981">
        <ele>283.779344</ele>
        <time>2025-10-05T18:43:25.328Z</time>
      </trkpt>
      <trkpt lat="51.854060" lon="8.924608">
        <ele>283.603646</ele>
        <time>2025-10-05T18:43:38.814Z</time>
      </trkpt>
      <trkpt lat="51.854514" lon="8.925427">
        <ele>283.782277</ele>
        <time>2025-10-05T18:43:54.907Z</time>
      </trkpt>
      <trkpt lat="51.854554" lon="8.925525">
        <ele>283.886744</ele>
        <time>2025-10-05T18:43:56.640Z</time>
      </trkpt>
      <trkpt lat="51.854565" lon="8.925636">
        <ele>283.986724</ele>
        <time>2025-10-05T18:43:58.312Z</time>
      </trkpt>
      <trkpt lat="51.854569" lon="8.925713">
        <ele>284.055445</ele>
        <time>2025-10-05T18:43:59.928Z</time>
      </trkpt>
      <trkpt lat="51.854021" lon="8.924928">
        <ele>285.109008</ele>
        <time>2025-10-05T18:44:16.771Z</time>
      </trkpt>
      <trkpt lat="51.853874" lon="8.924762">
        <ele>285.367069</ele>
        <time>2025-10-05T18:44:20.968Z</time>
      </trkpt>
      <trkpt lat="51.853756" lon="8.924690">
        <ele>285.548639</ele>
        <time>2025-10-05T18:44:23.896Z</time>
      </trkpt>
      <trkpt lat="51.853620" lon="8.924662">
        <ele>285.746038</ele>
        <time>2025-10-05T18:44:27.044Z</time>
      </trkpt>
      <trkpt lat="51.853342" lon="8.924748">
        <ele>286.252298</ele>
        <time>2025-10-05T18:44:33.567Z</time>
      </trkpt>
      <trkpt lat="51.853210" lon="8.924837">
        <ele>286.651207</ele>
        <time>2025-10-05T18:44:36.947Z</time>
      </trkpt>
      <trkpt lat="51.852795" lon="8.925239">
        <ele>288.000377</ele>
        <time>2025-10-05T18:44:48.613Z</time>
      </trkpt>
      <trkpt lat="51.851935" lon="8.926226">
        <ele>290.941285</ele>
        <time>2025-10-05T18:45:14.250Z</time>
      </trkpt>
      <trkpt lat="51.851200" lon="8.926701">
        <ele>293.288978</ele>
        <time>2025-10-05T18:45:33.517Z</time>
      </trkpt>
      <trkpt lat="51.850668" lon="8.927184">
        <ele>295.104857</ele>
        <time>2025-10-05T18:45:48.427Z</time>
      </trkpt>
      <trkpt lat="51.850076" lon="8.927810">
        <ele>297.096834</ele>
        <time>2025-10-05T18:46:05.378Z</time>
      </trkpt>
      <trkpt lat="51.849171" lon="8.928892">
        <ele>299.966089</ele>
        <time>2025-10-05T18:46:31.966Z</time>
      </trkpt>
      <trkpt lat="51.848885" lon="8.929167">
        <ele>300.814444</ele>
        <time>2025-10-05T18:46:39.854Z</time>
      </trkpt>
      <trkpt lat="51.848624" lon="8.929313">
        <ele>301.618774</ele>
        <time>2025-10-05T18:46:46.519Z</time>
      </trkpt>
      <trkpt lat="51.847821" lon="8.929550">
        <ele>304.108270</ele>
        <time>2025-10-05T18:47:06.811Z</time>
      </trkpt>
      <trkpt lat="51.846872" lon="8.930148">
        <ele>307.032486</ele>
        <time>2025-10-05T18:47:31.507Z</time>
      </trkpt>
      <trkpt lat="51.845585" lon="8.930925">
        <ele>310.165110</ele>
        <time>2025-10-05T18:48:03.091Z</time>
      </trkpt>
      <trkpt lat="51.844631" lon="8.931562">
        <ele>314.908028</ele>
        <time>2025-10-05T18:48:29.238Z</time>
      </trkpt>
      <trkpt lat="51.844707" lon="8.931988">
        <ele>316.309021</ele>
        <time>2025-10-05T18:48:37.535Z</time>
      </trkpt>
      <trkpt lat="51.844828" lon="8.932316">
        <ele>317.516075</ele>
        <time>2025-10-05T18:48:44.925Z</time>
      </trkpt>
      <trkpt lat="51.844858" lon="8.932384">
        <ele>317.780088</ele>
        <time>2025-10-05T18:48:46.432Z</time>
      </trkpt>
      <trkpt lat="51.844950" lon="8.932573">
        <ele>318.540346</ele>
        <time>2025-10-05T18:48:50.883Z</time>
      </trkpt>
      <trkpt lat="51.845146" lon="8.932916">
        <ele>319.872491</ele>
        <time>2025-10-05T18:48:59.174Z</time>
      </trkpt>
      <trkpt lat="51.845200" lon="8.932987">
        <ele>319.997415</ele>
        <time>2025-10-05T18:49:01.263Z</time>
      </trkpt>
      <trkpt lat="51.845559" lon="8.933432">
        <ele>320.809361</ele>
        <time>2025-10-05T18:49:13.826Z</time>
      </trkpt>
      <trkpt lat="51.845878" lon="8.933759">
        <ele>321.487375</ele>
        <time>2025-10-05T18:49:23.480Z</time>
      </trkpt>
      <trkpt lat="51.846029" lon="8.933985">
        <ele>321.856662</ele>
        <time>2025-10-05T18:49:28.515Z</time>
      </trkpt>
      <trkpt lat="51.846609" lon="8.935070">
        <ele>322.182537</ele>
        <time>2025-10-05T18:49:46.417Z</time>
      </trkpt>
      <trkpt lat="51.846673" lon="8.935221">
        <ele>321.779303</ele>
        <time>2025-10-05T18:49:48.608Z</time>
      </trkpt>
      <trkpt lat="51.846729" lon="8.935353">
        <ele>321.426700</ele>
        <time>2025-10-05T18:49:50.536Z</time>
      </trkpt>
      <trkpt lat="51.846912" lon="8.935892">
        <ele>320.072392</ele>
        <time>2025-10-05T18:49:57.796Z</time>
      </trkpt>
      <trkpt lat="51.847249" lon="8.937031">
        <ele>317.291522</ele>
        <time>2025-10-05T18:50:11.712Z</time>
      </trkpt>
      <trkpt lat="51.847930" lon="8.938929">
        <ele>309.004507</ele>
        <time>2025-10-05T18:50:33.910Z</time>
      </trkpt>
      <trkpt lat="51.848305" lon="8.940493">
        <ele>301.579713</ele>
        <time>2025-10-05T18:50:50.606Z</time>
      </trkpt>
      <trkpt lat="51.848372" lon="8.940703">
        <ele>300.387839</ele>
        <time>2025-10-05T18:50:52.971Z</time>
      </trkpt>
      <trkpt lat="51.848661" lon="8.941352">
        <ele>296.353448</ele>
        <time>2025-10-05T18:51:00.006Z</time>
      </trkpt>
      <trkpt lat="51.848914" lon="8.942004">
        <ele>292.470766</ele>
        <time>2025-10-05T18:51:06.637Z</time>
      </trkpt>
      <trkpt lat="51.849102" lon="8.942539">
        <ele>288.916225</ele>
        <time>2025-10-05T18:51:11.818Z</time>
      </trkpt>
      <trkpt lat="51.849222" lon="8.943011">
        <ele>284.932037</ele>
        <time>2025-10-05T18:51:16.054Z</time>
      </trkpt>
      <trkpt lat="51.849302" lon="8.943437">
        <ele>281.456497</ele>
        <time>2025-10-05T18:51:19.693Z</time>
      </trkpt>
      <trkpt lat="51.849337" lon="8.943746">
        <ele>279.004291</ele>
        <time>2025-10-05T18:51:22.234Z</time>
      </trkpt>
      <trkpt lat="51.849359" lon="8.944274">
        <ele>274.873465</ele>
        <time>2025-10-05T18:51:26.475Z</time>
      </trkpt>
      <trkpt lat="51.849400" lon="8.944589">
        <ele>272.360652</ele>
        <time>2025-10-05T18:51:29.059Z</time>
      </trkpt>
      <trkpt lat="51.849396" lon="8.944853">
        <ele>270.299304</ele>
        <time>2025-10-05T18:51:31.193Z</time>
      </trkpt>
      <trkpt lat="51.849340" lon="8.945135">
        <ele>267.987126</ele>
        <time>2025-10-05T18:51:33.594Z</time>
      </trkpt>
      <trkpt lat="51.849310" lon="8.945213">
        <ele>267.334395</ele>
        <time>2025-10-05T18:51:34.335Z</time>
      </trkpt>
      <trkpt lat="51.849160" lon="8.945591">
        <ele>265.007837</ele>
        <time>2025-10-05T18:51:38.026Z</time>
      </trkpt>
      <trkpt lat="51.849142" lon="8.945777">
        <ele>264.032889</ele>
        <time>2025-10-05T18:51:39.581Z</time>
      </trkpt>
      <trkpt lat="51.849174" lon="8.945931">
        <ele>263.191493</ele>
        <time>2025-10-05T18:51:40.932Z</time>
      </trkpt>
      <trkpt lat="51.849239" lon="8.946006">
        <ele>262.522346</ele>
        <time>2025-10-05T18:51:42.015Z</time>
      </trkpt>
      <trkpt lat="51.849350" lon="8.946009">
        <ele>261.591698</ele>
        <time>2025-10-05T18:51:43.531Z</time>
      </trkpt>
      <trkpt lat="51.849562" lon="8.946338">
        <ele>259.129769</ele>
        <time>2025-10-05T18:51:47.573Z</time>
      </trkpt>
      <trkpt lat="51.849711" lon="8.946588">
        <ele>257.330825</ele>
        <time>2025-10-05T18:51:50.617Z</time>
      </trkpt>
      <trkpt lat="51.850128" lon="8.947601">
        <ele>251.800128</ele>
        <time>2025-10-05T18:52:02.353Z</time>
      </trkpt>
      <trkpt lat="51.850634" lon="8.948771">
        <ele>248.619653</ele>
        <time>2025-10-05T18:52:16.241Z</time>
      </trkpt>
      <trkpt lat="51.850857" lon="8.949287">
        <ele>247.217319</ele>
        <time>2025-10-05T18:52:22.533Z</time>
      </trkpt>
      <trkpt lat="51.851034" lon="8.949706">
        <ele>246.086971</ele>
        <time>2025-10-05T18:52:27.674Z</time>
      </trkpt>
      <trkpt lat="51.851068" lon="8.949831">
        <ele>245.826308</ele>
        <time>2025-10-05T18:52:29.062Z</time>
      </trkpt>
      <trkpt lat="51.851119" lon="8.949891">
        <ele>245.683802</ele>
        <time>2025-10-05T18:52:30.095Z</time>
      </trkpt>
      <trkpt lat="51.851153" lon="8.949973">
        <ele>245.545906</ele>
        <time>2025-10-05T18:52:31.102Z</time>
      </trkpt>
      <trkpt lat="51.851929" lon="8.951764">
        <ele>242.491373</ele>
        <time>2025-10-05T18:52:55.063Z</time>
      </trkpt>
      <trkpt lat="51.852026" lon="8.952061">
        <ele>242.022293</ele>
        <time>2025-10-05T18:52:58.722Z</time>
      </trkpt>
      <trkpt lat="51.852099" lon="8.952325">
        <ele>241.509898</ele>
        <time>2025-10-05T18:53:01.783Z</time>
      </trkpt>
      <trkpt lat="51.852202" lon="8.952849">
        <ele>240.355082</ele>
        <time>2025-10-05T18:53:07.356Z</time>
      </trkpt>
      <trkpt lat="51.852365" lon="8.953905">
        <ele>238.069213</ele>
        <time>2025-10-05T18:53:18.113Z</time>
      </trkpt>
      <trkpt lat="51.852375" lon="8.953973">
        <ele>237.922417</ele>
        <time>2025-10-05T18:53:18.785Z</time>
      </trkpt>
      <trkpt lat="51.852401" lon="8.954119">
        <ele>237.603319</ele>
        <time>2025-10-05T18:53:20.249Z</time>
      </trkpt>
      <trkpt lat="51.852419" lon="8.954234">
        <ele>237.354179</ele>
        <time>2025-10-05T18:53:21.385Z</time>
      </trkpt>
      <trkpt lat="51.852428" lon="8.954281">
        <ele>237.250841</ele>
        <time>2025-10-05T18:53:21.851Z</time>
      </trkpt>
      <trkpt lat="51.852610" lon="8.955198">
        <ele>235.302937</ele>
        <time>2025-10-05T18:53:31.162Z</time>
      </trkpt>
      <trkpt lat="51.852661" lon="8.955412">
        <ele>234.894718</ele>
        <time>2025-10-05T18:53:33.439Z</time>
      </trkpt>
      <trkpt lat="51.852837" lon="8.956113">
        <ele>233.548032</ele>
        <time>2025-10-05T18:53:41.186Z</time>
      </trkpt>
      <trkpt lat="51.852901" lon="8.956373">
        <ele>233.049923</ele>
        <time>2025-10-05T18:53:44.124Z</time>
      </trkpt>
      <trkpt lat="51.852976" lon="8.956684">
        <ele>232.455753</ele>
        <time>2025-10-05T18:53:47.618Z</time>
      </trkpt>
      <trkpt lat="51.853110" lon="8.957234">
        <ele>231.403536</ele>
        <time>2025-10-05T18:53:53.812Z</time>
      </trkpt>
      <trkpt lat="51.853219" lon="8.957602">
        <ele>230.677209</ele>
        <time>2025-10-05T18:53:58.109Z</time>
      </trkpt>
      <trkpt lat="51.853295" lon="8.957775">
        <ele>230.336798</ele>
        <time>2025-10-05T18:54:00.369Z</time>
      </trkpt>
      <trkpt lat="51.853465" lon="8.958020">
        <ele>229.784568</ele>
        <time>2025-10-05T18:54:04.273Z</time>
      </trkpt>
      <trkpt lat="51.853524" lon="8.958081">
        <ele>229.614713</ele>
        <time>2025-10-05T18:54:05.479Z</time>
      </trkpt>
      <trkpt lat="51.853791" lon="8.958210">
        <ele>228.938650</ele>
        <time>2025-10-05T18:54:10.271Z</time>
      </trkpt>
      <trkpt lat="51.853985" lon="8.958513">
        <ele>228.284607</ele>
        <time>2025-10-05T18:54:14.845Z</time>
      </trkpt>
      <trkpt lat="51.854214" lon="8.958768">
        <ele>227.610239</ele>
        <time>2025-10-05T18:54:19.534Z</time>
      </trkpt>
      <trkpt lat="51.854555" lon="8.959326">
        <ele>226.433858</ele>
        <time>2025-10-05T18:54:27.758Z</time>
      </trkpt>
      <trkpt lat="51.854793" lon="8.959722">
        <ele>225.789379</ele>
        <time>2025-10-05T18:54:33.584Z</time>
      </trkpt>
      <trkpt lat="51.854962" lon="8.959901">
        <ele>225.458198</ele>
        <time>2025-10-05T18:54:37.062Z</time>
      </trkpt>
      <trkpt lat="51.855526" lon="8.960017">
        <ele>224.525859</ele>
        <time>2025-10-05T18:54:47.110Z</time>
      </trkpt>
      <trkpt lat="51.855766" lon="8.960332">
        <ele>224.019203</ele>
        <time>2025-10-05T18:54:52.740Z</time>
      </trkpt>
      <trkpt lat="51.855847" lon="8.960426">
        <ele>223.855773</ele>
        <time>2025-10-05T18:54:54.617Z</time>
      </trkpt>
      <trkpt lat="51.856184" lon="8.960544">
        <ele>223.290350</ele>
        <time>2025-10-05T18:55:01.397Z</time>
      </trkpt>
      <trkpt lat="51.856435" lon="8.960666">
        <ele>223.243364</ele>
        <time>2025-10-05T18:55:06.649Z</time>
      </trkpt>
      <trkpt lat="51.856547" lon="8.960733">
        <ele>223.254611</ele>
        <time>2025-10-05T18:55:09.083Z</time>
      </trkpt>
      <trkpt lat="51.856679" lon="8.960914">
        <ele>223.270904</ele>
        <time>2025-10-05T18:55:12.671Z</time>
      </trkpt>
      <trkpt lat="51.856714" lon="8.960976">
        <ele>223.275791</ele>
        <time>2025-10-05T18:55:13.752Z</time>
      </trkpt>
      <trkpt lat="51.856742" lon="8.961034">
        <ele>223.280074</ele>
        <time>2025-10-05T18:55:14.711Z</time>
      </trkpt>
      <trkpt lat="51.856788" lon="8.960974">
        <ele>223.285638</ele>
        <time>2025-10-05T18:55:15.979Z</time>
      </trkpt>
      <trkpt lat="51.856812" lon="8.960943">
        <ele>223.288530</ele>
        <time>2025-10-05T18:55:16.618Z</time>
      </trkpt>
      <trkpt lat="51.856885" lon="8.960844">
        <ele>223.297499</ele>
        <time>2025-10-05T18:55:18.668Z</time>
      </trkpt>
      <trkpt lat="51.856905" lon="8.960819">
        <ele>223.299879</ele>
        <time>2025-10-05T18:55:19.207Z</time>
      </trkpt>
      <trkpt lat="51.856934" lon="8.960860">
        <ele>223.303506</ele>
        <time>2025-10-05T18:55:20.035Z</time>
      </trkpt>
      <trkpt lat="51.857318" lon="8.961287">
        <ele>223.347385</ele>
        <time>2025-10-05T18:55:30.178Z</time>
      </trkpt>
      <trkpt lat="51.857744" lon="8.962094">
        <ele>223.781612</ele>
        <time>2025-10-05T18:55:44.456Z</time>
      </trkpt>
      <trkpt lat="51.858248" lon="8.962611">
        <ele>225.058262</ele>
        <time>2025-10-05T18:55:58.019Z</time>
      </trkpt>
      <trkpt lat="51.858508" lon="8.962825">
        <ele>225.682353</ele>
        <time>2025-10-05T18:56:05.046Z</time>
      </trkpt>
      <trkpt lat="51.858715" lon="8.962979">
        <ele>226.169800</ele>
        <time>2025-10-05T18:56:10.746Z</time>
      </trkpt>
      <trkpt lat="51.858928" lon="8.963007">
        <ele>226.627067</ele>
        <time>2025-10-05T18:56:16.182Z</time>
      </trkpt>
      <trkpt lat="51.859412" lon="8.962727">
        <ele>227.349708</ele>
        <time>2025-10-05T18:56:28.629Z</time>
      </trkpt>
      <trkpt lat="51.859818" lon="8.962380">
        <ele>227.570066</ele>
        <time>2025-10-05T18:56:39.320Z</time>
      </trkpt>
      <trkpt lat="51.859848" lon="8.962381">
        <ele>227.584468</ele>
        <time>2025-10-05T18:56:40.009Z</time>
      </trkpt>
      <trkpt lat="51.860407" lon="8.963127">
        <ele>227.932169</ele>
        <time>2025-10-05T18:56:54.849Z</time>
      </trkpt>
      <trkpt lat="51.860622" lon="8.963331">
        <ele>228.051779</ele>
        <time>2025-10-05T18:56:59.230Z</time>
      </trkpt>
      <trkpt lat="51.860996" lon="8.963616">
        <ele>228.352503</ele>
        <time>2025-10-05T18:57:06.409Z</time>
      </trkpt>
      <trkpt lat="51.861300" lon="8.963966">
        <ele>228.656849</ele>
        <time>2025-10-05T18:57:13.985Z</time>
      </trkpt>
      <trkpt lat="51.861359" lon="8.963930">
        <ele>228.708293</ele>
        <time>2025-10-05T18:57:15.410Z</time>
      </trkpt>
      <trkpt lat="51.861518" lon="8.963926">
        <ele>228.838040</ele>
        <time>2025-10-05T18:57:19.023Z</time>
      </trkpt>
      <trkpt lat="51.861956" lon="8.963994">
        <ele>229.197051</ele>
        <time>2025-10-05T18:57:29.331Z</time>
      </trkpt>
      <trkpt lat="51.862112" lon="8.963839">
        <ele>229.346386</ele>
        <time>2025-10-05T18:57:33.705Z</time>
      </trkpt>
      <trkpt lat="51.862491" lon="8.963393">
        <ele>229.635219</ele>
        <time>2025-10-05T18:57:44.974Z</time>
      </trkpt>
      <trkpt lat="51.862734" lon="8.963188">
        <ele>229.725842</ele>
        <time>2025-10-05T18:57:51.420Z</time>
      </trkpt>
      <trkpt lat="51.863252" lon="8.963046">
        <ele>229.899602</ele>
        <time>2025-10-05T18:58:03.305Z</time>
      </trkpt>
      <trkpt lat="51.863666" lon="8.963056">
        <ele>230.036543</ele>
        <time>2025-10-05T18:58:11.626Z</time>
      </trkpt>
      <trkpt lat="51.864506" lon="8.963244">
        <ele>229.074185</ele>
        <time>2025-10-05T18:58:26.234Z</time>
      </trkpt>
      <trkpt lat="51.864760" lon="8.963199">
        <ele>228.461270</ele>
        <time>2025-10-05T18:58:30.603Z</time>
      </trkpt>
      <trkpt lat="51.865115" lon="8.963049">
        <ele>227.581206</ele>
        <time>2025-10-05T18:58:36.847Z</time>
      </trkpt>
      <trkpt lat="51.865389" lon="8.962983">
        <ele>226.916720</ele>
        <time>2025-10-05T18:58:41.553Z</time>
      </trkpt>
      <trkpt lat="51.865771" lon="8.962961">
        <ele>225.999822</ele>
        <time>2025-10-05T18:58:47.976Z</time>
      </trkpt>
      <trkpt lat="51.866253" lon="8.962956">
        <ele>225.106513</ele>
        <time>2025-10-05T18:58:56.084Z</time>
      </trkpt>
      <trkpt lat="51.866871" lon="8.963128">
        <ele>223.994549</ele>
        <time>2025-10-05T18:59:07.007Z</time>
      </trkpt>
      <trkpt lat="51.867094" lon="8.963209">
        <ele>223.589279</ele>
        <time>2025-10-05T18:59:11.082Z</time>
      </trkpt>
      <trkpt lat="51.867480" lon="8.963362">
        <ele>222.884582</ele>
        <time>2025-10-05T18:59:18.621Z</time>
      </trkpt>
      <trkpt lat="51.867565" lon="8.963346">
        <ele>222.732837</ele>
        <time>2025-10-05T18:59:20.303Z</time>
      </trkpt>
      <trkpt lat="51.867631" lon="8.963259">
        <ele>222.666816</ele>
        <time>2025-10-05T18:59:22.015Z</time>
      </trkpt>
      <trkpt lat="51.867708" lon="8.962976">
        <ele>222.685406</ele>
        <time>2025-10-05T18:59:25.891Z</time>
      </trkpt>
      <trkpt lat="51.867813" lon="8.962259">
        <ele>222.729702</ele>
        <time>2025-10-05T18:59:35.625Z</time>
      </trkpt>
      <trkpt lat="51.867826" lon="8.962169">
        <ele>222.735259</ele>
        <time>2025-10-05T18:59:36.888Z</time>
      </trkpt>
      <trkpt lat="51.867872" lon="8.961925">
        <ele>222.750594</ele>
        <time>2025-10-05T18:59:40.361Z</time>
      </trkpt>
      <trkpt lat="51.868232" lon="8.961170">
        <ele>222.807936</ele>
        <time>2025-10-05T18:59:53.368Z</time>
      </trkpt>
      <trkpt lat="51.868352" lon="8.961071">
        <ele>222.821047</ele>
        <time>2025-10-05T18:59:56.305Z</time>
      </trkpt>
      <trkpt lat="51.868611" lon="8.961028">
        <ele>222.769896</ele>
        <time>2025-10-05T19:00:01.966Z</time>
      </trkpt>
      <trkpt lat="51.869374" lon="8.961106">
        <ele>222.204137</ele>
        <time>2025-10-05T19:00:17.691Z</time>
      </trkpt>
      <trkpt lat="51.869523" lon="8.961067">
        <ele>222.092444</ele>
        <time>2025-10-05T19:00:20.700Z</time>
      </trkpt>
      <trkpt lat="51.869668" lon="8.960965">
        <ele>221.975456</ele>
        <time>2025-10-05T19:00:23.828Z</time>
      </trkpt>
      <trkpt lat="51.870588" lon="8.959334">
        <ele>220.113505</ele>
        <time>2025-10-05T19:00:48.358Z</time>
      </trkpt>
      <trkpt lat="51.870939" lon="8.958884">
        <ele>219.259612</ele>
        <time>2025-10-05T19:00:56.180Z</time>
      </trkpt>
      <trkpt lat="51.871366" lon="8.958281">
        <ele>218.178999</ele>
        <time>2025-10-05T19:01:06.096Z</time>
      </trkpt>
      <trkpt lat="51.871600" lon="8.957935">
        <ele>217.676316</ele>
        <time>2025-10-05T19:01:11.609Z</time>
      </trkpt>
      <trkpt lat="51.871652" lon="8.957922">
        <ele>217.596325</ele>
        <time>2025-10-05T19:01:12.537Z</time>
      </trkpt>
      <trkpt lat="51.871743" lon="8.957317">
        <ele>217.011826</ele>
        <time>2025-10-05T19:01:19.403Z</time>
      </trkpt>
      <trkpt lat="51.871826" lon="8.956991">
        <ele>216.680827</ele>
        <time>2025-10-05T19:01:23.311Z</time>
      </trkpt>
      <trkpt lat="51.872044" lon="8.956262">
        <ele>215.920511</ele>
        <time>2025-10-05T19:01:32.457Z</time>
      </trkpt>
      <trkpt lat="51.872195" lon="8.955846">
        <ele>215.467550</ele>
        <time>2025-10-05T19:01:38.119Z</time>
      </trkpt>
      <trkpt lat="51.872256" lon="8.955741">
        <ele>215.346001</ele>
        <time>2025-10-05T19:01:39.864Z</time>
      </trkpt>
      <trkpt lat="51.872342" lon="8.955656">
        <ele>215.428372</ele>
        <time>2025-10-05T19:01:41.832Z</time>
      </trkpt>
      <trkpt lat="51.872633" lon="8.955494">
        <ele>215.679953</ele>
        <time>2025-10-05T19:01:48.162Z</time>
      </trkpt>
      <trkpt lat="51.872677" lon="8.955488">
        <ele>215.716054</ele>
        <time>2025-10-05T19:01:49.101Z</time>
      </trkpt>
      <trkpt lat="51.872754" lon="8.955488">
        <ele>215.779009</ele>
        <time>2025-10-05T19:01:50.762Z</time>
      </trkpt>
      <trkpt lat="51.872815" lon="8.955591">
        <ele>215.851055</ele>
        <time>2025-10-05T19:01:52.702Z</time>
      </trkpt>
      <trkpt lat="51.872996" lon="8.955662">
        <ele>216.003317</ele>
        <time>2025-10-05T19:01:56.864Z</time>
      </trkpt>
      <trkpt lat="51.873159" lon="8.955831">
        <ele>216.161551</ele>
        <time>2025-10-05T19:02:01.275Z</time>
      </trkpt>
      <trkpt lat="51.873312" lon="8.956179">
        <ele>216.377203</ele>
        <time>2025-10-05T19:02:07.424Z</time>
      </trkpt>
      <trkpt lat="51.873699" lon="8.957659">
        <ele>216.730235</ele>
        <time>2025-10-05T19:02:30.458Z</time>
      </trkpt>
      <trkpt lat="51.873785" lon="8.957923">
        <ele>216.697642</ele>
        <time>2025-10-05T19:02:34.639Z</time>
      </trkpt>
      <trkpt lat="51.873944" lon="8.958282">
        <ele>216.649399</ele>
        <time>2025-10-05T19:02:40.544Z</time>
      </trkpt>
      <trkpt lat="51.873959" lon="8.958343">
        <ele>216.642230</ele>
        <time>2025-10-05T19:02:41.349Z</time>
      </trkpt>
      <trkpt lat="51.874269" lon="8.958214">
        <ele>216.585623</ele>
        <time>2025-10-05T19:02:47.824Z</time>
      </trkpt>
      <trkpt lat="51.874344" lon="8.958194">
        <ele>216.572181</ele>
        <time>2025-10-05T19:02:49.294Z</time>
      </trkpt>
      <trkpt lat="51.874356" lon="8.958190">
        <ele>216.570014</ele>
        <time>2025-10-05T19:02:49.530Z</time>
      </trkpt>
      <trkpt lat="51.874502" lon="8.958156">
        <ele>216.543927</ele>
        <time>2025-10-05T19:02:52.342Z</time>
      </trkpt>
      <trkpt lat="51.874637" lon="8.958126">
        <ele>216.519828</ele>
        <time>2025-10-05T19:02:54.852Z</time>
      </trkpt>
      <trkpt lat="51.874804" lon="8.958113">
        <ele>216.448714</ele>
        <time>2025-10-05T19:02:57.884Z</time>
      </trkpt>
      <trkpt lat="51.874907" lon="8.958120">
        <ele>216.206167</ele>
        <time>2025-10-05T19:02:59.716Z</time>
      </trkpt>
      <trkpt lat="51.874973" lon="8.958123">
        <ele>216.050824</ele>
        <time>2025-10-05T19:03:00.888Z</time>
      </trkpt>
      <trkpt lat="51.875038" lon="8.958127">
        <ele>215.897785</ele>
        <time>2025-10-05T19:03:02.032Z</time>
      </trkpt>
      <trkpt lat="51.875051" lon="8.958128">
        <ele>215.867165</ele>
        <time>2025-10-05T19:03:02.261Z</time>
      </trkpt>
      <trkpt lat="51.875140" lon="8.958134">
        <ele>215.657588</ele>
        <time>2025-10-05T19:03:03.822Z</time>
      </trkpt>
      <trkpt lat="51.875182" lon="8.958134">
        <ele>215.558772</ele>
        <time>2025-10-05T19:03:04.557Z</time>
      </trkpt>
      <trkpt lat="51.875211" lon="8.958135">
        <ele>215.490527</ele>
        <time>2025-10-05T19:03:05.073Z</time>
      </trkpt>
      <trkpt lat="51.875239" lon="8.958135">
        <ele>215.424650</ele>
        <time>2025-10-05T19:03:05.546Z</time>
      </trkpt>
      <trkpt lat="51.875374" lon="8.958137">
        <ele>215.107015</ele>
        <time>2025-10-05T19:03:07.890Z</time>
      </trkpt>
      <trkpt lat="51.875683" lon="8.958142">
        <ele>214.379977</ele>
        <time>2025-10-05T19:03:13.239Z</time>
      </trkpt>
      <trkpt lat="51.875711" lon="8.958146">
        <ele>214.313844</ele>
        <time>2025-10-05T19:03:13.720Z</time>
      </trkpt>
      <trkpt lat="51.875928" lon="8.958251">
        <ele>213.781003</ele>
        <time>2025-10-05T19:03:17.643Z</time>
      </trkpt>
      <trkpt lat="51.876008" lon="8.958255">
        <ele>213.592693</ele>
        <time>2025-10-05T19:03:19.062Z</time>
      </trkpt>
      <trkpt lat="51.876203" lon="8.958134">
        <ele>213.101394</ele>
        <time>2025-10-05T19:03:22.824Z</time>
      </trkpt>
      <trkpt lat="51.876569" lon="8.958074">
        <ele>212.252438</ele>
        <time>2025-10-05T19:03:29.752Z</time>
      </trkpt>
      <trkpt lat="51.876614" lon="8.958075">
        <ele>212.214006</ele>
        <time>2025-10-05T19:03:30.594Z</time>
      </trkpt>
      <trkpt lat="51.876962" lon="8.958035">
        <ele>211.916076</ele>
        <time>2025-10-05T19:03:37.312Z</time>
      </trkpt>
      <trkpt lat="51.877271" lon="8.957918">
        <ele>211.645084</ele>
        <time>2025-10-05T19:03:43.852Z</time>
      </trkpt>
      <trkpt lat="51.877401" lon="8.957866">
        <ele>211.530733</ele>
        <time>2025-10-05T19:03:46.712Z</time>
      </trkpt>
      <trkpt lat="51.877647" lon="8.957779">
        <ele>211.315707</ele>
        <time>2025-10-05T19:03:52.058Z</time>
      </trkpt>
      <trkpt lat="51.877659" lon="8.957854">
        <ele>211.274861</ele>
        <time>2025-10-05T19:03:53.342Z</time>
      </trkpt>
      <trkpt lat="51.877282" lon="8.957991">
        <ele>210.944911</ele>
        <time>2025-10-05T19:04:20.146Z</time>
      </trkpt>
      <trkpt lat="51.876970" lon="8.958105">
        <ele>210.669147</ele>
        <time>2025-10-05T19:04:42.365Z</time>
      </trkpt>
      <trkpt lat="51.877282" lon="8.957991">
        <ele>210.382737</ele>
        <time>2025-10-05T19:05:04.584Z</time>
      </trkpt>
      <trkpt lat="51.877659" lon="8.957854">
        <ele>210.036749</ele>
        <time>2025-10-05T19:05:31.388Z</time>
      </trkpt>
      <trkpt lat="51.877647" lon="8.957779">
        <ele>209.993917</ele>
        <time>2025-10-05T19:05:32.660Z</time>
      </trkpt>
      <trkpt lat="51.877796" lon="8.957728">
        <ele>209.857544</ele>
        <time>2025-10-05T19:05:35.761Z</time>
      </trkpt>
      <trkpt lat="51.877914" lon="8.957692">
        <ele>209.750020</ele>
        <time>2025-10-05T19:05:38.168Z</time>
      </trkpt>
      <trkpt lat="51.878026" lon="8.957661">
        <ele>209.648272</ele>
        <time>2025-10-05T19:05:40.426Z</time>
      </trkpt>
      <trkpt lat="51.878056" lon="8.957646">
        <ele>209.620157</ele>
        <time>2025-10-05T19:05:41.032Z</time>
      </trkpt>
      <trkpt lat="51.878274" lon="8.957522">
        <ele>209.413256</ele>
        <time>2025-10-05T19:05:45.586Z</time>
      </trkpt>
      <trkpt lat="51.878461" lon="8.957388">
        <ele>209.230148</ele>
        <time>2025-10-05T19:05:49.587Z</time>
      </trkpt>
      <trkpt lat="51.878511" lon="8.957336">
        <ele>209.176941</ele>
        <time>2025-10-05T19:05:50.764Z</time>
      </trkpt>
      <trkpt lat="51.878619" lon="8.957278">
        <ele>209.079417</ele>
        <time>2025-10-05T19:05:52.978Z</time>
      </trkpt>
      <trkpt lat="51.878715" lon="8.957300">
        <ele>209.002030</ele>
        <time>2025-10-05T19:05:54.929Z</time>
      </trkpt>
      <trkpt lat="51.878789" lon="8.957183">
        <ele>208.919494</ele>
        <time>2025-10-05T19:05:56.893Z</time>
      </trkpt>
      <trkpt lat="51.879147" lon="8.956941">
        <ele>208.609865</ele>
        <time>2025-10-05T19:06:04.600Z</time>
      </trkpt>
      <trkpt lat="51.879183" lon="8.956916">
        <ele>208.578602</ele>
        <time>2025-10-05T19:06:05.375Z</time>
      </trkpt>
      <trkpt lat="51.879212" lon="8.956891">
        <ele>208.552381</ele>
        <time>2025-10-05T19:06:06.026Z</time>
      </trkpt>
      <trkpt lat="51.879635" lon="8.956479">
        <ele>208.158423</ele>
        <time>2025-10-05T19:06:15.866Z</time>
      </trkpt>
      <trkpt lat="51.879666" lon="8.956448">
        <ele>208.129345</ele>
        <time>2025-10-05T19:06:16.598Z</time>
      </trkpt>
      <trkpt lat="51.879879" lon="8.956210">
        <ele>207.922812</ele>
        <time>2025-10-05T19:06:21.732Z</time>
      </trkpt>
      <trkpt lat="51.879911" lon="8.956180">
        <ele>207.893302</ele>
        <time>2025-10-05T19:06:22.467Z</time>
      </trkpt>
      <trkpt lat="51.880017" lon="8.956066">
        <ele>207.791747</ele>
        <time>2025-10-05T19:06:25.005Z</time>
      </trkpt>
      <trkpt lat="51.880070" lon="8.955996">
        <ele>207.737166</ele>
        <time>2025-10-05T19:06:26.376Z</time>
      </trkpt>
      <trkpt lat="51.880165" lon="8.955837">
        <ele>207.636743</ele>
        <time>2025-10-05T19:06:29.077Z</time>
      </trkpt>
      <trkpt lat="51.880203" lon="8.955899">
        <ele>207.600894</ele>
        <time>2025-10-05T19:06:30.146Z</time>
      </trkpt>
      <trkpt lat="51.880234" lon="8.955841">
        <ele>207.569415</ele>
        <time>2025-10-05T19:06:31.417Z</time>
      </trkpt>
      <trkpt lat="51.879998" lon="8.955474">
        <ele>207.351970</ele>
        <time>2025-10-05T19:06:37.900Z</time>
      </trkpt>
      <trkpt lat="51.879946" lon="8.955398">
        <ele>207.305419</ele>
        <time>2025-10-05T19:06:39.313Z</time>
      </trkpt>
      <trkpt lat="51.880054" lon="8.955322">
        <ele>207.227153</ele>
        <time>2025-10-05T19:06:41.668Z</time>
      </trkpt>
      <trkpt lat="51.880738" lon="8.954995">
        <ele>206.753127</ele>
        <time>2025-10-05T19:06:55.749Z</time>
      </trkpt>
      <trkpt lat="51.881278" lon="8.954735">
        <ele>206.479715</ele>
        <time>2025-10-05T19:07:06.947Z</time>
      </trkpt>
      <trkpt lat="51.881447" lon="8.954641">
        <ele>206.474808</ele>
        <time>2025-10-05T19:07:10.587Z</time>
      </trkpt>
      <trkpt lat="51.881516" lon="8.954509">
        <ele>206.471876</ele>
        <time>2025-10-05T19:07:12.801Z</time>
      </trkpt>
      <trkpt lat="51.881537" lon="8.954418">
        <ele>206.470229</ele>
        <time>2025-10-05T19:07:14.042Z</time>
      </trkpt>
      <trkpt lat="51.881550" lon="8.954355">
        <ele>206.469103</ele>
        <time>2025-10-05T19:07:14.898Z</time>
      </trkpt>
      <trkpt lat="51.881581" lon="8.954338">
        <ele>206.468204</ele>
        <time>2025-10-05T19:07:15.585Z</time>
      </trkpt>
      <trkpt lat="51.881593" lon="8.954332">
        <ele>206.467860</ele>
        <time>2025-10-05T19:07:15.852Z</time>
      </trkpt>
      <trkpt lat="51.881643" lon="8.954337">
        <ele>206.466484</ele>
        <time>2025-10-05T19:07:16.903Z</time>
      </trkpt>
      <trkpt lat="51.881738" lon="8.954289">
        <ele>206.463751</ele>
        <time>2025-10-05T19:07:19.025Z</time>
      </trkpt>
      <trkpt lat="51.881931" lon="8.954193">
        <ele>206.458207</ele>
        <time>2025-10-05T19:07:23.339Z</time>
      </trkpt>
      <trkpt lat="51.881983" lon="8.954187">
        <ele>206.456776</ele>
        <time>2025-10-05T19:07:24.459Z</time>
      </trkpt>
      <trkpt lat="51.882055" lon="8.954191">
        <ele>206.454798</ele>
        <time>2025-10-05T19:07:25.997Z</time>
      </trkpt>
      <trkpt lat="51.882070" lon="8.954194">
        <ele>206.454383</ele>
        <time>2025-10-05T19:07:26.327Z</time>
      </trkpt>
      <trkpt lat="51.883364" lon="8.954133">
        <ele>206.734829</ele>
        <time>2025-10-05T19:07:54.320Z</time>
      </trkpt>
      <trkpt lat="51.884702" lon="8.953691">
        <ele>207.368447</ele>
        <time>2025-10-05T19:08:24.525Z</time>
      </trkpt>
      <trkpt lat="51.884979" lon="8.953552">
        <ele>207.364561</ele>
        <time>2025-10-05T19:08:30.862Z</time>
      </trkpt>
      <trkpt lat="51.885274" lon="8.953424">
        <ele>207.360468</ele>
        <time>2025-10-05T19:08:37.434Z</time>
      </trkpt>
      <trkpt lat="51.885648" lon="8.953306">
        <ele>207.355361</ele>
        <time>2025-10-05T19:08:45.540Z</time>
      </trkpt>
      <trkpt lat="51.886003" lon="8.953320">
        <ele>207.350601</ele>
        <time>2025-10-05T19:08:52.976Z</time>
      </trkpt>
      <trkpt lat="51.886430" lon="8.953246">
        <ele>207.287614</ele>
        <time>2025-10-05T19:09:01.422Z</time>
      </trkpt>
      <trkpt lat="51.886616" lon="8.953121">
        <ele>207.176353</ele>
        <time>2025-10-05T19:09:05.221Z</time>
      </trkpt>
      <trkpt lat="51.886819" lon="8.953122">
        <ele>207.064189</ele>
        <time>2025-10-05T19:09:09.046Z</time>
      </trkpt>
      <trkpt lat="51.887297" lon="8.952937">
        <ele>206.792649</ele>
        <time>2025-10-05T19:09:18.727Z</time>
      </trkpt>
      <trkpt lat="51.887862" lon="8.952600">
        <ele>206.459988</ele>
        <time>2025-10-05T19:09:31.083Z</time>
      </trkpt>
      <trkpt lat="51.887967" lon="8.952889">
        <ele>206.361103</ele>
        <time>2025-10-05T19:09:35.421Z</time>
      </trkpt>
      <trkpt lat="51.888117" lon="8.953287">
        <ele>206.561857</ele>
        <time>2025-10-05T19:09:41.471Z</time>
      </trkpt>
      <trkpt lat="51.888375" lon="8.953875">
        <ele>206.872432</ele>
        <time>2025-10-05T19:09:50.981Z</time>
      </trkpt>
      <trkpt lat="51.888632" lon="8.954329">
        <ele>207.137631</ele>
        <time>2025-10-05T19:09:59.396Z</time>
      </trkpt>
      <trkpt lat="51.889053" lon="8.954872">
        <ele>207.512954</ele>
        <time>2025-10-05T19:10:11.553Z</time>
      </trkpt>
      <trkpt lat="51.889107" lon="8.954987">
        <ele>207.575159</ele>
        <time>2025-10-05T19:10:13.602Z</time>
      </trkpt>
      <trkpt lat="51.889154" lon="8.955043">
        <ele>207.639946</ele>
        <time>2025-10-05T19:10:14.931Z</time>
      </trkpt>
      <trkpt lat="51.889198" lon="8.955104">
        <ele>207.790391</ele>
        <time>2025-10-05T19:10:16.291Z</time>
      </trkpt>
      <trkpt lat="51.889299" lon="8.955138">
        <ele>208.058391</ele>
        <time>2025-10-05T19:10:18.678Z</time>
      </trkpt>
      <trkpt lat="51.889782" lon="8.955491">
        <ele>209.434963</ele>
        <time>2025-10-05T19:10:31.149Z</time>
      </trkpt>
      <trkpt lat="51.890776" lon="8.955935">
        <ele>212.113687</ele>
        <time>2025-10-05T19:10:56.614Z</time>
      </trkpt>
      <trkpt lat="51.891240" lon="8.956121">
        <ele>212.151272</ele>
        <time>2025-10-05T19:11:07.971Z</time>
      </trkpt>
      <trkpt lat="51.891352" lon="8.956154">
        <ele>212.115920</ele>
        <time>2025-10-05T19:11:10.570Z</time>
      </trkpt>
      <trkpt lat="51.891529" lon="8.956206">
        <ele>212.060057</ele>
        <time>2025-10-05T19:11:14.630Z</time>
      </trkpt>
      <trkpt lat="51.891861" lon="8.956265">
        <ele>211.956336</ele>
        <time>2025-10-05T19:11:21.733Z</time>
      </trkpt>
      <trkpt lat="51.892930" lon="8.956331">
        <ele>210.436387</ele>
        <time>2025-10-05T19:11:39.676Z</time>
      </trkpt>
      <trkpt lat="51.893005" lon="8.956347">
        <ele>210.125726</ele>
        <time>2025-10-05T19:11:40.835Z</time>
      </trkpt>
      <trkpt lat="51.893285" lon="8.956436">
        <ele>208.953932</ele>
        <time>2025-10-05T19:11:45.238Z</time>
      </trkpt>
      <trkpt lat="51.893711" lon="8.956686">
        <ele>207.093274</ele>
        <time>2025-10-05T19:11:52.221Z</time>
      </trkpt>
      <trkpt lat="51.894758" lon="8.957663">
        <ele>201.936353</ele>
        <time>2025-10-05T19:12:10.716Z</time>
      </trkpt>
      <trkpt lat="51.895298" lon="8.957926">
        <ele>199.415539</ele>
        <time>2025-10-05T19:12:19.296Z</time>
      </trkpt>
      <trkpt lat="51.895804" lon="8.958047">
        <ele>197.128908</ele>
        <time>2025-10-05T19:12:27.228Z</time>
      </trkpt>
      <trkpt lat="51.895873" lon="8.958215">
        <ele>196.572162</ele>
        <time>2025-10-05T19:12:29.170Z</time>
      </trkpt>
      <trkpt lat="51.895927" lon="8.958220">
        <ele>196.330355</ele>
        <time>2025-10-05T19:12:30.010Z</time>
      </trkpt>
      <trkpt lat="51.895998" lon="8.958222">
        <ele>196.085338</ele>
        <time>2025-10-05T19:12:31.120Z</time>
      </trkpt>
      <trkpt lat="51.896026" lon="8.957446">
        <ele>194.494087</ele>
        <time>2025-10-05T19:12:38.688Z</time>
      </trkpt>
      <trkpt lat="51.896071" lon="8.956971">
        <ele>193.510331</ele>
        <time>2025-10-05T19:12:43.427Z</time>
      </trkpt>
      <trkpt lat="51.896119" lon="8.956621">
        <ele>192.776372</ele>
        <time>2025-10-05T19:12:47.013Z</time>
      </trkpt>
      <trkpt lat="51.896152" lon="8.956380">
        <ele>192.271027</ele>
        <time>2025-10-05T19:12:49.500Z</time>
      </trkpt>
      <trkpt lat="51.896197" lon="8.956057">
        <ele>191.593179</ele>
        <time>2025-10-05T19:12:52.877Z</time>
      </trkpt>
      <trkpt lat="51.896333" lon="8.955547">
        <ele>190.455861</ele>
        <time>2025-10-05T19:12:58.594Z</time>
      </trkpt>
      <trkpt lat="51.896352" lon="8.955348">
        <ele>190.344898</ele>
        <time>2025-10-05T19:13:00.694Z</time>
      </trkpt>
      <trkpt lat="51.896491" lon="8.954650">
        <ele>190.439447</ele>
        <time>2025-10-05T19:13:08.602Z</time>
      </trkpt>
      <trkpt lat="51.896500" lon="8.954484">
        <ele>190.460929</ele>
        <time>2025-10-05T19:13:10.545Z</time>
      </trkpt>
      <trkpt lat="51.896481" lon="8.954390">
        <ele>190.473680</ele>
        <time>2025-10-05T19:13:11.759Z</time>
      </trkpt>
      <trkpt lat="51.896526" lon="8.954285">
        <ele>190.490160</ele>
        <time>2025-10-05T19:13:13.340Z</time>
      </trkpt>
      <trkpt lat="51.896586" lon="8.954007">
        <ele>190.528126</ele>
        <time>2025-10-05T19:13:17.174Z</time>
      </trkpt>
      <trkpt lat="51.896599" lon="8.953938">
        <ele>190.537426</ele>
        <time>2025-10-05T19:13:18.154Z</time>
      </trkpt>
      <trkpt lat="51.896630" lon="8.953798">
        <ele>190.556600</ele>
        <time>2025-10-05T19:13:20.166Z</time>
      </trkpt>
      <trkpt lat="51.896808" lon="8.953101">
        <ele>190.653841</ele>
        <time>2025-10-05T19:13:30.933Z</time>
      </trkpt>
      <trkpt lat="51.896951" lon="8.952768">
        <ele>190.771929</ele>
        <time>2025-10-05T19:13:36.966Z</time>
      </trkpt>
      <trkpt lat="51.897469" lon="8.951654">
        <ele>194.487117</ele>
        <time>2025-10-05T19:13:58.933Z</time>
      </trkpt>
      <trkpt lat="51.897781" lon="8.950981">
        <ele>196.729120</ele>
        <time>2025-10-05T19:14:13.245Z</time>
      </trkpt>
      <trkpt lat="51.898036" lon="8.950533">
        <ele>198.352447</ele>
        <time>2025-10-05T19:14:23.276Z</time>
      </trkpt>
      <trkpt lat="51.898410" lon="8.949882">
        <ele>199.979373</ele>
        <time>2025-10-05T19:14:37.303Z</time>
      </trkpt>
      <trkpt lat="51.898483" lon="8.949759">
        <ele>200.284340</ele>
        <time>2025-10-05T19:14:39.922Z</time>
      </trkpt>
      <trkpt lat="51.898511" lon="8.949710">
        <ele>200.403681</ele>
        <time>2025-10-05T19:14:40.950Z</time>
      </trkpt>
      <trkpt lat="51.898551" lon="8.949641">
        <ele>200.572862</ele>
        <time>2025-10-05T19:14:42.405Z</time>
      </trkpt>
      <trkpt lat="51.899344" lon="8.948280">
        <ele>203.573073</ele>
        <time>2025-10-05T19:15:09.652Z</time>
      </trkpt>
      <trkpt lat="51.899737" lon="8.947635">
        <ele>202.892416</ele>
        <time>2025-10-05T19:15:22.042Z</time>
      </trkpt>
      <trkpt lat="51.900792" lon="8.946157">
        <ele>199.830624</ele>
        <time>2025-10-05T19:15:46.264Z</time>
      </trkpt>
      <trkpt lat="51.901110" lon="8.945280">
        <ele>195.483433</ele>
        <time>2025-10-05T19:15:55.189Z</time>
      </trkpt>
      <trkpt lat="51.901255" lon="8.944980">
        <ele>193.854845</ele>
        <time>2025-10-05T19:15:58.444Z</time>
      </trkpt>
      <trkpt lat="51.901329" lon="8.944830">
        <ele>193.034105</ele>
        <time>2025-10-05T19:16:00.083Z</time>
      </trkpt>
      <trkpt lat="51.901401" lon="8.944710">
        <ele>192.318791</ele>
        <time>2025-10-05T19:16:01.509Z</time>
      </trkpt>
      <trkpt lat="51.901667" lon="8.944371">
        <ele>189.975060</ele>
        <time>2025-10-05T19:16:06.159Z</time>
      </trkpt>
      <trkpt lat="51.901913" lon="8.944155">
        <ele>188.232352</ele>
        <time>2025-10-05T19:16:10.045Z</time>
      </trkpt>
      <trkpt lat="51.902070" lon="8.944104">
        <ele>187.341578</ele>
        <time>2025-10-05T19:16:12.288Z</time>
      </trkpt>
      <trkpt lat="51.902701" lon="8.944010">
        <ele>183.816476</ele>
        <time>2025-10-05T19:16:21.603Z</time>
      </trkpt>
      <trkpt lat="51.902951" lon="8.943915">
        <ele>182.387991</ele>
        <time>2025-10-05T19:16:25.547Z</time>
      </trkpt>
      <trkpt lat="51.903302" lon="8.943617">
        <ele>180.183670</ele>
        <time>2025-10-05T19:16:31.775Z</time>
      </trkpt>
      <trkpt lat="51.903669" lon="8.943144">
        <ele>178.176931</ele>
        <time>2025-10-05T19:16:39.291Z</time>
      </trkpt>
      <trkpt lat="51.903840" lon="8.942985">
        <ele>177.536148</ele>
        <time>2025-10-05T19:16:42.485Z</time>
      </trkpt>
      <trkpt lat="51.904364" lon="8.942870">
        <ele>175.817407</ele>
        <time>2025-10-05T19:16:51.001Z</time>
      </trkpt>
      <trkpt lat="51.904974" lon="8.942567">
        <ele>173.743658</ele>
        <time>2025-10-05T19:17:01.373Z</time>
      </trkpt>
      <trkpt lat="51.905406" lon="8.942194">
        <ele>172.600202</ele>
        <time>2025-10-05T19:17:09.637Z</time>
      </trkpt>
      <trkpt lat="51.905532" lon="8.942027">
        <ele>172.302440</ele>
        <time>2025-10-05T19:17:12.464Z</time>
      </trkpt>
      <trkpt lat="51.905625" lon="8.941798">
        <ele>171.993002</ele>
        <time>2025-10-05T19:17:15.438Z</time>
      </trkpt>
      <trkpt lat="51.906132" lon="8.939705">
        <ele>169.497900</ele>
        <time>2025-10-05T19:17:41.296Z</time>
      </trkpt>
      <trkpt lat="51.906410" lon="8.938736">
        <ele>168.411527</ele>
        <time>2025-10-05T19:17:53.328Z</time>
      </trkpt>
      <trkpt lat="51.906782" lon="8.937750">
        <ele>167.236608</ele>
        <time>2025-10-05T19:18:05.978Z</time>
      </trkpt>
      <trkpt lat="51.907251" lon="8.936810">
        <ele>166.092575</ele>
        <time>2025-10-05T19:18:19.529Z</time>
      </trkpt>
      <trkpt lat="51.907307" lon="8.936724">
        <ele>165.977268</ele>
        <time>2025-10-05T19:18:20.926Z</time>
      </trkpt>
      <trkpt lat="51.907592" lon="8.936321">
        <ele>165.411951</ele>
        <time>2025-10-05T19:18:27.780Z</time>
      </trkpt>
      <trkpt lat="51.907666" lon="8.936180">
        <ele>165.241245</ele>
        <time>2025-10-05T19:18:29.857Z</time>
      </trkpt>
      <trkpt lat="51.907771" lon="8.935876">
        <ele>164.919969</ele>
        <time>2025-10-05T19:18:33.824Z</time>
      </trkpt>
      <trkpt lat="51.908471" lon="8.936326">
        <ele>163.868754</ele>
        <time>2025-10-05T19:18:48.199Z</time>
      </trkpt>
      <trkpt lat="51.908554" lon="8.936379">
        <ele>163.757991</ele>
        <time>2025-10-05T19:18:49.878Z</time>
      </trkpt>
      <trkpt lat="51.909034" lon="8.936683">
        <ele>163.118134</ele>
        <time>2025-10-05T19:18:59.351Z</time>
      </trkpt>
      <trkpt lat="51.909059" lon="8.936696">
        <ele>163.085535</ele>
        <time>2025-10-05T19:18:59.854Z</time>
      </trkpt>
      <trkpt lat="51.909135" lon="8.936504">
        <ele>162.910797</ele>
        <time>2025-10-05T19:19:02.489Z</time>
      </trkpt>
      <trkpt lat="51.909194" lon="8.936230">
        <ele>162.688503</ele>
        <time>2025-10-05T19:19:05.868Z</time>
      </trkpt>
      <trkpt lat="51.909246" lon="8.935626">
        <ele>162.221372</ele>
        <time>2025-10-05T19:19:13.083Z</time>
      </trkpt>
      <trkpt lat="51.909246" lon="8.935158">
        <ele>161.964122</ele>
        <time>2025-10-05T19:19:18.630Z</time>
      </trkpt>
      <trkpt lat="51.909198" lon="8.934294">
        <ele>161.788832</ele>
        <time>2025-10-05T19:19:29.194Z</time>
      </trkpt>
      <trkpt lat="51.909231" lon="8.933717">
        <ele>161.671741</ele>
        <time>2025-10-05T19:19:36.683Z</time>
      </trkpt>
      <trkpt lat="51.909306" lon="8.933267">
        <ele>161.577552</ele>
        <time>2025-10-05T19:19:42.977Z</time>
      </trkpt>
      <trkpt lat="51.909413" lon="8.932949">
        <ele>161.504359</ele>
        <time>2025-10-05T19:19:47.868Z</time>
      </trkpt>
      <trkpt lat="51.909492" lon="8.932382">
        <ele>161.280508</ele>
        <time>2025-10-05T19:19:55.436Z</time>
      </trkpt>
      <trkpt lat="51.909577" lon="8.931719">
        <ele>160.545975</ele>
        <time>2025-10-05T19:20:03.769Z</time>
      </trkpt>
      <trkpt lat="51.909651" lon="8.931243">
        <ele>160.013508</ele>
        <time>2025-10-05T19:20:09.432Z</time>
      </trkpt>
      <trkpt lat="51.909836" lon="8.930012">
        <ele>158.639178</ele>
        <time>2025-10-05T19:20:22.744Z</time>
      </trkpt>
      <trkpt lat="51.909903" lon="8.929726">
        <ele>158.307335</ele>
        <time>2025-10-05T19:20:25.802Z</time>
      </trkpt>
      <trkpt lat="51.910097" lon="8.929212">
        <ele>157.514240</ele>
        <time>2025-10-05T19:20:31.846Z</time>
      </trkpt>
      <trkpt lat="51.910207" lon="8.929007">
        <ele>157.150434</ele>
        <time>2025-10-05T19:20:34.622Z</time>
      </trkpt>
      <trkpt lat="51.910740" lon="8.927769">
        <ele>155.128966</ele>
        <time>2025-10-05T19:20:50.981Z</time>
      </trkpt>
      <trkpt lat="51.910958" lon="8.927420">
        <ele>154.463929</ele>
        <time>2025-10-05T19:20:56.616Z</time>
      </trkpt>
      <trkpt lat="51.911138" lon="8.927033">
        <ele>154.056084</ele>
        <time>2025-10-05T19:21:02.127Z</time>
      </trkpt>
      <trkpt lat="51.911331" lon="8.926046">
        <ele>153.300856</ele>
        <time>2025-10-05T19:21:14.188Z</time>
      </trkpt>
      <trkpt lat="51.911395" lon="8.925429">
        <ele>152.844494</ele>
        <time>2025-10-05T19:21:21.543Z</time>
      </trkpt>
      <trkpt lat="51.911442" lon="8.924695">
        <ele>152.306235</ele>
        <time>2025-10-05T19:21:30.248Z</time>
      </trkpt>
      <trkpt lat="51.911451" lon="8.924551">
        <ele>152.209973</ele>
        <time>2025-10-05T19:21:31.999Z</time>
      </trkpt>
      <trkpt lat="51.911542" lon="8.923791">
        <ele>151.950663</ele>
        <time>2025-10-05T19:21:41.537Z</time>
      </trkpt>
      <trkpt lat="51.911592" lon="8.923618">
        <ele>151.886673</ele>
        <time>2025-10-05T19:21:43.927Z</time>
      </trkpt>
      <trkpt lat="51.911761" lon="8.923276">
        <ele>151.739900</ele>
        <time>2025-10-05T19:21:49.443Z</time>
      </trkpt>
      <trkpt lat="51.912115" lon="8.922587">
        <ele>151.439563</ele>
        <time>2025-10-05T19:22:00.755Z</time>
      </trkpt>
      <trkpt lat="51.912133" lon="8.922550">
        <ele>151.423780</ele>
        <time>2025-10-05T19:22:01.347Z</time>
      </trkpt>
      <trkpt lat="51.912424" lon="8.921953">
        <ele>151.124174</ele>
        <time>2025-10-05T19:22:10.921Z</time>
      </trkpt>
      <trkpt lat="51.912684" lon="8.921251">
        <ele>150.680255</ele>
        <time>2025-10-05T19:22:20.993Z</time>
      </trkpt>
      <trkpt lat="51.912795" lon="8.920949">
        <ele>150.489666</ele>
        <time>2025-10-05T19:22:25.172Z</time>
      </trkpt>
      <trkpt lat="51.913774" lon="8.918298">
        <ele>149.029331</ele>
        <time>2025-10-05T19:23:01.689Z</time>
      </trkpt>
      <trkpt lat="51.913845" lon="8.918102">
        <ele>148.937389</ele>
        <time>2025-10-05T19:23:04.560Z</time>
      </trkpt>
      <trkpt lat="51.913873" lon="8.918028">
        <ele>148.902273</ele>
        <time>2025-10-05T19:23:05.692Z</time>
      </trkpt>
      <trkpt lat="51.914328" lon="8.916994">
        <ele>148.453057</ele>
        <time>2025-10-05T19:23:22.148Z</time>
      </trkpt>
      <trkpt lat="51.914635" lon="8.916147">
        <ele>148.332990</ele>
        <time>2025-10-05T19:23:34.663Z</time>
      </trkpt>
      <trkpt lat="51.914867" lon="8.915326">
        <ele>148.222622</ele>
        <time>2025-10-05T19:23:46.045Z</time>
      </trkpt>
      <trkpt lat="51.914896" lon="8.915107">
        <ele>148.195246</ele>
        <time>2025-10-05T19:23:48.893Z</time>
      </trkpt>
      <trkpt lat="51.914945" lon="8.913990">
        <ele>148.444087</ele>
        <time>2025-10-05T19:24:03.259Z</time>
      </trkpt>
      <trkpt lat="51.914922" lon="8.913520">
        <ele>148.721965</ele>
        <time>2025-10-05T19:24:09.490Z</time>
      </trkpt>
      <trkpt lat="51.914848" lon="8.913156">
        <ele>148.947851</ele>
        <time>2025-10-05T19:24:14.695Z</time>
      </trkpt>
      <trkpt lat="51.914863" lon="8.912922">
        <ele>149.086509</ele>
        <time>2025-10-05T19:24:17.953Z</time>
      </trkpt>
      <trkpt lat="51.914819" lon="8.912898">
        <ele>149.130866</ele>
        <time>2025-10-05T19:24:18.991Z</time>
      </trkpt>
      <trkpt lat="51.914833" lon="8.912834">
        <ele>149.170888</ele>
        <time>2025-10-05T19:24:20.165Z</time>
      </trkpt>
      <trkpt lat="51.915539" lon="8.913118">
        <ele>149.876053</ele>
        <time>2025-10-05T19:24:37.118Z</time>
      </trkpt>
      <trkpt lat="51.916604" lon="8.913613">
        <ele>151.407003</ele>
        <time>2025-10-05T19:25:03.086Z</time>
      </trkpt>
      <trkpt lat="51.917468" lon="8.910482">
        <ele>152.335333</ele>
        <time>2025-10-05T19:25:48.604Z</time>
      </trkpt>
      <trkpt lat="51.917532" lon="8.910282">
        <ele>152.335972</ele>
        <time>2025-10-05T19:25:51.352Z</time>
      </trkpt>
      <trkpt lat="51.917607" lon="8.909788">
        <ele>152.276599</ele>
        <time>2025-10-05T19:25:57.504Z</time>
      </trkpt>
      <trkpt lat="51.917746" lon="8.909117">
        <ele>152.020338</ele>
        <time>2025-10-05T19:26:06.186Z</time>
      </trkpt>
      <trkpt lat="51.918002" lon="8.908149">
        <ele>151.639034</ele>
        <time>2025-10-05T19:26:19.181Z</time>
      </trkpt>
      <trkpt lat="51.918120" lon="8.907831">
        <ele>151.504679</ele>
        <time>2025-10-05T19:26:23.835Z</time>
      </trkpt>
      <trkpt lat="51.918603" lon="8.906584">
        <ele>151.102546</ele>
        <time>2025-10-05T19:26:42.042Z</time>
      </trkpt>
      <trkpt lat="51.918913" lon="8.906071">
        <ele>150.952517</ele>
        <time>2025-10-05T19:26:50.882Z</time>
      </trkpt>
      <trkpt lat="51.919276" lon="8.905349">
        <ele>150.757929</ele>
        <time>2025-10-05T19:27:02.684Z</time>
      </trkpt>
      <trkpt lat="51.919954" lon="8.904590">
        <ele>150.291948</ele>
        <time>2025-10-05T19:27:20.563Z</time>
      </trkpt>
      <trkpt lat="51.920280" lon="8.904225">
        <ele>150.027894</ele>
        <time>2025-10-05T19:27:29.077Z</time>
      </trkpt>
      <trkpt lat="51.920646" lon="8.903696">
        <ele>149.701098</ele>
        <time>2025-10-05T19:27:38.480Z</time>
      </trkpt>
      <trkpt lat="51.920814" lon="8.903455">
        <ele>149.551591</ele>
        <time>2025-10-05T19:27:42.486Z</time>
      </trkpt>
      <trkpt lat="51.920900" lon="8.903310">
        <ele>149.465709</ele>
        <time>2025-10-05T19:27:44.629Z</time>
      </trkpt>
      <trkpt lat="51.920844" lon="8.902791">
        <ele>149.088492</ele>
        <time>2025-10-05T19:27:50.121Z</time>
      </trkpt>
      <trkpt lat="51.920827" lon="8.902552">
        <ele>148.916248</ele>
        <time>2025-10-05T19:27:52.601Z</time>
      </trkpt>
      <trkpt lat="51.920851" lon="8.902361">
        <ele>148.776694</ele>
        <time>2025-10-05T19:27:54.627Z</time>
      </trkpt>
      <trkpt lat="51.921062" lon="8.902014">
        <ele>148.427823</ele>
        <time>2025-10-05T19:27:59.738Z</time>
      </trkpt>
      <trkpt lat="51.921095" lon="8.901514">
        <ele>148.067811</ele>
        <time>2025-10-05T19:28:05.348Z</time>
      </trkpt>
      <trkpt lat="51.921126" lon="8.900912">
        <ele>147.635317</ele>
        <time>2025-10-05T19:28:12.955Z</time>
      </trkpt>
      <trkpt lat="51.921146" lon="8.900726">
        <ele>147.500144</ele>
        <time>2025-10-05T19:28:15.552Z</time>
      </trkpt>
      <trkpt lat="51.921232" lon="8.899825">
        <ele>149.055416</ele>
        <time>2025-10-05T19:28:28.540Z</time>
      </trkpt>
      <trkpt lat="51.921320" lon="8.899793">
        <ele>149.380490</ele>
        <time>2025-10-05T19:28:30.732Z</time>
      </trkpt>
      <trkpt lat="51.921312" lon="8.899704">
        <ele>149.580431</ele>
        <time>2025-10-05T19:28:32.341Z</time>
      </trkpt>
      <trkpt lat="51.921447" lon="8.899672">
        <ele>150.072209</ele>
        <time>2025-10-05T19:28:36.330Z</time>
      </trkpt>
      <trkpt lat="51.921502" lon="8.899673">
        <ele>150.270468</ele>
        <time>2025-10-05T19:28:37.746Z</time>
      </trkpt>
      <trkpt lat="51.921595" lon="8.899650">
        <ele>150.609562</ele>
        <time>2025-10-05T19:28:40.183Z</time>
      </trkpt>
      <trkpt lat="51.921585" lon="8.899598">
        <ele>150.730649</ele>
        <time>2025-10-05T19:28:41.055Z</time>
      </trkpt>
      <trkpt lat="51.921526" lon="8.899420">
        <ele>151.179875</ele>
        <time>2025-10-05T19:28:44.303Z</time>
      </trkpt>
      <trkpt lat="51.921694" lon="8.899229">
        <ele>151.919455</ele>
        <time>2025-10-05T19:28:49.723Z</time>
      </trkpt>
      <trkpt lat="51.921822" lon="8.899022">
        <ele>152.571082</ele>
        <time>2025-10-05T19:28:54.613Z</time>
      </trkpt>
      <trkpt lat="51.921873" lon="8.898840">
        <ele>153.015474</ele>
        <time>2025-10-05T19:28:58.004Z</time>
      </trkpt>
      <trkpt lat="51.921975" lon="8.898827">
        <ele>153.384266</ele>
        <time>2025-10-05T19:29:00.849Z</time>
      </trkpt>
      <trkpt lat="51.922759" lon="8.897713">
        <ele>156.509518</ele>
        <time>2025-10-05T19:29:29.078Z</time>
      </trkpt>
      <trkpt lat="51.922905" lon="8.897505">
        <ele>157.074745</ele>
        <time>2025-10-05T19:29:33.908Z</time>
      </trkpt>
      <trkpt lat="51.923347" lon="8.896927">
        <ele>158.726172</ele>
        <time>2025-10-05T19:29:46.928Z</time>
      </trkpt>
      <trkpt lat="51.923877" lon="8.896367">
        <ele>157.457619</ele>
        <time>2025-10-05T19:29:57.868Z</time>
      </trkpt>
      <trkpt lat="51.923966" lon="8.896306">
        <ele>157.142995</ele>
        <time>2025-10-05T19:30:00.603Z</time>
      </trkpt>
      <trkpt lat="51.924014" lon="8.896308">
        <ele>156.986647</ele>
        <time>2025-10-05T19:30:01.979Z</time>
      </trkpt>
      <trkpt lat="51.924246" lon="8.896490">
        <ele>156.147453</ele>
        <time>2025-10-05T19:30:09.111Z</time>
      </trkpt>
      <trkpt lat="51.924440" lon="8.896684">
        <ele>155.405292</ele>
        <time>2025-10-05T19:30:13.908Z</time>
      </trkpt>
      <trkpt lat="51.924662" lon="8.896886">
        <ele>154.576391</ele>
        <time>2025-10-05T19:30:19.297Z</time>
      </trkpt>
      <trkpt lat="51.924784" lon="8.896865">
        <ele>154.176907</ele>
        <time>2025-10-05T19:30:21.909Z</time>
      </trkpt>
      <trkpt lat="51.924963" lon="8.896752">
        <ele>153.551441</ele>
        <time>2025-10-05T19:30:26.036Z</time>
      </trkpt>
      <trkpt lat="51.925046" lon="8.896727">
        <ele>153.276556</ele>
        <time>2025-10-05T19:30:27.426Z</time>
      </trkpt>
      <trkpt lat="51.925149" lon="8.896723">
        <ele>153.012628</ele>
        <time>2025-10-05T19:30:29.068Z</time>
      </trkpt>
      <trkpt lat="51.925201" lon="8.896780">
        <ele>152.856719</ele>
        <time>2025-10-05T19:30:30.060Z</time>
      </trkpt>
      <trkpt lat="51.925246" lon="8.896711">
        <ele>152.702880</ele>
        <time>2025-10-05T19:30:31.060Z</time>
      </trkpt>
      <trkpt lat="51.925885" lon="8.896455">
        <ele>151.067900</ele>
        <time>2025-10-05T19:30:42.086Z</time>
      </trkpt>
      <trkpt lat="51.926047" lon="8.896390">
        <ele>150.653362</ele>
        <time>2025-10-05T19:30:45.058Z</time>
      </trkpt>
      <trkpt lat="51.927275" lon="8.896195">
        <ele>147.559058</ele>
        <time>2025-10-05T19:31:07.311Z</time>
      </trkpt>
      <trkpt lat="51.927373" lon="8.896230">
        <ele>147.303619</ele>
        <time>2025-10-05T19:31:09.002Z</time>
      </trkpt>
      <trkpt lat="51.927721" lon="8.896324">
        <ele>146.405576</ele>
        <time>2025-10-05T19:31:14.921Z</time>
      </trkpt>
      <trkpt lat="51.928425" lon="8.896271">
        <ele>144.611603</ele>
        <time>2025-10-05T19:31:26.537Z</time>
      </trkpt>
      <trkpt lat="51.929376" lon="8.896212">
        <ele>142.784253</ele>
        <time>2025-10-05T19:31:42.182Z</time>
      </trkpt>
      <trkpt lat="51.929577" lon="8.896201">
        <ele>142.424098</ele>
        <time>2025-10-05T19:31:45.657Z</time>
      </trkpt>
      <trkpt lat="51.929581" lon="8.896200">
        <ele>142.416850</ele>
        <time>2025-10-05T19:31:45.736Z</time>
      </trkpt>
      <trkpt lat="51.929778" lon="8.896186">
        <ele>142.063725</ele>
        <time>2025-10-05T19:31:49.247Z</time>
      </trkpt>
      <trkpt lat="51.929818" lon="8.896183">
        <ele>141.992017</ele>
        <time>2025-10-05T19:31:49.994Z</time>
      </trkpt>
      <trkpt lat="51.929841" lon="8.896122">
        <ele>141.913063</ele>
        <time>2025-10-05T19:31:51.101Z</time>
      </trkpt>
      <trkpt lat="51.930235" lon="8.896093">
        <ele>141.206763</ele>
        <time>2025-10-05T19:31:58.858Z</time>
      </trkpt>
      <trkpt lat="51.930374" lon="8.896085">
        <ele>140.988998</ele>
        <time>2025-10-05T19:32:01.920Z</time>
      </trkpt>
      <trkpt lat="51.930626" lon="8.895997">
        <ele>141.336463</ele>
        <time>2025-10-05T19:32:07.643Z</time>
      </trkpt>
      <trkpt lat="51.930953" lon="8.895829">
        <ele>141.798825</ele>
        <time>2025-10-05T19:32:15.547Z</time>
      </trkpt>
      <trkpt lat="51.930970" lon="8.895815">
        <ele>141.824525</ele>
        <time>2025-10-05T19:32:15.987Z</time>
      </trkpt>
      <trkpt lat="51.931140" lon="8.895510">
        <ele>142.166244</ele>
        <time>2025-10-05T19:32:21.911Z</time>
      </trkpt>
      <trkpt lat="51.931181" lon="8.895333">
        <ele>142.323395</ele>
        <time>2025-10-05T19:32:24.658Z</time>
      </trkpt>
      <trkpt lat="51.931155" lon="8.894866">
        <ele>142.713119</ele>
        <time>2025-10-05T19:32:31.527Z</time>
      </trkpt>
      <trkpt lat="51.931194" lon="8.894497">
        <ele>143.024284</ele>
        <time>2025-10-05T19:32:36.972Z</time>
      </trkpt>
      <trkpt lat="51.931912" lon="8.893459">
        <ele>143.319824</ele>
        <time>2025-10-05T19:32:58.527Z</time>
      </trkpt>
      <trkpt lat="51.931706" lon="8.893307">
        <ele>143.293262</ele>
        <time>2025-10-05T19:33:03.074Z</time>
      </trkpt>
      <trkpt lat="51.931802" lon="8.892967">
        <ele>143.266199</ele>
        <time>2025-10-05T19:33:07.655Z</time>
      </trkpt>
      <trkpt lat="51.932113" lon="8.890774">
        <ele>142.634137</ele>
        <time>2025-10-05T19:33:34.341Z</time>
      </trkpt>
      <trkpt lat="51.932524" lon="8.888151">
        <ele>141.318765</ele>
        <time>2025-10-05T19:34:07.950Z</time>
      </trkpt>
      <trkpt lat="51.932643" lon="8.887444">
        <ele>140.940676</ele>
        <time>2025-10-05T19:34:19.939Z</time>
      </trkpt>
      <trkpt lat="51.932643" lon="8.887223">
        <ele>140.826661</ele>
        <time>2025-10-05T19:34:23.546Z</time>
      </trkpt>
      <trkpt lat="51.932590" lon="8.886645">
        <ele>140.525190</ele>
        <time>2025-10-05T19:34:33.009Z</time>
      </trkpt>
      <trkpt lat="51.932574" lon="8.886468">
        <ele>140.432899</ele>
        <time>2025-10-05T19:34:35.936Z</time>
      </trkpt>
      <trkpt lat="51.932564" lon="8.886334">
        <ele>140.363263</ele>
        <time>2025-10-05T19:34:38.072Z</time>
      </trkpt>
      <trkpt lat="51.932599" lon="8.886193">
        <ele>140.272231</ele>
        <time>2025-10-05T19:34:40.460Z</time>
      </trkpt>
      <trkpt lat="51.932616" lon="8.886110">
        <ele>140.208219</ele>
        <time>2025-10-05T19:34:41.442Z</time>
      </trkpt>
      <trkpt lat="51.932632" lon="8.886030">
        <ele>140.146664</ele>
        <time>2025-10-05T19:34:42.390Z</time>
      </trkpt>
      <trkpt lat="51.932727" lon="8.885803">
        <ele>139.945866</ele>
        <time>2025-10-05T19:34:45.444Z</time>
      </trkpt>
      <trkpt lat="51.933023" lon="8.884903">
        <ele>139.199307</ele>
        <time>2025-10-05T19:34:57.240Z</time>
      </trkpt>
      <trkpt lat="51.933043" lon="8.884842">
        <ele>139.148741</ele>
        <time>2025-10-05T19:34:58.070Z</time>
      </trkpt>
      <trkpt lat="51.933093" lon="8.884643">
        <ele>138.991465</ele>
        <time>2025-10-05T19:35:00.678Z</time>
      </trkpt>
      <trkpt lat="51.933141" lon="8.884405">
        <ele>138.808193</ele>
        <time>2025-10-05T19:35:03.651Z</time>
      </trkpt>
      <trkpt lat="51.933221" lon="8.884054">
        <ele>138.534308</ele>
        <time>2025-10-05T19:35:08.046Z</time>
      </trkpt>
      <trkpt lat="51.933250" lon="8.883931">
        <ele>138.437928</ele>
        <time>2025-10-05T19:35:09.574Z</time>
      </trkpt>
      <trkpt lat="51.933388" lon="8.883503">
        <ele>138.164510</ele>
        <time>2025-10-05T19:35:15.202Z</time>
      </trkpt>
      <trkpt lat="51.933446" lon="8.883371">
        <ele>138.145335</ele>
        <time>2025-10-05T19:35:17.124Z</time>
      </trkpt>
      <trkpt lat="51.933580" lon="8.883076">
        <ele>138.101987</ele>
        <time>2025-10-05T19:35:21.395Z</time>
      </trkpt>
      <trkpt lat="51.933781" lon="8.882872">
        <ele>138.056492</ele>
        <time>2025-10-05T19:35:26.182Z</time>
      </trkpt>
      <trkpt lat="51.933921" lon="8.882789">
        <ele>138.027891</ele>
        <time>2025-10-05T19:35:29.355Z</time>
      </trkpt>
      <trkpt lat="51.934084" lon="8.882649">
        <ele>137.992502</ele>
        <time>2025-10-05T19:35:33.358Z</time>
      </trkpt>
      <trkpt lat="51.934147" lon="8.882533">
        <ele>137.974214</ele>
        <time>2025-10-05T19:35:35.413Z</time>
      </trkpt>
      <trkpt lat="51.934192" lon="8.882566">
        <ele>137.964738</ele>
        <time>2025-10-05T19:35:36.780Z</time>
      </trkpt>
      <trkpt lat="51.934244" lon="8.882579">
        <ele>137.954643</ele>
        <time>2025-10-05T19:35:38.234Z</time>
      </trkpt>
      <trkpt lat="51.934567" lon="8.882860">
        <ele>137.884316</ele>
        <time>2025-10-05T19:35:48.376Z</time>
      </trkpt>
      <trkpt lat="51.934589" lon="8.882875">
        <ele>137.879737</ele>
        <time>2025-10-05T19:35:49.053Z</time>
      </trkpt>
      <trkpt lat="51.934624" lon="8.882889">
        <ele>137.872820</ele>
        <time>2025-10-05T19:35:50.053Z</time>
      </trkpt>
      <trkpt lat="51.934688" lon="8.882928">
        <ele>137.859702</ele>
        <time>2025-10-05T19:35:51.525Z</time>
      </trkpt>
      <trkpt lat="51.934734" lon="8.882959">
        <ele>137.850144</ele>
        <time>2025-10-05T19:35:52.611Z</time>
      </trkpt>
      <trkpt lat="51.934756" lon="8.882977">
        <ele>137.845417</ele>
        <time>2025-10-05T19:35:53.308Z</time>
      </trkpt>
      <trkpt lat="51.934780" lon="8.882985">
        <ele>137.840715</ele>
        <time>2025-10-05T19:35:53.981Z</time>
      </trkpt>
      <trkpt lat="51.934961" lon="8.883047">
        <ele>137.786590</ele>
        <time>2025-10-05T19:35:59.132Z</time>
      </trkpt>
      <trkpt lat="51.935170" lon="8.883120">
        <ele>137.719769</ele>
        <time>2025-10-05T19:36:05.116Z</time>
      </trkpt>
      <trkpt lat="51.936077" lon="8.883455">
        <ele>137.429025</ele>
        <time>2025-10-05T19:36:30.734Z</time>
      </trkpt>
      <trkpt lat="51.936109" lon="8.883464">
        <ele>137.418874</ele>
        <time>2025-10-05T19:36:31.565Z</time>
      </trkpt>
      <trkpt lat="51.936199" lon="8.883500">
        <ele>137.389902</ele>
        <time>2025-10-05T19:36:33.938Z</time>
      </trkpt>
      <trkpt lat="51.936414" lon="8.883559">
        <ele>137.321747</ele>
        <time>2025-10-05T19:36:39.465Z</time>
      </trkpt>
      <trkpt lat="51.936963" lon="8.883624">
        <ele>137.088214</ele>
        <time>2025-10-05T19:36:53.083Z</time>
      </trkpt>
      <trkpt lat="51.937036" lon="8.883708">
        <ele>137.046251</ele>
        <time>2025-10-05T19:36:55.332Z</time>
      </trkpt>
      <trkpt lat="51.937085" lon="8.883697">
        <ele>137.023060</ele>
        <time>2025-10-05T19:36:56.568Z</time>
      </trkpt>
      <trkpt lat="51.937161" lon="8.883690">
        <ele>136.987371</ele>
        <time>2025-10-05T19:36:58.511Z</time>
      </trkpt>
      <trkpt lat="51.937216" lon="8.883687">
        <ele>136.961571</ele>
        <time>2025-10-05T19:36:59.931Z</time>
      </trkpt>
      <trkpt lat="51.937674" lon="8.883575">
        <ele>136.744419</ele>
        <time>2025-10-05T19:37:12.396Z</time>
      </trkpt>
      <trkpt lat="51.937701" lon="8.883565">
        <ele>136.731435</ele>
        <time>2025-10-05T19:37:13.151Z</time>
      </trkpt>
      <trkpt lat="51.937757" lon="8.883511">
        <ele>136.700891</ele>
        <time>2025-10-05T19:37:14.956Z</time>
      </trkpt>
      <trkpt lat="51.937824" lon="8.883411">
        <ele>136.658205</ele>
        <time>2025-10-05T19:37:17.477Z</time>
      </trkpt>
      <trkpt lat="51.937861" lon="8.883350">
        <ele>136.633470</ele>
        <time>2025-10-05T19:37:18.944Z</time>
      </trkpt>
      <trkpt lat="51.937890" lon="8.883209">
        <ele>136.590508</ele>
        <time>2025-10-05T19:37:21.477Z</time>
      </trkpt>
      <trkpt lat="51.938239" lon="8.882186">
        <ele>137.165040</ele>
        <time>2025-10-05T19:37:41.611Z</time>
      </trkpt>
      <trkpt lat="51.938376" lon="8.881932">
        <ele>137.570820</ele>
        <time>2025-10-05T19:37:47.438Z</time>
      </trkpt>
      <trkpt lat="51.938469" lon="8.881803">
        <ele>137.809471</ele>
        <time>2025-10-05T19:37:50.852Z</time>
      </trkpt>
      <trkpt lat="51.938719" lon="8.881549">
        <ele>138.384787</ele>
        <time>2025-10-05T19:37:59.154Z</time>
      </trkpt>
      <trkpt lat="51.938871" lon="8.881395">
        <ele>138.734304</ele>
        <time>2025-10-05T19:38:04.225Z</time>
      </trkpt>
      <trkpt lat="51.938948" lon="8.881326">
        <ele>138.905867</ele>
        <time>2025-10-05T19:38:06.711Z</time>
      </trkpt>
      <trkpt lat="51.939351" lon="8.880869">
        <ele>139.864848</ele>
        <time>2025-10-05T19:38:20.786Z</time>
      </trkpt>
      <trkpt lat="51.939836" lon="8.881588">
        <ele>142.828490</ele>
        <time>2025-10-05T19:38:37.815Z</time>
      </trkpt>
      <trkpt lat="51.940028" lon="8.881851">
        <ele>144.000534</ele>
        <time>2025-10-05T19:38:44.794Z</time>
      </trkpt>
      <trkpt lat="51.940287" lon="8.882240">
        <ele>145.646774</ele>
        <time>2025-10-05T19:38:54.832Z</time>
      </trkpt>
      <trkpt lat="51.940624" lon="8.882691">
        <ele>147.684379</ele>
        <time>2025-10-05T19:39:06.632Z</time>
      </trkpt>
      <trkpt lat="51.940819" lon="8.882971">
        <ele>148.568687</ele>
        <time>2025-10-05T19:39:13.287Z</time>
      </trkpt>
      <trkpt lat="51.941283" lon="8.883247">
        <ele>149.545092</ele>
        <time>2025-10-05T19:39:25.392Z</time>
      </trkpt>
      <trkpt lat="51.942228" lon="8.883810">
        <ele>151.534044</ele>
        <time>2025-10-05T19:39:48.300Z</time>
      </trkpt>
      <trkpt lat="51.942320" lon="8.883870">
        <ele>151.729946</ele>
        <time>2025-10-05T19:39:51.040Z</time>
      </trkpt>
      <trkpt lat="51.942422" lon="8.883930">
        <ele>151.885697</ele>
        <time>2025-10-05T19:39:54.046Z</time>
      </trkpt>
      <trkpt lat="51.943643" lon="8.884656">
        <ele>152.131667</ele>
        <time>2025-10-05T19:40:20.956Z</time>
      </trkpt>
      <trkpt lat="51.944060" lon="8.885013">
        <ele>152.229507</ele>
        <time>2025-10-05T19:40:31.075Z</time>
      </trkpt>
      <trkpt lat="51.944188" lon="8.885137">
        <ele>152.469164</ele>
        <time>2025-10-05T19:40:34.382Z</time>
      </trkpt>
      <trkpt lat="51.944216" lon="8.885161">
        <ele>152.520071</ele>
        <time>2025-10-05T19:40:35.082Z</time>
      </trkpt>
      <trkpt lat="51.944325" lon="8.885236">
        <ele>152.710398</ele>
        <time>2025-10-05T19:40:37.767Z</time>
      </trkpt>
      <trkpt lat="51.944509" lon="8.885365">
        <ele>153.032619</ele>
        <time>2025-10-05T19:40:42.355Z</time>
      </trkpt>
      <trkpt lat="51.945098" lon="8.885625">
        <ele>154.013865</ele>
        <time>2025-10-05T19:40:56.600Z</time>
      </trkpt>
      <trkpt lat="51.945711" lon="8.885824">
        <ele>155.018802</ele>
        <time>2025-10-05T19:41:11.242Z</time>
      </trkpt>
      <trkpt lat="51.945861" lon="8.885873">
        <ele>155.244165</ele>
        <time>2025-10-05T19:41:14.828Z</time>
      </trkpt>
      <trkpt lat="51.945992" lon="8.885912">
        <ele>155.429574</ele>
        <time>2025-10-05T19:41:17.935Z</time>
      </trkpt>
      <trkpt lat="51.946330" lon="8.886022">
        <ele>155.909475</ele>
        <time>2025-10-05T19:41:26.020Z</time>
      </trkpt>
      <trkpt lat="51.946479" lon="8.886071">
        <ele>156.121115</ele>
        <time>2025-10-05T19:41:29.558Z</time>
      </trkpt>
      <trkpt lat="51.946713" lon="8.886148">
        <ele>156.453498</ele>
        <time>2025-10-05T19:41:35.041Z</time>
      </trkpt>
      <trkpt lat="51.946767" lon="8.886221">
        <ele>156.551348</ele>
        <time>2025-10-05T19:41:36.646Z</time>
      </trkpt>
      <trkpt lat="51.946626" lon="8.886978">
        <ele>157.229921</ele>
        <time>2025-10-05T19:41:47.593Z</time>
      </trkpt>
      <trkpt lat="51.946609" lon="8.887103">
        <ele>157.339761</ele>
        <time>2025-10-05T19:41:49.789Z</time>
      </trkpt>
      <trkpt lat="51.946572" lon="8.887239">
        <ele>157.467321</ele>
        <time>2025-10-05T19:41:52.355Z</time>
      </trkpt>
      <trkpt lat="51.946521" lon="8.887693">
        <ele>157.672420</ele>
        <time>2025-10-05T19:42:00.287Z</time>
      </trkpt>
      <trkpt lat="51.946516" lon="8.887757">
        <ele>157.685238</ele>
        <time>2025-10-05T19:42:01.160Z</time>
      </trkpt>
      <trkpt lat="51.946841" lon="8.887849">
        <ele>157.791585</ele>
        <time>2025-10-05T19:42:08.359Z</time>
      </trkpt>
      <trkpt lat="51.947008" lon="8.887893">
        <ele>157.846122</ele>
        <time>2025-10-05T19:42:12.038Z</time>
      </trkpt>
      <trkpt lat="51.947160" lon="8.887971">
        <ele>157.897512</ele>
        <time>2025-10-05T19:42:15.486Z</time>
      </trkpt>
      <trkpt lat="51.947345" lon="8.888066">
        <ele>157.960063</ele>
        <time>2025-10-05T19:42:19.668Z</time>
      </trkpt>
      <trkpt lat="51.947411" lon="8.888200">
        <ele>157.994144</ele>
        <time>2025-10-05T19:42:21.959Z</time>
      </trkpt>
      <trkpt lat="51.947474" lon="8.888212">
        <ele>158.014591</ele>
        <time>2025-10-05T19:42:23.359Z</time>
      </trkpt>
      <trkpt lat="51.947548" lon="8.888129">
        <ele>158.043591</ele>
        <time>2025-10-05T19:42:25.342Z</time>
      </trkpt>
      <trkpt lat="51.947686" lon="8.888137">
        <ele>158.088103</ele>
        <time>2025-10-05T19:42:28.397Z</time>
      </trkpt>
      <trkpt lat="51.947722" lon="8.888106">
        <ele>158.101241</ele>
        <time>2025-10-05T19:42:29.298Z</time>
      </trkpt>
      <trkpt lat="51.948074" lon="8.888182">
        <ele>158.087188</ele>
        <time>2025-10-05T19:42:36.979Z</time>
      </trkpt>
      <trkpt lat="51.948209" lon="8.888218">
        <ele>157.861611</ele>
        <time>2025-10-05T19:42:39.893Z</time>
      </trkpt>
      <trkpt lat="51.948730" lon="8.888351">
        <ele>156.992006</ele>
        <time>2025-10-05T19:42:50.355Z</time>
      </trkpt>
      <trkpt lat="51.948857" lon="8.888383">
        <ele>156.780096</ele>
        <time>2025-10-05T19:42:52.778Z</time>
      </trkpt>
      <trkpt lat="51.949064" lon="8.888435">
        <ele>156.434723</ele>
        <time>2025-10-05T19:42:56.651Z</time>
      </trkpt>
      <trkpt lat="51.949503" lon="8.888555">
        <ele>155.700690</ele>
        <time>2025-10-05T19:43:04.561Z</time>
      </trkpt>
      <trkpt lat="51.949897" lon="8.888646">
        <ele>155.102446</ele>
        <time>2025-10-05T19:43:11.338Z</time>
      </trkpt>
      <trkpt lat="51.950660" lon="8.888863">
        <ele>154.226221</ele>
        <time>2025-10-05T19:43:25.652Z</time>
      </trkpt>
      <trkpt lat="51.950964" lon="8.889064">
        <ele>153.854895</ele>
        <time>2025-10-05T19:43:32.486Z</time>
      </trkpt>
      <trkpt lat="51.951198" lon="8.889344">
        <ele>153.526010</ele>
        <time>2025-10-05T19:43:38.639Z</time>
      </trkpt>
      <trkpt lat="51.951228" lon="8.889473">
        <ele>153.429886</ele>
        <time>2025-10-05T19:43:40.498Z</time>
      </trkpt>
      <trkpt lat="51.951307" lon="8.889611">
        <ele>153.298580</ele>
        <time>2025-10-05T19:43:43.136Z</time>
      </trkpt>
      <trkpt lat="51.951387" lon="8.889515">
        <ele>153.207932</ele>
        <time>2025-10-05T19:43:45.273Z</time>
      </trkpt>
      <trkpt lat="51.951437" lon="8.889458">
        <ele>153.317106</ele>
        <time>2025-10-05T19:43:46.622Z</time>
      </trkpt>
      <trkpt lat="51.951527" lon="8.889484">
        <ele>153.480426</ele>
        <time>2025-10-05T19:43:48.585Z</time>
      </trkpt>
      <trkpt lat="51.951598" lon="8.889453">
        <ele>153.611785</ele>
        <time>2025-10-05T19:43:50.233Z</time>
      </trkpt>
      <trkpt lat="51.951907" lon="8.889116">
        <ele>154.276958</ele>
        <time>2025-10-05T19:44:00.683Z</time>
      </trkpt>
      <trkpt lat="51.952094" lon="8.888958">
        <ele>154.653631</ele>
        <time>2025-10-05T19:44:06.609Z</time>
      </trkpt>
      <trkpt lat="51.952141" lon="8.889065">
        <ele>154.798309</ele>
        <time>2025-10-05T19:44:08.487Z</time>
      </trkpt>
      <trkpt lat="51.952190" lon="8.889165">
        <ele>154.938978</ele>
        <time>2025-10-05T19:44:10.327Z</time>
      </trkpt>
      <trkpt lat="51.952385" lon="8.888870">
        <ele>155.415297</ele>
        <time>2025-10-05T19:44:17.843Z</time>
      </trkpt>
      <trkpt lat="51.952446" lon="8.888761">
        <ele>155.577412</ele>
        <time>2025-10-05T19:44:20.419Z</time>
      </trkpt>
      <trkpt lat="51.952702" lon="8.889045">
        <ele>156.131459</ele>
        <time>2025-10-05T19:44:27.860Z</time>
      </trkpt>
      <trkpt lat="51.952762" lon="8.889052">
        <ele>156.238930</ele>
        <time>2025-10-05T19:44:29.327Z</time>
      </trkpt>
      <trkpt lat="51.953143" lon="8.889015">
        <ele>157.133958</ele>
        <time>2025-10-05T19:44:38.648Z</time>
      </trkpt>
      <trkpt lat="51.953258" lon="8.889040">
        <ele>157.427384</ele>
        <time>2025-10-05T19:44:41.468Z</time>
      </trkpt>
      <trkpt lat="51.953325" lon="8.889160">
        <ele>157.679753</ele>
        <time>2025-10-05T19:44:43.909Z</time>
      </trkpt>
      <trkpt lat="51.953865" lon="8.889251">
        <ele>159.052724</ele>
        <time>2025-10-05T19:44:57.083Z</time>
      </trkpt>
      <trkpt lat="51.954153" lon="8.889228">
        <ele>159.781940</ele>
        <time>2025-10-05T19:45:03.836Z</time>
      </trkpt>
      <trkpt lat="51.954654" lon="8.889053">
        <ele>161.032082</ele>
        <time>2025-10-05T19:45:15.761Z</time>
      </trkpt>
      <trkpt lat="51.955285" lon="8.889024">
        <ele>162.025076</ele>
        <time>2025-10-05T19:45:30.443Z</time>
      </trkpt>
      <trkpt lat="51.955476" lon="8.888973">
        <ele>162.329570</ele>
        <time>2025-10-05T19:45:34.933Z</time>
      </trkpt>
      <trkpt lat="51.955656" lon="8.888873">
        <ele>162.628855</ele>
        <time>2025-10-05T19:45:39.353Z</time>
      </trkpt>
      <trkpt lat="51.955746" lon="8.888798">
        <ele>162.788008</ele>
        <time>2025-10-05T19:45:41.691Z</time>
      </trkpt>
      <trkpt lat="51.957676" lon="8.887986">
        <ele>164.683798</ele>
        <time>2025-10-05T19:46:26.806Z</time>
      </trkpt>
      <trkpt lat="51.957814" lon="8.887929">
        <ele>164.777849</ele>
        <time>2025-10-05T19:46:29.817Z</time>
      </trkpt>
      <trkpt lat="51.958653" lon="8.887568">
        <ele>164.160851</ele>
        <time>2025-10-05T19:46:47.221Z</time>
      </trkpt>
      <trkpt lat="51.959064" lon="8.887393">
        <ele>163.556009</ele>
        <time>2025-10-05T19:46:54.907Z</time>
      </trkpt>
      <trkpt lat="51.959405" lon="8.887247">
        <ele>163.054001</ele>
        <time>2025-10-05T19:47:01.332Z</time>
      </trkpt>
      <trkpt lat="51.959778" lon="8.887083">
        <ele>162.503910</ele>
        <time>2025-10-05T19:47:08.174Z</time>
      </trkpt>
      <trkpt lat="51.960064" lon="8.886969">
        <ele>161.681650</ele>
        <time>2025-10-05T19:47:13.121Z</time>
      </trkpt>
      <trkpt lat="51.960404" lon="8.886824">
        <ele>160.568022</ele>
        <time>2025-10-05T19:47:18.840Z</time>
      </trkpt>
      <trkpt lat="51.960681" lon="8.886697">
        <ele>159.656190</ele>
        <time>2025-10-05T19:47:23.410Z</time>
      </trkpt>
      <trkpt lat="51.961178" lon="8.886478">
        <ele>158.024781</ele>
        <time>2025-10-05T19:47:31.641Z</time>
      </trkpt>
      <trkpt lat="51.961202" lon="8.886468">
        <ele>157.946288</ele>
        <time>2025-10-05T19:47:32.039Z</time>
      </trkpt>
      <trkpt lat="51.961517" lon="8.886318">
        <ele>156.906356</ele>
        <time>2025-10-05T19:47:37.335Z</time>
      </trkpt>
      <trkpt lat="51.961741" lon="8.886226">
        <ele>156.413050</ele>
        <time>2025-10-05T19:47:41.049Z</time>
      </trkpt>
      <trkpt lat="51.961958" lon="8.886456">
        <ele>155.953911</ele>
        <time>2025-10-05T19:47:45.305Z</time>
      </trkpt>
      <trkpt lat="51.962727" lon="8.887287">
        <ele>154.317254</ele>
        <time>2025-10-05T19:48:01.750Z</time>
      </trkpt>
      <trkpt lat="51.962979" lon="8.887560">
        <ele>153.780514</ele>
        <time>2025-10-05T19:48:07.924Z</time>
      </trkpt>
      <trkpt lat="51.963192" lon="8.887834">
        <ele>153.600911</ele>
        <time>2025-10-05T19:48:13.597Z</time>
      </trkpt>
      <trkpt lat="51.963218" lon="8.887985">
        <ele>153.653911</ele>
        <time>2025-10-05T19:48:15.634Z</time>
      </trkpt>
      <trkpt lat="51.963271" lon="8.888057">
        <ele>153.691831</ele>
        <time>2025-10-05T19:48:17.108Z</time>
      </trkpt>
      <trkpt lat="51.963315" lon="8.888131">
        <ele>153.726594</ele>
        <time>2025-10-05T19:48:18.451Z</time>
      </trkpt>
      <trkpt lat="51.963422" lon="8.888148">
        <ele>153.785577</ele>
        <time>2025-10-05T19:48:20.761Z</time>
      </trkpt>
      <trkpt lat="51.963708" lon="8.888595">
        <ele>154.003412</ele>
        <time>2025-10-05T19:48:29.454Z</time>
      </trkpt>
      <trkpt lat="51.963988" lon="8.889053">
        <ele>154.221512</ele>
        <time>2025-10-05T19:48:38.395Z</time>
      </trkpt>
      <trkpt lat="51.964140" lon="8.889306">
        <ele>154.340962</ele>
        <time>2025-10-05T19:48:43.329Z</time>
      </trkpt>
      <trkpt lat="51.964236" lon="8.889524">
        <ele>154.431540</ele>
        <time>2025-10-05T19:48:47.053Z</time>
      </trkpt>
      <trkpt lat="51.964751" lon="8.890361">
        <ele>155.290620</ele>
        <time>2025-10-05T19:49:03.407Z</time>
      </trkpt>
      <trkpt lat="51.965453" lon="8.891599">
        <ele>156.688255</ele>
        <time>2025-10-05T19:49:27.025Z</time>
      </trkpt>
      <trkpt lat="51.967251" lon="8.894457">
        <ele>161.164802</ele>
        <time>2025-10-05T19:50:26.240Z</time>
      </trkpt>
      <trkpt lat="51.967723" lon="8.895201">
        <ele>161.778949</ele>
        <time>2025-10-05T19:50:40.507Z</time>
      </trkpt>
      <trkpt lat="51.968049" lon="8.895600">
        <ele>162.160061</ele>
        <time>2025-10-05T19:50:49.051Z</time>
      </trkpt>
      <trkpt lat="51.968104" lon="8.895812">
        <ele>162.292347</ele>
        <time>2025-10-05T19:50:52.062Z</time>
      </trkpt>
      <trkpt lat="51.968208" lon="8.895870">
        <ele>162.430540</ele>
        <time>2025-10-05T19:50:54.414Z</time>
      </trkpt>
      <trkpt lat="51.968803" lon="8.896059">
        <ele>163.430741</ele>
        <time>2025-10-05T19:51:08.183Z</time>
      </trkpt>
      <trkpt lat="51.968907" lon="8.896012">
        <ele>163.608837</ele>
        <time>2025-10-05T19:51:10.701Z</time>
      </trkpt>
      <trkpt lat="51.969886" lon="8.895876">
        <ele>165.229813</ele>
        <time>2025-10-05T19:51:33.889Z</time>
      </trkpt>
      <trkpt lat="51.970246" lon="8.895761">
        <ele>165.770504</ele>
        <time>2025-10-05T19:51:42.517Z</time>
      </trkpt>
      <trkpt lat="51.971341" lon="8.895597">
        <ele>167.358898</ele>
        <time>2025-10-05T19:52:07.513Z</time>
      </trkpt>
      <trkpt lat="51.972870" lon="8.895781">
        <ele>169.694705</ele>
        <time>2025-10-05T19:52:42.268Z</time>
      </trkpt>
      <trkpt lat="51.973129" lon="8.895775">
        <ele>170.096176</ele>
        <time>2025-10-05T19:52:48.262Z</time>
      </trkpt>
      <trkpt lat="51.973832" lon="8.895901">
        <ele>171.775620</ele>
        <time>2025-10-05T19:53:04.883Z</time>
      </trkpt>
      <trkpt lat="51.975468" lon="8.896084">
        <ele>177.561271</ele>
        <time>2025-10-05T19:53:45.824Z</time>
      </trkpt>
      <trkpt lat="51.975990" lon="8.896080">
        <ele>180.068894</ele>
        <time>2025-10-05T19:53:59.665Z</time>
      </trkpt>
      <trkpt lat="51.976527" lon="8.896171">
        <ele>182.662561</ele>
        <time>2025-10-05T19:54:14.273Z</time>
      </trkpt>
      <trkpt lat="51.977104" lon="8.896214">
        <ele>185.437285</ele>
        <time>2025-10-05T19:54:29.766Z</time>
      </trkpt>
      <trkpt lat="51.977544" lon="8.896166">
        <ele>187.322210</ele>
        <time>2025-10-05T19:54:41.439Z</time>
      </trkpt>
      <trkpt lat="51.978103" lon="8.895934">
        <ele>189.787465</ele>
        <time>2025-10-05T19:54:56.754Z</time>
      </trkpt>
      <trkpt lat="51.978309" lon="8.895802">
        <ele>190.733721</ele>
        <time>2025-10-05T19:55:02.475Z</time>
      </trkpt>
      <trkpt lat="51.978850" lon="8.895342">
        <ele>193.154303</ele>
        <time>2025-10-05T19:55:17.613Z</time>
      </trkpt>
      <trkpt lat="51.979127" lon="8.895014">
        <ele>193.329591</ele>
        <time>2025-10-05T19:55:25.945Z</time>
      </trkpt>
      <trkpt lat="51.979546" lon="8.894376">
        <ele>193.623288</ele>
        <time>2025-10-05T19:55:39.171Z</time>
      </trkpt>
      <trkpt lat="51.979668" lon="8.894187">
        <ele>193.709503</ele>
        <time>2025-10-05T19:55:42.774Z</time>
      </trkpt>
      <trkpt lat="51.979598" lon="8.894070">
        <ele>193.760868</ele>
        <time>2025-10-05T19:55:44.798Z</time>
      </trkpt>
      <trkpt lat="51.979555" lon="8.893981">
        <ele>193.796488</ele>
        <time>2025-10-05T19:55:46.215Z</time>
      </trkpt>
      <trkpt lat="51.979555" lon="8.893928">
        <ele>193.813179</ele>
        <time>2025-10-05T19:55:46.854Z</time>
      </trkpt>
      <trkpt lat="51.979631" lon="8.893807">
        <ele>193.867601</ele>
        <time>2025-10-05T19:55:48.896Z</time>
      </trkpt>
      <trkpt lat="51.980933" lon="8.891818">
        <ele>189.695415</ele>
        <time>2025-10-05T19:56:18.440Z</time>
      </trkpt>
      <trkpt lat="51.982098" lon="8.889995">
        <ele>184.146206</ele>
        <time>2025-10-05T19:56:44.165Z</time>
      </trkpt>
      <trkpt lat="51.982251" lon="8.889840">
        <ele>183.506998</ele>
        <time>2025-10-05T19:56:47.055Z</time>
      </trkpt>
      <trkpt lat="51.982382" lon="8.889634">
        <ele>182.860599</ele>
        <time>2025-10-05T19:56:49.986Z</time>
      </trkpt>
      <trkpt lat="51.982431" lon="8.889422">
        <ele>182.366279</ele>
        <time>2025-10-05T19:56:52.235Z</time>
      </trkpt>
      <trkpt lat="51.982637" lon="8.888975">
        <ele>181.403626</ele>
        <time>2025-10-05T19:56:57.825Z</time>
      </trkpt>
      <trkpt lat="51.983324" lon="8.887474">
        <ele>178.300540</ele>
        <time>2025-10-05T19:57:17.126Z</time>
      </trkpt>
      <trkpt lat="51.983383" lon="8.887387">
        <ele>178.085815</ele>
        <time>2025-10-05T19:57:18.530Z</time>
      </trkpt>
      <trkpt lat="51.983434" lon="8.887379">
        <ele>177.947773</ele>
        <time>2025-10-05T19:57:19.417Z</time>
      </trkpt>
      <trkpt lat="51.984028" lon="8.886082">
        <ele>175.438940</ele>
        <time>2025-10-05T19:57:36.833Z</time>
      </trkpt>
      <trkpt lat="51.984574" lon="8.884793">
        <ele>173.056704</ele>
        <time>2025-10-05T19:57:53.134Z</time>
      </trkpt>
      <trkpt lat="51.984651" lon="8.884694">
        <ele>172.793516</ele>
        <time>2025-10-05T19:57:54.760Z</time>
      </trkpt>
      <trkpt lat="51.985088" lon="8.883745">
        <ele>170.650047</ele>
        <time>2025-10-05T19:58:06.684Z</time>
      </trkpt>
      <trkpt lat="51.985303" lon="8.883396">
        <ele>169.757109</ele>
        <time>2025-10-05T19:58:11.614Z</time>
      </trkpt>
      <trkpt lat="51.986097" lon="8.882381">
        <ele>166.973952</ele>
        <time>2025-10-05T19:58:28.394Z</time>
      </trkpt>
      <trkpt lat="51.986524" lon="8.881770">
        <ele>165.665984</ele>
        <time>2025-10-05T19:58:38.174Z</time>
      </trkpt>
      <trkpt lat="51.986634" lon="8.881669">
        <ele>165.375571</ele>
        <time>2025-10-05T19:58:40.375Z</time>
      </trkpt>
      <trkpt lat="51.987200" lon="8.881144">
        <ele>163.877552</ele>
        <time>2025-10-05T19:58:51.865Z</time>
      </trkpt>
      <trkpt lat="51.988216" lon="8.880816">
        <ele>161.514857</ele>
        <time>2025-10-05T19:59:09.795Z</time>
      </trkpt>
      <trkpt lat="51.988819" lon="8.880701">
        <ele>160.131999</ele>
        <time>2025-10-05T19:59:20.128Z</time>
      </trkpt>
      <trkpt lat="51.989596" lon="8.880613">
        <ele>158.618852</ele>
        <time>2025-10-05T19:59:33.548Z</time>
      </trkpt>
      <trkpt lat="51.989863" lon="8.880695">
        <ele>158.153572</ele>
        <time>2025-10-05T19:59:38.427Z</time>
      </trkpt>
      <trkpt lat="51.989993" lon="8.880721">
        <ele>157.929295</ele>
        <time>2025-10-05T19:59:40.814Z</time>
      </trkpt>
      <trkpt lat="51.990862" lon="8.880915">
        <ele>156.427337</ele>
        <time>2025-10-05T19:59:57.204Z</time>
      </trkpt>
      <trkpt lat="51.991816" lon="8.881213">
        <ele>154.807579</ele>
        <time>2025-10-05T20:00:15.309Z</time>
      </trkpt>
      <trkpt lat="51.991937" lon="8.881235">
        <ele>154.604919</ele>
        <time>2025-10-05T20:00:17.502Z</time>
      </trkpt>
      <trkpt lat="51.992003" lon="8.881162">
        <ele>154.472005</ele>
        <time>2025-10-05T20:00:18.927Z</time>
      </trkpt>
      <trkpt lat="51.992185" lon="8.881260">
        <ele>154.152852</ele>
        <time>2025-10-05T20:00:22.301Z</time>
      </trkpt>
      <trkpt lat="51.992979" lon="8.881441">
        <ele>152.782976</ele>
        <time>2025-10-05T20:00:36.355Z</time>
      </trkpt>
      <trkpt lat="51.993412" lon="8.881521">
        <ele>152.008053</ele>
        <time>2025-10-05T20:00:44.138Z</time>
      </trkpt>
      <trkpt lat="51.994249" lon="8.881788">
        <ele>150.491268</ele>
        <time>2025-10-05T20:00:59.405Z</time>
      </trkpt>
      <trkpt lat="51.995083" lon="8.881807">
        <ele>149.904979</ele>
        <time>2025-10-05T20:01:14.734Z</time>
      </trkpt>
      <trkpt lat="51.995665" lon="8.881775">
        <ele>149.692110</ele>
        <time>2025-10-05T20:01:26.428Z</time>
      </trkpt>
      <trkpt lat="51.996019" lon="8.881862">
        <ele>149.561233</ele>
        <time>2025-10-05T20:01:34.213Z</time>
      </trkpt>
      <trkpt lat="51.996312" lon="8.881978">
        <ele>149.573591</ele>
        <time>2025-10-05T20:01:41.011Z</time>
      </trkpt>
      <trkpt lat="51.997253" lon="8.882131">
        <ele>150.710811</ele>
        <time>2025-10-05T20:02:03.142Z</time>
      </trkpt>
      <trkpt lat="51.998090" lon="8.882267">
        <ele>151.517154</ele>
        <time>2025-10-05T20:02:22.176Z</time>
      </trkpt>
      <trkpt lat="51.998089" lon="8.882392">
        <ele>151.371954</ele>
        <time>2025-10-05T20:02:23.769Z</time>
      </trkpt>
      <trkpt lat="51.998335" lon="8.882430">
        <ele>150.905779</ele>
        <time>2025-10-05T20:02:28.710Z</time>
      </trkpt>
      <trkpt lat="51.998997" lon="8.882511">
        <ele>149.653371</ele>
        <time>2025-10-05T20:02:40.534Z</time>
      </trkpt>
      <trkpt lat="51.999377" lon="8.882461">
        <ele>148.934149</ele>
        <time>2025-10-05T20:02:46.789Z</time>
      </trkpt>
      <trkpt lat="52.001332" lon="8.881605">
        <ele>142.571914</ele>
        <time>2025-10-05T20:03:19.250Z</time>
      </trkpt>
      <trkpt lat="52.001400" lon="8.881540">
        <ele>142.302350</ele>
        <time>2025-10-05T20:03:20.539Z</time>
      </trkpt>
      <trkpt lat="52.001486" lon="8.881356">
        <ele>141.887924</ele>
        <time>2025-10-05T20:03:22.845Z</time>
      </trkpt>
      <trkpt lat="52.001563" lon="8.881096">
        <ele>141.431786</ele>
        <time>2025-10-05T20:03:25.736Z</time>
      </trkpt>
      <trkpt lat="52.001944" lon="8.879593">
        <ele>138.862066</ele>
        <time>2025-10-05T20:03:42.780Z</time>
      </trkpt>
      <trkpt lat="52.001995" lon="8.879410">
        <ele>138.544490</ele>
        <time>2025-10-05T20:03:44.928Z</time>
      </trkpt>
      <trkpt lat="52.002081" lon="8.879296">
        <ele>138.259437</ele>
        <time>2025-10-05T20:03:46.856Z</time>
      </trkpt>
      <trkpt lat="52.002119" lon="8.879260">
        <ele>138.146469</ele>
        <time>2025-10-05T20:03:47.631Z</time>
      </trkpt>
      <trkpt lat="52.002314" lon="8.879618">
        <ele>137.397951</ele>
        <time>2025-10-05T20:03:52.713Z</time>
      </trkpt>
      <trkpt lat="52.002399" lon="8.879835">
        <ele>137.022214</ele>
        <time>2025-10-05T20:03:55.448Z</time>
      </trkpt>
      <trkpt lat="52.002496" lon="8.880044">
        <ele>136.639849</ele>
        <time>2025-10-05T20:03:58.205Z</time>
      </trkpt>
      <trkpt lat="52.002576" lon="8.880143">
        <ele>136.401197</ele>
        <time>2025-10-05T20:03:59.934Z</time>
      </trkpt>
      <trkpt lat="52.002616" lon="8.880256">
        <ele>136.210776</ele>
        <time>2025-10-05T20:04:01.326Z</time>
      </trkpt>
      <trkpt lat="52.002671" lon="8.880405">
        <ele>135.956979</ele>
        <time>2025-10-05T20:04:03.171Z</time>
      </trkpt>
      <trkpt lat="52.002851" lon="8.880812">
        <ele>135.224890</ele>
        <time>2025-10-05T20:04:08.474Z</time>
      </trkpt>
      <trkpt lat="52.003177" lon="8.881314">
        <ele>134.158947</ele>
        <time>2025-10-05T20:04:16.040Z</time>
      </trkpt>
      <trkpt lat="52.003678" lon="8.881815">
        <ele>132.889323</ele>
        <time>2025-10-05T20:04:25.989Z</time>
      </trkpt>
      <trkpt lat="52.004817" lon="8.882645">
        <ele>130.751421</ele>
        <time>2025-10-05T20:04:48.454Z</time>
      </trkpt>
      <trkpt lat="52.004997" lon="8.882718">
        <ele>130.433696</ele>
        <time>2025-10-05T20:04:52.011Z</time>
      </trkpt>
      <trkpt lat="52.005948" lon="8.883388">
        <ele>129.278327</ele>
        <time>2025-10-05T20:05:11.906Z</time>
      </trkpt>
      <trkpt lat="52.006531" lon="8.883775">
        <ele>128.651957</ele>
        <time>2025-10-05T20:05:24.234Z</time>
      </trkpt>
      <trkpt lat="52.007535" lon="8.884509">
        <ele>127.700116</ele>
        <time>2025-10-05T20:05:45.865Z</time>
      </trkpt>
      <trkpt lat="52.008486" lon="8.885194">
        <ele>126.837398</ele>
        <time>2025-10-05T20:06:06.513Z</time>
      </trkpt>
      <trkpt lat="52.009597" lon="8.885983">
        <ele>125.348998</ele>
        <time>2025-10-05T20:06:29.897Z</time>
      </trkpt>
      <trkpt lat="52.009617" lon="8.886102">
        <ele>125.255792</ele>
        <time>2025-10-05T20:06:31.301Z</time>
      </trkpt>
      <trkpt lat="52.009647" lon="8.886205">
        <ele>125.169694</ele>
        <time>2025-10-05T20:06:32.551Z</time>
      </trkpt>
      <trkpt lat="52.009721" lon="8.886206">
        <ele>125.078853</ele>
        <time>2025-10-05T20:06:33.892Z</time>
      </trkpt>
      <trkpt lat="52.009774" lon="8.886245">
        <ele>125.007431</ele>
        <time>2025-10-05T20:06:34.938Z</time>
      </trkpt>
      <trkpt lat="52.010010" lon="8.886411">
        <ele>124.691747</ele>
        <time>2025-10-05T20:06:39.551Z</time>
      </trkpt>
      <trkpt lat="52.010312" lon="8.886635">
        <ele>124.177060</ele>
        <time>2025-10-05T20:06:45.447Z</time>
      </trkpt>
      <trkpt lat="52.010708" lon="8.886917">
        <ele>123.500766</ele>
        <time>2025-10-05T20:06:53.067Z</time>
      </trkpt>
      <trkpt lat="52.011435" lon="8.887446">
        <ele>122.254786</ele>
        <time>2025-10-05T20:07:07.609Z</time>
      </trkpt>
      <trkpt lat="52.011734" lon="8.887663">
        <ele>121.774696</ele>
        <time>2025-10-05T20:07:13.920Z</time>
      </trkpt>
      <trkpt lat="52.012279" lon="8.888038">
        <ele>121.098698</ele>
        <time>2025-10-05T20:07:25.529Z</time>
      </trkpt>
      <trkpt lat="52.013664" lon="8.889043">
        <ele>119.190335</ele>
        <time>2025-10-05T20:07:54.429Z</time>
      </trkpt>
      <trkpt lat="52.013952" lon="8.889250">
        <ele>118.687233</ele>
        <time>2025-10-05T20:07:59.971Z</time>
      </trkpt>
      <trkpt lat="52.014368" lon="8.889550">
        <ele>117.960133</ele>
        <time>2025-10-05T20:08:08.177Z</time>
      </trkpt>
      <trkpt lat="52.014929" lon="8.889950">
        <ele>116.981411</ele>
        <time>2025-10-05T20:08:19.265Z</time>
      </trkpt>
      <trkpt lat="52.014882" lon="8.890169">
        <ele>116.787820</ele>
        <time>2025-10-05T20:08:21.803Z</time>
      </trkpt>
      <trkpt lat="52.014898" lon="8.890313">
        <ele>116.671401</ele>
        <time>2025-10-05T20:08:23.426Z</time>
      </trkpt>
      <trkpt lat="52.015220" lon="8.891113">
        <ele>115.910893</ele>
        <time>2025-10-05T20:08:34.008Z</time>
      </trkpt>
      <trkpt lat="52.015762" lon="8.892411">
        <ele>114.662962</ele>
        <time>2025-10-05T20:08:52.568Z</time>
      </trkpt>
      <trkpt lat="52.016199" lon="8.893466">
        <ele>114.261529</ele>
        <time>2025-10-05T20:09:08.230Z</time>
      </trkpt>
      <trkpt lat="52.016404" lon="8.894007">
        <ele>114.078228</ele>
        <time>2025-10-05T20:09:16.337Z</time>
      </trkpt>
      <trkpt lat="52.016678" lon="8.894870">
        <ele>113.798059</ele>
        <time>2025-10-05T20:09:28.558Z</time>
      </trkpt>
      <trkpt lat="52.016712" lon="8.894966">
        <ele>113.766102</ele>
        <time>2025-10-05T20:09:29.932Z</time>
      </trkpt>
      <trkpt lat="52.016800" lon="8.895210">
        <ele>113.785060</ele>
        <time>2025-10-05T20:09:33.449Z</time>
      </trkpt>
      <trkpt lat="52.016916" lon="8.895413">
        <ele>113.804252</ele>
        <time>2025-10-05T20:09:36.924Z</time>
      </trkpt>
      <trkpt lat="52.017073" lon="8.895568">
        <ele>113.824932</ele>
        <time>2025-10-05T20:09:40.738Z</time>
      </trkpt>
      <trkpt lat="52.017411" lon="8.895903">
        <ele>113.869502</ele>
        <time>2025-10-05T20:09:49.046Z</time>
      </trkpt>
      <trkpt lat="52.017625" lon="8.896164">
        <ele>113.899624</ele>
        <time>2025-10-05T20:09:54.690Z</time>
      </trkpt>
      <trkpt lat="52.017698" lon="8.896259">
        <ele>113.910153</ele>
        <time>2025-10-05T20:09:56.692Z</time>
      </trkpt>
      <trkpt lat="52.018011" lon="8.896748">
        <ele>113.959033</ele>
        <time>2025-10-05T20:10:06.202Z</time>
      </trkpt>
      <trkpt lat="52.018370" lon="8.897258">
        <ele>114.292974</ele>
        <time>2025-10-05T20:10:16.932Z</time>
      </trkpt>
      <trkpt lat="52.018432" lon="8.897310">
        <ele>114.350136</ele>
        <time>2025-10-05T20:10:18.505Z</time>
      </trkpt>
      <trkpt lat="52.018499" lon="8.897354">
        <ele>114.409340</ele>
        <time>2025-10-05T20:10:20.154Z</time>
      </trkpt>
      <trkpt lat="52.019129" lon="8.897880">
        <ele>114.989627</ele>
        <time>2025-10-05T20:10:36.129Z</time>
      </trkpt>
      <trkpt lat="52.019296" lon="8.897967">
        <ele>115.133305</ele>
        <time>2025-10-05T20:10:40.064Z</time>
      </trkpt>
      <trkpt lat="52.019676" lon="8.898034">
        <ele>115.432807</ele>
        <time>2025-10-05T20:10:48.568Z</time>
      </trkpt>
      <trkpt lat="52.019783" lon="8.898084">
        <ele>115.265016</ele>
        <time>2025-10-05T20:10:51.025Z</time>
      </trkpt>
      <trkpt lat="52.020279" lon="8.898426">
        <ele>114.453006</ele>
        <time>2025-10-05T20:11:02.461Z</time>
      </trkpt>
      <trkpt lat="52.020901" lon="8.898928">
        <ele>113.406370</ele>
        <time>2025-10-05T20:11:15.402Z</time>
      </trkpt>
      <trkpt lat="52.020953" lon="8.898970">
        <ele>113.318857</ele>
        <time>2025-10-05T20:11:16.397Z</time>
      </trkpt>
      <trkpt lat="52.021224" lon="8.899213">
        <ele>112.852394</ele>
        <time>2025-10-05T20:11:21.399Z</time>
      </trkpt>
      <trkpt lat="52.021367" lon="8.899321">
        <ele>112.341686</ele>
        <time>2025-10-05T20:11:23.853Z</time>
      </trkpt>
      <trkpt lat="52.021981" lon="8.899493">
        <ele>109.196945</ele>
        <time>2025-10-05T20:11:33.189Z</time>
      </trkpt>
      <trkpt lat="52.022332" lon="8.899593">
        <ele>107.398329</ele>
        <time>2025-10-05T20:11:38.496Z</time>
      </trkpt>
      <trkpt lat="52.022670" lon="8.899678">
        <ele>105.672041</ele>
        <time>2025-10-05T20:11:43.464Z</time>
      </trkpt>
      <trkpt lat="52.022683" lon="8.899617">
        <ele>105.471544</ele>
        <time>2025-10-05T20:11:44.040Z</time>
      </trkpt>
      <trkpt lat="52.022705" lon="8.899513">
        <ele>105.129983</ele>
        <time>2025-10-05T20:11:45.047Z</time>
      </trkpt>
      <trkpt lat="52.022801" lon="8.899414">
        <ele>104.556117</ele>
        <time>2025-10-05T20:11:46.710Z</time>
      </trkpt>
      <trkpt lat="52.022794" lon="8.899612">
        <ele>103.940148</ele>
        <time>2025-10-05T20:11:48.526Z</time>
      </trkpt>
      <trkpt lat="52.022794" lon="8.899637">
        <ele>103.862502</ele>
        <time>2025-10-05T20:11:48.761Z</time>
      </trkpt>
      <trkpt lat="52.022793" lon="8.899667">
        <ele>103.769190</ele>
        <time>2025-10-05T20:11:49.042Z</time>
      </trkpt>
      <trkpt lat="52.022792" lon="8.899707">
        <ele>103.648956</ele>
        <time>2025-10-05T20:11:49.414Z</time>
      </trkpt>
      <trkpt lat="52.022797" lon="8.899796">
        <ele>103.516050</ele>
        <time>2025-10-05T20:11:50.249Z</time>
      </trkpt>
      <trkpt lat="52.022828" lon="8.899981">
        <ele>103.230912</ele>
        <time>2025-10-05T20:11:52.049Z</time>
      </trkpt>
      <trkpt lat="52.022901" lon="8.899961">
        <ele>103.052001</ele>
        <time>2025-10-05T20:11:53.601Z</time>
      </trkpt>
      <trkpt lat="52.023110" lon="8.899839">
        <ele>102.515306</ele>
        <time>2025-10-05T20:11:58.405Z</time>
      </trkpt>
      <trkpt lat="52.023131" lon="8.899826">
        <ele>102.460997</ele>
        <time>2025-10-05T20:11:58.900Z</time>
      </trkpt>
      <trkpt lat="52.023550" lon="8.899572">
        <ele>101.380227</ele>
        <time>2025-10-05T20:12:09.335Z</time>
      </trkpt>
      <trkpt lat="52.023567" lon="8.899562">
        <ele>101.336534</ele>
        <time>2025-10-05T20:12:09.772Z</time>
      </trkpt>
      <trkpt lat="52.023683" lon="8.899522">
        <ele>101.049951</ele>
        <time>2025-10-05T20:12:12.757Z</time>
      </trkpt>
      <trkpt lat="52.023849" lon="8.899407">
        <ele>100.613842</ele>
        <time>2025-10-05T20:12:16.220Z</time>
      </trkpt>
      <trkpt lat="52.024068" lon="8.899374">
        <ele>100.082307</ele>
        <time>2025-10-05T20:12:20.365Z</time>
      </trkpt>
      <trkpt lat="52.024100" lon="8.899368">
        <ele>100.004458</ele>
        <time>2025-10-05T20:12:21.024Z</time>
      </trkpt>
      <trkpt lat="52.024077" lon="8.899614">
        <ele>99.634435</ele>
        <time>2025-10-05T20:12:24.174Z</time>
      </trkpt>
      <trkpt lat="52.023986" lon="8.901106">
        <ele>99.079292</ele>
        <time>2025-10-05T20:12:43.637Z</time>
      </trkpt>
      <trkpt lat="52.023918" lon="8.901989">
        <ele>98.921564</ele>
        <time>2025-10-05T20:12:54.935Z</time>
      </trkpt>
      <trkpt lat="52.023946" lon="8.903493">
        <ele>98.632665</ele>
        <time>2025-10-05T20:13:13.604Z</time>
      </trkpt>
      <trkpt lat="52.023892" lon="8.904000">
        <ele>98.526232</ele>
        <time>2025-10-05T20:13:20.067Z</time>
      </trkpt>
      <trkpt lat="52.023872" lon="8.904100">
        <ele>98.504481</ele>
        <time>2025-10-05T20:13:21.392Z</time>
      </trkpt>
      <trkpt lat="52.023851" lon="8.904259">
        <ele>98.470843</ele>
        <time>2025-10-05T20:13:23.474Z</time>
      </trkpt>
      <trkpt lat="52.023846" lon="8.904631">
        <ele>98.393876</ele>
        <time>2025-10-05T20:13:28.234Z</time>
      </trkpt>
      <trkpt lat="52.023984" lon="8.905573">
        <ele>98.193576</ele>
        <time>2025-10-05T20:13:40.578Z</time>
      </trkpt>
      <trkpt lat="52.024136" lon="8.906030">
        <ele>98.183147</ele>
        <time>2025-10-05T20:13:47.049Z</time>
      </trkpt>
      <trkpt lat="52.024340" lon="8.906308">
        <ele>98.183147</ele>
        <time>2025-10-05T20:13:52.351Z</time>
      </trkpt>
      <trkpt lat="52.024396" lon="8.906385">
        <ele>98.183147</ele>
        <time>2025-10-05T20:13:53.854Z</time>
      </trkpt>
      <trkpt lat="52.025135" lon="8.907017">
        <ele>98.183147</ele>
        <time>2025-10-05T20:14:10.720Z</time>
      </trkpt>
      <trkpt lat="52.025188" lon="8.907045">
        <ele>98.183147</ele>
        <time>2025-10-05T20:14:12.216Z</time>
      </trkpt>
      <trkpt lat="52.025203" lon="8.907453">
        <ele>98.183147</ele>
        <time>2025-10-05T20:14:17.584Z</time>
      </trkpt>
      <trkpt lat="52.025148" lon="8.907466">
        <ele>98.183147</ele>
        <time>2025-10-05T20:14:19.110Z</time>
      </trkpt>
      <trkpt lat="52.025134" lon="8.907465">
        <ele>98.183147</ele>
        <time>2025-10-05T20:14:19.495Z</time>
      </trkpt>
      <trkpt lat="52.025044" lon="8.907447">
        <ele>98.183147</ele>
        <time>2025-10-05T20:14:21.349Z</time>
      </trkpt>
      <trkpt lat="52.024891" lon="8.907415">
        <ele>98.183147</ele>
        <time>2025-10-05T20:14:24.561Z</time>
      </trkpt>
      <trkpt lat="52.024761" lon="8.907326">
        <ele>98.183147</ele>
        <time>2025-10-05T20:14:27.514Z</time>
      </trkpt>
      <trkpt lat="52.024630" lon="8.907230">
        <ele>98.183147</ele>
        <time>2025-10-05T20:14:30.544Z</time>
      </trkpt>
      <trkpt lat="52.024501" lon="8.907135">
        <ele>98.183147</ele>
        <time>2025-10-05T20:14:33.564Z</time>
      </trkpt>
      <trkpt lat="52.024446" lon="8.907343">
        <ele>98.183147</ele>
        <time>2025-10-05T20:14:36.567Z</time>
      </trkpt>
    </trkseg>
  </trk>
</gpx>